[[{"header":{"parameterUnit":"m.s-1","parameterCategory":1,"la1":30.6,"la2":28.766,"lo1":-90.7593,"lo2":-88.6598,"dx":0.0162,"dy":0.0183,"nx":116,"ny":114,"refTime":"2022-12-08T06:00:00:Z","depth":0,"parameterNumber":2,"parameterNumberName":"U-component_of_WINDS"},"data":[0.0,0.0,0.0,0.0,0.0,0.0,0.0,0.0,0.0,0.0,0.0,0.0,0.0,0.0,0.0,0.0,0.0,0.0,0.0,0.0,0.0,0.0,0.0,0.0,0.0,0.0,0.0,0.0,0.0,0.0,0.0,0.0,0.0,0.0,0.0,0.0,0.0,0.0,0.0,0.0,0.0,0.0,0.0,0.0,0.0,0.0,0.0,0.0,0.0,0.0,0.0,0.0,0.0,0.0,0.0,0.0,0.0,0.0,0.0,0.0,0.0,0.0,0.0,0.0,0.0,0.0,0.0,0.0,0.0,0.0,0.0,0.0,0.0,0.0,0.0,0.0,0.0,0.0,0.0,0.0,0.0,0.0,0.0,0.0,0.0,0.0,0.0,0.0,0.0,0.0,0.0,0.0,0.0,0.0,0.0,0.0,0.0,0.0,0.0,0.0,0.0,0.0,0.0,0.0,0.0,0.0,0.0,0.0,0.0,0.0,0.0,0.0,0.0,0.0,0.0,0.0,0.0,0.0,0.0,0.0,0.0,0.0,0.0,0.0,0.0,0.0,0.0,0.0,0.0,0.0,0.0,0.0,0.0,0.0,0.0,0.0,0.0,0.0,0.0,0.0,0.0,0.0,0.0,0.0,0.0,0.0,0.0,0.0,0.0,0.0,0.0,0.0,0.0,0.0,0.0,0.0,0.0,0.0,0.0,0.0,0.0,0.0,0.0,0.0,0.0,0.0,0.0,0.0,0.0,0.0,0.0,0.0,0.0,0.0,0.0,0.0,0.0,0.0,0.0,0.0,0.0,0.0,0.0,0.0,0.0,0.0,0.0,0.0,0.0,0.0,0.0,0.0,0.0,0.0,0.0,0.0,0.0,0.0,0.0,0.0,0.0,0.0,0.0,0.0,0.0,0.0,0.0,0.0,0.0,0.0,0.0,0.0,0.0,0.0,0.0,0.0,0.0,0.0,0.0,0.0,0.0,0.0,0.0,0.0,0.0,0.0,0.0,0.0,0.0,0.0,0.0,0.0,0.0,0.0,0.0,0.0,0.0,0.0,0.0,0.0,0.0,0.0,0.0,0.0,0.0,0.0,0.0,0.0,0.0,0.0,0.0,0.0,0.0,0.0,0.0,0.0,0.0,0.0,0.0,0.0,0.0,0.0,0.0,0.0,0.0,0.0,0.0,0.0,0.0,0.0,0.0,0.0,0.0,0.0,0.0,0.0,0.0,0.0,0.0,0.0,0.0,0.0,0.0,0.0,0.0,0.0,0.0,0.0,0.0,0.0,0.0,0.0,0.0,0.0,0.0,0.0,0.0,0.0,0.0,0.0,0.0,0.0,0.0,0.0,0.0,0.0,0.0,0.0,0.0,0.0,0.0,0.0,0.0,0.0,0.0,0.0,0.0,0.0,0.0,0.0,0.0,0.0,0.0,0.0,0.0,0.0,0.0,0.0,0.0,0.0,0.0,0.0,0.0,0.0,0.0,0.0,0.0,0.0,0.0,0.0,0.0,0.0,0.0,0.0,0.0,0.0,0.0,0.0,0.0,0.0,0.0,0.0,0.0,0.0,0.0,0.0,0.0,0.0,0.0,0.0,0.0,0.0,0.0,0.0,0.0,0.0,0.0,0.0,0.0,0.0,0.0,0.0,0.0,0.0,0.0,0.0,0.0,0.0,0.0,0.0,0.0,0.0,0.0,0.0,0.0,0.0,0.0,0.0,0.0,0.0,0.0,0.0,0.0,0.0,0.0,0.0,0.0,0.0,0.0,0.0,0.0,0.0,0.0,0.0,0.0,0.0,0.0,0.0,0.0,0.0,0.0,0.0,0.0,0.0,0.0,0.0,0.0,0.0,0.0,0.0,0.0,0.0,0.0,0.0,0.0,0.0,0.0,0.0,0.0,0.0,0.0,0.0,0.0,0.0,0.0,0.0,0.0,0.0,0.0,0.0,0.0,0.0,0.0,0.0,0.0,0.0,0.0,0.0,0.0,0.0,0.0,0.0,0.0,0.0,0.0,0.0,0.0,0.0,0.0,0.0,0.0,0.0,0.0,0.0,0.0,0.0,0.0,0.0,0.0,0.0,0.0,0.0,0.0,0.0,0.0,0.0,0.0,0.0,0.0,0.0,0.0,0.0,0.0,0.0,0.0,0.0,0.0,0.0,0.0,0.0,0.0,0.0,0.0,0.0,0.0,0.0,0.0,0.0,0.0,0.0,0.0,0.0,0.0,0.0,0.0,0.0,0.0,0.0,0.0,0.0,0.0,0.0,0.0,0.0,0.0,0.0,0.0,0.0,0.0,0.0,0.0,0.0,0.0,0.0,0.0,0.0,0.0,0.0,0.0,0.0,0.0,0.0,0.0,0.0,0.0,0.0,0.0,0.0,0.0,0.0,0.0,0.0,0.0,0.0,0.0,0.0,0.0,0.0,0.0,0.0,0.0,0.0,0.0,0.0,0.0,0.0,0.0,0.0,0.0,0.0,0.0,0.0,0.0,0.0,0.0,0.0,0.0,0.0,0.0,0.0,0.0,0.0,0.0,0.0,0.0,0.0,0.0,0.0,0.0,0.0,0.0,0.0,0.0,0.0,0.0,0.0,0.0,0.0,0.0,0.0,0.0,0.0,0.0,0.0,0.0,0.0,0.0,0.0,0.0,0.0,0.0,0.0,0.0,0.0,0.0,0.0,0.0,0.0,0.0,0.0,0.0,0.0,0.0,0.0,0.0,0.0,0.0,0.0,0.0,0.0,0.0,0.0,0.0,0.0,0.0,0.0,0.0,0.0,0.0,0.0,0.0,0.0,0.0,0.0,0.0,0.0,0.0,0.0,0.0,0.0,0.0,0.0,0.0,0.0,0.0,0.0,0.0,0.0,0.0,0.0,0.0,0.0,0.0,0.0,0.0,0.0,0.0,0.0,0.0,0.0,0.0,0.0,0.0,0.0,0.0,0.0,0.0,0.0,0.0,0.0,0.0,0.0,0.0,0.0,0.0,0.0,0.0,0.0,0.0,0.0,0.0,0.0,0.0,0.0,0.0,0.0,0.0,0.0,0.0,0.0,0.0,0.0,0.0,0.0,0.0,0.0,0.0,0.0,0.0,0.0,0.0,0.0,0.0,0.0,0.0,0.0,0.0,0.0,0.0,0.0,0.0,0.0,0.0,0.0,0.0,0.0,0.0,0.0,0.0,0.0,0.0,0.0,0.0,0.0,0.0,0.0,0.0,0.0,0.0,0.0,0.0,0.0,0.0,0.0,0.0,0.0,0.0,0.0,0.0,0.0,0.0,0.0,0.0,0.0,0.0,0.0,0.0,0.0,0.0,0.0,0.0,0.0,0.0,0.0,0.0,0.0,0.0,0.0,0.0,0.0,0.0,0.0,0.0,0.0,0.0,0.0,0.0,0.0,0.0,0.0,0.0,0.0,0.0,0.0,0.0,0.0,0.0,0.0,0.0,0.0,0.0,0.0,0.0,0.0,0.0,0.0,0.0,0.0,0.0,0.0,0.0,0.0,0.0,0.0,0.0,0.0,0.0,0.0,0.0,0.0,0.0,0.0,0.0,0.0,0.0,0.0,0.0,0.0,0.0,0.0,0.0,0.0,0.0,0.0,0.0,0.0,0.0,0.0,0.0,0.0,0.0,0.0,0.0,0.0,0.0,0.0,0.0,0.0,0.0,0.0,0.0,0.0,0.0,0.0,0.0,0.0,0.0,0.0,0.0,0.0,0.0,0.0,0.0,0.0,0.0,0.0,0.0,0.0,0.0,0.0,0.0,0.0,0.0,0.0,0.0,0.0,0.0,0.0,0.0,0.0,0.0,0.0,0.0,0.0,0.0,0.0,0.0,0.0,0.0,0.0,0.0,0.0,0.0,0.0,0.0,0.0,0.0,0.0,0.0,0.0,0.0,0.0,0.0,0.0,0.0,0.0,0.0,0.0,0.0,0.0,0.0,0.0,0.0,0.0,0.0,0.0,0.0,0.0,0.0,0.0,0.0,0.0,0.0,0.0,0.0,0.0,0.0,0.0,0.0,0.0,0.0,0.0,0.0,0.0,0.0,0.0,0.0,0.0,0.0,0.0,0.0,0.0,0.0,0.0,0.0,0.0,0.0,0.0,0.0,0.0,0.0,0.0,0.0,0.0,0.0,0.0,0.0,0.0,0.0,0.0,0.0,0.0,0.0,0.0,0.0,0.0,0.0,0.0,0.0,0.0,0.0,0.0,0.0,0.0,0.0,0.0,0.0,0.0,0.0,0.0,0.0,0.0,0.0,0.0,0.0,0.0,0.0,0.0,0.0,0.0,0.0,0.0,0.0,0.0,0.0,0.0,0.0,0.0,0.0,0.0,0.0,0.0,0.0,0.0,0.0,0.0,0.0,0.0,0.0,0.0,0.0,0.0,0.0,0.0,0.0,0.0,0.0,0.0,0.0,0.0,0.0,0.0,0.0,0.0,0.0,0.0,0.0,0.0,0.0,0.0,0.0,0.0,0.0,0.0,0.0,0.0,0.0,0.0,0.0,0.0,0.0,0.0,0.0,0.0,0.0,0.0,0.0,0.0,0.0,0.0,0.0,0.0,0.0,0.0,0.0,0.0,0.0,0.0,0.0,0.0,0.0,0.0,0.0,0.0,0.0,0.0,0.0,0.0,0.0,0.0,0.0,0.0,0.0,0.0,0.0,0.0,0.0,0.0,0.0,0.0,0.0,0.0,0.0,0.0,0.0,0.0,0.0,0.0,0.0,0.0,0.0,0.0,0.0,0.0,0.0,0.0,0.0,0.0,0.0,0.0,0.0,0.0,0.0,0.0,0.0,0.0,0.0,0.0,0.0,0.0,0.0,0.0,0.0,0.0,0.0,0.0,0.0,0.0,0.0,0.0,0.0,0.0,0.0,0.0,0.0,0.0,0.0,0.0,0.0,0.0,0.0,0.0,0.0,0.0,0.0,0.0,0.0,0.0,0.0,0.0,0.0,0.0,0.0,0.0,0.0,0.0,0.0,0.0,0.0,0.0,0.0,0.0,0.0,0.0,0.0,0.0,0.0,0.0,0.0,0.0,0.0,0.0,0.0,0.0,0.0,0.0,0.0,0.0,0.0,0.0,0.0,0.0,0.0,0.0,0.0,0.0,0.0,0.0,0.0,0.0,0.0,0.0,0.0,0.0,0.0,0.0,0.0,0.0,0.0,0.0,0.0,0.0,0.0,0.0,0.0,0.0,0.0,0.0,0.0,0.0,0.0,0.0,0.0,0.0,0.0,0.0,0.0,0.0,0.0,0.0,0.0,0.0,0.0,0.0,0.0,0.0,0.0,0.0,0.0,0.0,0.0,0.0,0.0,0.0,0.0,0.0,0.0,0.0,0.0,0.0,0.0,0.0,0.0,0.0,0.0,0.0,0.0,0.0,0.0,0.0,0.0,0.0,0.0,0.0,0.0,0.0,0.0,0.0,0.0,0.0,0.0,0.0,0.0,0.0,0.0,0.0,0.0,0.0,0.0,0.0,0.0,0.0,0.0,0.0,0.0,0.0,0.0,0.0,0.0,0.0,0.0,0.0,0.0,0.0,0.0,0.0,0.0,0.0,0.0,0.0,0.0,0.0,0.0,0.0,0.0,0.0,0.0,0.0,0.0,0.0,0.0,0.0,0.0,0.0,0.0,0.0,0.0,0.0,0.0,0.0,0.0,0.0,0.0,0.0,0.0,0.0,0.0,0.0,0.0,0.0,0.0,0.0,0.0,0.0,0.0,0.0,0.0,0.0,0.0,0.0,0.0,0.0,0.0,0.0,0.0,0.0,0.0,0.0,0.0,0.0,0.0,0.0,0.0,0.0,0.0,0.0,0.0,0.0,0.0,0.0,0.0,0.0,0.0,0.0,0.0,0.0,0.0,0.0,0.0,0.0,0.0,0.0,0.0,0.0,0.0,0.0,0.0,0.0,0.0,0.0,0.0,0.0,0.0,0.0,0.0,0.0,0.0,0.0,0.0,0.0,0.0,0.0,0.0,0.0,0.0,0.0,0.0,0.0,0.0,0.0,0.0,0.0,0.0,0.0,0.0,0.0,0.0,0.0,0.0,0.0,0.0,0.0,0.0,0.0,0.0,0.0,0.0,0.0,0.0,0.0,-2.089,-1.7852,0.0,0.0,0.0,0.0,0.0,0.0,0.0,0.0,0.0,0.0,0.0,0.0,0.0,0.0,0.0,0.0,0.0,0.0,0.0,0.0,0.0,0.0,0.0,-0.9873,-1.0037,-0.9901,-1.0196,0.0,0.0,0.0,0.0,0.0,0.0,0.0,0.0,0.0,-0.7966,-0.9069,-1.0186,-1.2297,-1.5236,-1.4508,-1.3022,-1.0999,0.0,0.0,0.0,0.0,0.0,0.0,0.0,0.0,0.0,0.0,0.0,0.0,0.0,0.0,0.0,0.0,0.0,0.0,0.0,0.0,0.0,0.0,0.0,0.0,0.0,0.0,0.0,0.0,0.0,0.0,0.0,0.0,0.0,0.0,0.0,0.0,0.0,0.0,0.0,0.0,0.0,0.0,0.0,0.0,0.0,0.0,0.0,0.0,0.0,0.0,0.0,0.0,0.0,0.0,0.0,0.0,0.0,0.0,0.0,0.0,0.0,0.0,0.0,0.0,0.0,0.0,0.0,0.0,0.0,0.0,-2.4036,-2.1715,0.0,0.0,0.0,0.0,0.0,0.0,0.0,0.0,0.0,0.0,0.0,0.0,0.0,0.0,0.0,0.0,0.0,0.0,0.0,0.0,0.0,-0.9527,-0.9654,-1.0201,-1.0562,-1.0573,-1.1129,-1.1186,-1.0451,-1.0411,0.0,0.0,0.0,0.0,-0.8127,-0.8298,-0.9524,-1.1868,-1.4177,-1.7386,-2.1369,-2.1394,-1.9068,-1.4838,-1.4435,0.0,0.0,0.0,0.0,0.0,0.0,0.0,0.0,0.0,0.0,0.0,0.0,0.0,0.0,0.0,0.0,0.0,0.0,0.0,0.0,0.0,0.0,0.0,0.0,0.0,0.0,0.0,0.0,0.0,0.0,0.0,0.0,0.0,0.0,0.0,0.0,0.0,0.0,0.0,0.0,0.0,0.0,0.0,0.0,0.0,0.0,0.0,0.0,0.0,0.0,0.0,0.0,0.0,0.0,0.0,0.0,0.0,0.0,0.0,0.0,0.0,0.0,0.0,-2.6553,-2.7111,-2.7761,-2.8089,-2.8603,-2.9155,-2.7695,-2.6559,-2.5515,-2.2412,0.0,0.0,0.0,0.0,0.0,0.0,0.0,0.0,0.0,0.0,0.0,0.0,0.0,0.0,0.0,0.0,0.0,0.0,0.0,-0.9627,-1.0226,-1.0364,-1.0656,-1.1222,-1.1365,-1.1352,-1.1252,-1.1235,0.0,0.0,0.0,-0.9703,-0.8966,-0.957,-1.1175,-1.3735,-1.9076,-2.2625,-2.4416,-2.4605,-2.4256,-2.3354,-2.0755,-1.8679,-1.7005,0.0,0.0,0.0,0.0,0.0,0.0,0.0,0.0,0.0,0.0,0.0,0.0,0.0,0.0,0.0,0.0,0.0,0.0,0.0,0.0,0.0,0.0,0.0,0.0,0.0,0.0,0.0,0.0,0.0,0.0,0.0,0.0,0.0,0.0,0.0,0.0,0.0,0.0,0.0,0.0,0.0,-2.2422,-2.1406,0.0,0.0,0.0,0.0,0.0,0.0,0.0,0.0,0.0,0.0,0.0,0.0,0.0,-2.4743,-2.6377,-2.6525,-2.6981,-2.7817,-2.9973,-3.105,-3.121,-3.2834,-3.3646,-3.3749,-3.3681,0.0,-2.6999,-2.5201,0.0,0.0,0.0,0.0,0.0,0.0,0.0,0.0,0.0,0.0,0.0,0.0,0.0,0.0,0.0,0.0,0.0,0.0,0.0,0.0,0.0,-1.2749,-1.3963,-1.5115,-1.5986,-1.5745,-1.4037,-1.3892,0.0,0.0,-1.0162,-1.0007,-0.972,-1.1585,-1.5034,-2.0104,-2.4246,-2.6873,-2.8037,-2.8425,-2.8588,-2.8476,-2.7144,-2.4213,-2.0135,-1.8275,0.0,0.0,0.0,0.0,0.0,0.0,0.0,0.0,0.0,0.0,0.0,0.0,0.0,0.0,0.0,0.0,0.0,0.0,0.0,0.0,0.0,0.0,0.0,0.0,0.0,0.0,0.0,0.0,0.0,0.0,0.0,0.0,0.0,0.0,0.0,0.0,0.0,0.0,0.0,-2.0975,-2.2173,-2.1134,-2.0702,-1.9606,0.0,0.0,0.0,0.0,0.0,0.0,0.0,0.0,0.0,-2.4189,-2.6491,-2.8249,-2.937,-3.0461,-3.118,-3.1541,-3.263,-3.315,-3.3187,-3.3999,-3.4379,-3.4379,-3.4629,-3.3478,-3.1264,-2.8931,-2.657,-2.4211,0.0,0.0,0.0,0.0,-2.1003,-2.1288,0.0,0.0,0.0,0.0,0.0,0.0,0.0,0.0,0.0,0.0,0.0,0.0,-1.3288,-1.5426,-1.7284,-1.8594,-1.9759,-1.936,-1.6863,-1.6142,-1.4406,-1.122,-1.0458,-1.02,-1.0454,-1.4289,-1.9247,-2.5327,-2.799,-2.9752,-3.0653,-3.0861,-3.1055,-3.119,-3.1072,-2.8285,-2.3586,-2.1856,-1.9122,-1.5739,0.0,0.0,0.0,0.0,0.0,0.0,0.0,0.0,0.0,0.0,0.0,0.0,0.0,0.0,0.0,0.0,0.0,0.0,0.0,0.0,0.0,0.0,0.0,0.0,0.0,0.0,0.0,0.0,0.0,0.0,0.0,0.0,0.0,0.0,0.0,0.0,0.0,-2.1769,-2.2726,-2.1332,-2.1516,-2.0803,0.0,0.0,0.0,0.0,0.0,0.0,-2.17,-2.4081,-2.577,-2.6507,-2.9336,-3.1162,-3.1816,-3.3256,-3.4018,-3.4099,-3.4099,-3.4099,-3.4099,-3.4136,-3.4148,-3.4173,-3.4401,-3.4502,-3.429,-3.1751,-2.9695,-2.8019,-2.6553,-2.5775,-2.5538,-2.5966,-2.6142,-2.6417,0.0,0.0,0.0,0.0,0.0,0.0,0.0,0.0,0.0,0.0,0.0,-1.4094,-1.5563,-1.7769,-1.9384,-2.003,-2.0344,-2.003,-1.8932,-1.6989,-1.5153,-1.3499,-1.1291,-1.0425,-1.1121,-1.7893,-2.3185,-2.6789,-2.9223,-3.0694,-3.1237,-3.0625,-3.0658,-3.1171,-3.0733,-2.9906,-2.8682,-2.6428,-2.4198,-2.1635,-1.5699,0.0,0.0,0.0,0.0,0.0,0.0,0.0,0.0,0.0,0.0,0.0,0.0,0.0,0.0,0.0,0.0,0.0,0.0,0.0,0.0,0.0,0.0,0.0,0.0,0.0,0.0,0.0,0.0,0.0,0.0,0.0,0.0,0.0,0.0,0.0,0.0,0.0,0.0,-2.3856,-2.4658,0.0,0.0,0.0,0.0,-2.3319,-2.411,-2.4851,-2.549,-2.7402,-2.8817,-2.9554,-3.1535,-3.2783,-3.3205,-3.3306,-3.3504,-3.3815,-3.3815,-3.3815,-3.3815,-3.3947,-3.4011,-3.4023,-3.4173,-3.4233,-3.4108,-3.2682,-3.1151,-2.9531,-2.7925,-2.6403,-2.5354,-2.7187,-2.7908,-2.8202,0.0,0.0,0.0,-0.9717,-0.9581,-0.9496,-0.9358,-0.9288,-0.9321,-0.9554,-1.2404,-1.4943,-1.6324,-2.0018,-2.279,-2.378,-2.459,-2.425,-2.2329,-1.9538,-1.7436,-1.6228,-1.3549,-1.4091,-1.8383,-2.234,-2.5735,-2.851,-2.9711,-3.0368,-3.0522,-3.0555,-3.0675,-3.0855,-3.0593,-3.0432,-3.0184,-2.8501,-2.6504,-2.4167,-2.0769,-1.7331,0.0,0.0,0.0,0.0,0.0,0.0,0.0,0.0,0.0,0.0,0.0,0.0,0.0,0.0,0.0,0.0,0.0,0.0,0.0,0.0,0.0,0.0,0.0,0.0,0.0,0.0,0.0,0.0,0.0,0.0,0.0,0.0,0.0,0.0,0.0,0.0,0.0,-2.6303,-2.7519,0.0,-2.4289,-2.5151,-2.5777,-2.5591,-2.7165,-2.825,-2.8503,-2.9867,-3.0751,-3.1011,-3.2016,-3.2647,-3.2775,-3.2867,-3.2975,-3.3115,-3.3357,-3.3476,-3.349,-3.3743,-3.3921,-3.3998,-3.4049,-3.4124,-3.4153,-3.3679,-3.3239,-3.2855,-3.2447,-3.2007,-3.1699,-3.2469,-3.2831,-3.3016,0.0,0.0,0.0,-0.9632,-0.9528,-0.9417,-0.9293,-0.9226,-0.9607,-1.0745,-1.4065,-1.7007,-1.883,-2.2989,-2.5843,-2.6308,-2.7126,-2.6663,-2.44,-2.1437,-1.914,-1.776,-1.5879,-1.7453,-2.2962,-2.5236,-2.7522,-2.9865,-3.0409,-3.0745,-3.0882,-3.0846,-3.0937,-3.1099,-3.0563,-3.051,-3.0764,-2.9682,-2.8509,-2.7179,-2.4431,-2.1236,-1.7826,0.0,0.0,0.0,0.0,0.0,0.0,0.0,0.0,0.0,0.0,0.0,0.0,0.0,0.0,0.0,0.0,0.0,0.0,0.0,0.0,0.0,0.0,0.0,0.0,0.0,0.0,0.0,0.0,0.0,0.0,0.0,0.0,0.0,0.0,-2.5983,-2.7581,-2.724,-2.895,-2.9223,-2.6773,-2.7918,-2.8708,-2.8401,-2.9837,-3.0541,-3.0191,-3.0985,-3.1451,-3.1432,-3.1824,-3.2127,-3.223,-3.2315,-3.2432,-3.2564,-3.284,-3.3011,-3.3151,-3.3419,-3.3662,-3.3868,-3.3959,-3.4049,-3.4136,-3.4185,-3.4302,-3.4502,-3.4765,-3.4927,-3.5021,-3.5242,-3.5431,-3.5552,0.0,0.0,-0.9753,-0.9629,-0.9496,-0.9358,-0.9213,-0.9219,-1.0424,-1.3739,-1.7152,-2.0348,-2.306,-2.6535,-2.8288,-2.7295,-2.751,-2.6867,-2.487,-2.2454,-2.0145,-1.8059,-1.8331,-2.0356,-2.4255,-2.6479,-2.8651,-3.0803,-3.1317,-3.1844,-3.2337,-3.1487,-3.1418,-3.1922,-3.0629,-3.0316,-3.0704,-3.0136,-3.0413,-3.0878,-2.6526,-2.4249,-2.2931,0.0,0.0,0.0,0.0,0.0,0.0,0.0,0.0,0.0,0.0,0.0,0.0,0.0,0.0,0.0,0.0,0.0,0.0,0.0,0.0,0.0,0.0,0.0,0.0,0.0,0.0,0.0,0.0,0.0,0.0,0.0,0.0,0.0,-2.4458,-2.7381,-2.8807,-2.6833,-2.906,-3.0282,-2.9041,-3.0202,-3.1288,-3.1872,-3.2022,-3.1637,-3.0593,-3.0831,-3.0955,-3.0892,-3.1072,-3.1349,-3.1658,-3.1658,-3.186,-3.2266,-3.2283,-3.2435,-3.2763,-3.297,-3.3247,-3.3573,-3.3855,-3.3972,-3.3998,-3.4136,-3.4197,-3.4215,-3.4492,-3.4598,-3.464,-3.5048,-3.5275,-3.5436,-0.9928,-0.9838,-0.9753,-0.9629,-0.953,-0.9408,-0.9223,-0.9687,-1.0875,-1.3105,-1.6892,-2.0143,-2.2162,-2.5814,-2.7874,-2.7255,-2.7649,-2.7217,-2.5601,-2.2366,-2.0237,-1.9598,-2.3676,-2.6362,-2.7228,-2.8944,-3.0049,-3.0516,-3.0801,-3.1193,-3.1677,-3.1268,-3.1182,-3.1336,-3.1426,-3.147,-3.1503,-3.189,-3.2149,-3.2069,-2.9522,-2.7306,-2.5213,0.0,0.0,0.0,0.0,0.0,0.0,0.0,0.0,0.0,0.0,0.0,0.0,0.0,0.0,0.0,0.0,0.0,0.0,0.0,0.0,0.0,0.0,0.0,0.0,0.0,0.0,0.0,0.0,0.0,0.0,0.0,-2.4866,-2.7238,-2.7975,-2.9406,-3.0514,-3.0925,-3.1581,-3.1912,-3.1665,-3.1916,-3.2166,-3.2321,-3.1945,-3.1563,-3.116,-3.0829,-3.0712,-3.0892,-3.0773,-3.0818,-3.1117,-3.0922,-3.0982,-3.1295,-3.1528,-3.177,-3.2021,-3.2351,-3.2617,-3.2809,-3.3199,-3.3404,-3.3514,-3.3902,-3.4049,-3.4074,-3.4244,-3.4371,-3.4483,-3.4688,-3.4961,-3.5275,-0.9931,-0.9838,-0.9753,-0.9629,-0.9521,-0.9399,-0.9218,-0.9851,-1.1411,-1.436,-1.7575,-2.0708,-2.3644,-2.6445,-2.7947,-2.7583,-2.7357,-2.6611,-2.5063,-2.2645,-2.1984,-2.3569,-2.6722,-2.863,-2.9026,-3.014,-3.065,-3.054,-3.0819,-3.1261,-3.1848,-3.1638,-3.1697,-3.2004,-3.2034,-3.2154,-3.235,-3.2531,-3.2635,-3.2613,-3.155,-2.9762,-2.7557,-2.605,-2.4296,-2.2352,-2.0062,-1.9344,-1.9288,-1.7948,0.0,0.0,0.0,0.0,0.0,0.0,0.0,0.0,0.0,0.0,0.0,0.0,0.0,0.0,0.0,0.0,0.0,0.0,0.0,0.0,0.0,0.0,0.0,0.0,-2.6559,-2.9072,-3.0236,-3.1037,-3.1717,-3.2183,-3.2386,-3.243,-3.2266,-3.2386,-3.2346,-3.2021,-3.172,-3.1336,-3.0789,-3.0568,-3.0506,-3.0589,-3.0547,-3.0568,-3.0733,-3.0589,-3.0589,-3.0733,-3.1041,-3.1336,-3.1584,-3.1896,-3.2179,-3.2435,-3.2715,-3.3001,-3.3243,-3.3574,-3.3823,-3.4011,0.0,0.0,0.0,0.0,-3.4775,-3.5057,-1.0191,-1.005,-0.9894,-0.9761,-0.9635,-0.9501,-0.9364,-1.0045,-1.2177,-1.6628,-1.8825,-2.1731,-2.632,-2.7713,-2.8255,-2.8076,-2.6977,-2.5632,-2.4069,-2.3508,-2.4767,-2.8259,-2.8365,-2.8872,-3.005,-3.0548,-3.0766,-3.0754,-3.1082,-3.1623,-3.236,-3.2165,-3.2458,-3.3159,-3.2569,-3.2661,-3.3188,-3.2731,-3.2702,-3.2967,-3.2967,-3.1793,-2.9912,-2.8637,-2.7084,-2.5298,-2.303,-2.1923,-2.1209,-1.917,0.0,0.0,0.0,0.0,0.0,0.0,0.0,0.0,0.0,0.0,0.0,0.0,0.0,0.0,0.0,0.0,0.0,0.0,0.0,0.0,0.0,0.0,0.0,0.0,-2.8053,-3.0111,-3.1279,-3.2028,-3.2199,-3.1548,-3.194,-3.2116,-3.1763,-3.2122,-3.2159,-3.1609,-3.1583,-3.1188,-3.0238,-3.0472,0.0,0.0,0.0,-3.0733,-3.0737,-3.0629,-3.0579,-3.06,-3.0762,-3.0998,-3.1302,-3.1509,-3.1805,-3.2144,-3.2333,-3.2634,-3.3016,-3.3196,-3.356,-3.3998,-3.4148,-3.4197,-3.4227,-3.447,-3.4648,-3.4785,-1.1931,-1.1347,-1.0796,-1.061,-1.0553,-1.0471,-1.0282,-1.1435,-1.3804,-1.7985,-1.967,-2.2302,-2.7136,-2.7752,-2.8004,-2.845,-2.7469,-2.6329,-2.5106,-2.6329,-2.7535,-2.8518,-3.0464,-3.1408,-3.1204,-3.1282,-3.1229,-3.1027,-3.094,-3.1102,-3.1537,-3.1809,-3.2104,-3.2437,-3.3317,-3.3823,-3.403,-3.4507,-3.4625,-3.4468,-3.4468,-3.3531,-3.1984,-3.0767,-3.0401,-3.0177,-2.7523,-2.6627,-2.6431,-2.4949,-2.3406,-2.2016,-2.1482,-2.0103,0.0,0.0,0.0,0.0,0.0,0.0,0.0,0.0,0.0,0.0,0.0,0.0,0.0,0.0,0.0,0.0,0.0,0.0,0.0,-2.5258,-2.8194,-3.0348,-3.0455,-3.0731,-3.087,-3.0721,-3.0773,-3.1247,-3.2381,-3.2012,-3.2088,-3.3087,-3.2632,-3.2186,-3.1929,-3.198,-3.2077,-3.2199,-3.2099,-3.2121,-3.2266,-3.1418,-3.1079,-3.1204,-3.0622,0.0,-3.0679,-3.0938,-3.1114,-3.1196,-3.1658,-3.2074,-3.2485,-3.2954,-3.3422,-3.3855,-3.4111,-3.4197,-3.4209,-3.4262,-3.4367,-3.4494,-1.3645,-1.2651,-1.1689,-1.1434,-1.1396,-1.1341,-1.1126,-1.2072,-1.3993,-1.735,-1.8944,-2.1183,-2.4938,-2.5166,-2.5135,-2.5329,-2.4724,-2.4503,-2.489,-2.6688,-2.8394,-2.9843,-3.1451,-3.2064,-3.161,-3.1523,-3.1408,-3.122,-3.094,-3.0955,-3.1234,-3.2067,-3.2453,-3.2536,-3.4018,-3.4676,-3.4681,-3.5117,-3.5182,-3.4994,-3.4923,-3.4452,-3.3684,-3.2712,-3.218,-3.1693,-2.9667,-2.8839,-2.843,-2.6766,-2.5676,-2.4857,-2.4013,-2.2846,-2.156,0.0,0.0,0.0,0.0,0.0,0.0,0.0,0.0,0.0,0.0,0.0,0.0,0.0,0.0,-2.0452,0.0,0.0,-2.5535,-2.6066,-2.8709,-3.0664,-3.0554,-3.093,-3.1144,-3.0914,-3.094,-3.1396,-3.258,-3.2276,-3.2292,-3.2994,-3.2698,-3.2471,-3.2407,-3.2407,-3.2436,-3.2556,-3.2436,-3.2436,-3.2556,-3.2007,-3.1804,-3.1884,-3.1145,-3.0848,-3.0938,-3.0775,-3.0692,-3.0712,-3.1159,-3.1582,-3.2003,-3.2829,-3.3276,-3.3541,-3.3881,-3.4036,-3.4111,-3.4173,-3.4245,-3.4328,-1.4901,-1.386,-1.2749,-1.2329,-1.2245,-1.2167,-1.1961,-1.2569,-1.3956,-1.6497,-1.7879,-1.9624,-2.2304,-2.227,-2.2004,-2.189,-2.2126,-2.3014,-2.4697,-2.6734,-2.8881,-3.1131,-3.1898,-3.2143,-3.1822,-3.1817,-3.1764,-3.168,-3.1335,-3.1292,-3.1523,-3.2637,-3.3114,-3.3098,-3.4617,-3.5245,-3.5152,-3.5245,-3.5152,-3.4899,-3.4899,-3.4763,-3.4536,-3.415,-3.331,-3.2183,-3.0924,-2.9955,-2.905,-2.7624,-2.7057,-2.6803,-2.6043,-2.5345,-2.4588,-2.3469,-2.2305,0.0,0.0,0.0,0.0,0.0,0.0,0.0,0.0,0.0,-2.0642,-2.2167,-2.2436,-2.2669,-2.3518,-2.5319,-2.6756,-2.6995,-2.931,-3.1029,-3.0874,-3.1451,-3.1808,-3.1587,-3.1581,-3.1918,-3.2761,-3.2737,-3.2757,-3.2958,-3.2974,-3.2945,-3.2886,-3.2886,-3.2886,-3.2886,-3.2886,-3.2886,-3.2886,-3.2715,-3.2626,-3.261,-3.1923,-3.1523,-3.1358,-3.0905,-3.06,-3.0506,-3.0858,-3.1237,-3.1677,-3.2584,-3.3003,-3.3081,-3.3494,-3.3675,-3.3752,-3.4043,-3.4161,-3.4185,-1.5019,-1.4808,-1.4305,-1.3333,-1.3104,-1.3001,-1.2799,-1.3445,-1.4765,-1.7037,-1.7467,-1.8647,-2.152,-2.1214,-2.0867,-2.1023,-2.3119,-2.4867,-2.5866,-2.8468,-3.037,-3.1255,-3.2092,-3.2466,-3.225,-3.2688,-3.2939,-3.2986,-3.2656,-3.2656,-3.2986,-3.3495,-3.3887,-3.4235,-3.4984,-3.5291,-3.5268,-3.5291,-3.4875,-3.425,-3.4715,-3.4276,-3.3495,-3.4431,-3.4296,-3.3443,-3.2206,-3.063,-2.9216,-2.9893,-2.876,-2.7297,-2.8588,-2.7746,-2.6252,-2.6152,0.0,-2.1477,-2.1004,-2.04,0.0,-1.9858,-2.0602,-2.1734,0.0,0.0,-2.2346,-2.3534,-2.3287,-2.3047,-2.3824,-2.5799,-2.7257,-2.7188,-2.9767,-3.1534,-3.0729,-3.1365,-3.2063,-3.2498,-3.2127,-3.225,-3.3243,-3.3308,-3.3665,-3.4577,-3.4627,-3.4627,-3.4627,-3.4627,-3.4627,-3.4627,-3.4627,-3.4627,-3.4627,-3.3848,-3.3465,-3.3449,-3.2666,-3.1954,-3.1314,-3.1309,-3.0957,-3.0422,-3.0888,-3.1283,-3.1638,-3.2003,-3.2265,-3.2536,-3.2986,-3.2968,-3.2775,-3.368,-3.4023,-3.4036,-1.5082,-1.5041,-1.4831,-1.4226,-1.3989,-1.3847,-1.3682,-1.3915,-1.4602,-1.5997,-1.6525,-1.7205,-1.8361,-1.7737,-1.7429,-1.788,-2.0638,-2.2873,-2.4094,-2.741,-2.9479,-2.9832,-3.0557,-3.0938,-3.0855,-3.1821,-3.2285,-3.2142,-3.2762,-3.3056,-3.3093,-3.3811,-3.4087,-3.3987,-3.4961,-3.5291,-3.5065,-3.5152,-3.4994,-3.4667,-3.4497,-3.4159,-3.3723,-3.386,-3.3716,-3.3266,-3.1772,-3.05,0.0,-2.9502,-2.887,-2.8369,-2.9881,-2.89,-2.7211,-2.7228,-2.4994,0.0,-2.3538,0.0,0.0,0.0,-2.4581,-2.5017,-2.5512,-2.5029,-2.4842,-2.6165,-2.5988,-2.5756,-2.6338,-2.752,-2.834,0.0,-2.9935,-3.1114,-3.0571,-3.1297,-3.2065,-3.2589,-3.2431,-3.2701,-3.3713,-3.3795,-3.4048,-3.4626,-3.4667,-3.4756,-3.4899,-3.4899,-3.4899,-3.4899,-3.4899,-3.4899,-3.4899,-3.4537,-3.4365,-3.4348,-3.3505,-3.2712,-3.1972,-3.1539,-3.1072,-3.0589,-3.0699,-3.0945,-3.1276,-3.1547,-3.1715,-3.1861,-3.2333,-3.2417,-3.2366,-3.3248,-3.3584,-3.3597,-1.5136,-1.5104,-1.5011,-1.478,-1.4565,-1.4375,-1.4214,-1.4139,-1.4303,-1.4899,-1.5401,-1.5651,-1.5579,-1.4731,-1.4546,-1.5458,-1.8365,-2.0878,-2.2568,-2.6261,-2.8517,-2.8839,-2.9636,-3.0101,-3.015,-3.1464,-3.2063,-3.1912,-3.2725,-3.3253,-3.3487,-3.3958,-3.4153,-3.4202,-3.5071,-3.5268,-3.497,-3.5065,-3.4994,-3.478,-3.43,-3.3908,-3.3585,-3.3303,-3.2604,-3.1665,-3.0689,-2.9804,-2.8973,-2.8011,-2.7607,-2.7747,-2.9063,-2.8373,-2.7093,-2.7277,-2.528,-2.3299,-2.4499,0.0,0.0,-2.6723,-2.7377,-2.763,-2.738,-2.6992,-2.7012,-2.8095,-2.7981,-2.7865,-2.8396,-2.8994,-2.9335,-2.9152,-3.0287,-3.1041,-3.0619,-3.1336,-3.2076,-3.2532,-3.2586,-3.2953,-3.3797,-3.3949,-3.4126,-3.4472,-3.4497,-3.457,-3.478,-3.4804,-3.4756,-3.4667,-3.4667,-3.4715,-3.4804,-3.4804,-3.4828,-3.4883,-3.4259,-3.3469,-3.2512,-3.1512,-3.0985,-3.0845,-3.0546,-3.0613,-3.0958,-3.1086,-3.1223,-3.1393,-3.1789,-3.1879,-3.1861,-3.2631,-3.2981,-3.3103,-1.5136,-1.5104,-1.5042,-1.4832,-1.4624,-1.4441,-1.4238,-1.4139,-1.4107,-1.4125,-1.4153,-1.4115,-1.3981,-1.319,-1.3248,-1.4709,-1.7426,-2.0009,-2.2272,-2.5814,-2.816,-2.8951,-3.0121,-3.0849,-3.1053,-3.2365,-3.3093,-3.3146,-3.2879,-3.3395,-3.4638,-3.395,-3.4316,-3.5515,-3.5383,-3.5222,-3.5088,-3.5088,-3.4715,-3.4126,-3.4101,-3.3429,-3.2492,-3.3013,-3.1144,-2.8354,-2.9152,-2.8542,-2.7141,-2.5624,-2.473,-2.4412,-2.5379,-2.558,0.0,-2.6181,-2.4711,-2.2855,-2.2655,0.0,-2.4517,-2.5652,-2.7309,-2.8651,-2.8651,-2.8509,-2.8453,-2.8638,-2.8425,-2.8411,-2.914,-2.9712,-3.0041,-2.9984,-3.1044,-3.165,-3.1087,-3.1522,-3.2076,-3.2532,-3.2586,-3.2792,0.0,-3.3555,-3.3924,-3.4448,-3.4497,-3.4497,-3.4521,-3.4521,-3.4399,-3.4126,-3.4126,-3.425,-3.4497,-3.4521,-3.4643,-3.4899,-3.4866,-3.4104,-3.263,-3.1115,-3.0744,-3.1243,-3.0522,-3.0447,-3.0804,-3.0597,-3.0794,-3.123,-3.1506,-3.1334,-3.1015,-3.1693,-3.2196,-3.2533,-1.614,-1.6455,-1.659,-1.5868,-1.5557,-1.5201,-1.45,-1.4276,-1.4179,-1.4179,-1.4096,0.0,0.0,0.0,0.0,0.0,-1.7168,-1.931,-2.1025,-2.4213,-2.6363,-2.7179,-2.8074,-2.8583,-2.8639,-3.0476,-3.1412,-3.1353,-3.2698,-3.3508,-3.3778,-3.3702,-3.3799,-3.4069,-3.4112,-3.396,-3.3695,-3.3695,-3.3333,-3.2676,-3.2263,-3.197,-3.164,-3.0908,-2.9187,-2.6933,0.0,-2.3845,-2.32,-2.2867,0.0,0.0,-2.5313,0.0,0.0,-2.2329,-2.309,-2.4342,-2.4252,-2.5571,-2.7318,-2.8675,-2.9479,-2.9973,-2.9973,-2.9581,-2.9363,-2.9842,-2.8927,-2.82,-2.8858,-2.9135,-2.9198,-2.9099,-3.0191,-3.0881,-3.0462,-3.0643,-3.1175,-3.2031,-3.2046,0.0,0.0,0.0,-3.3581,-3.3949,-3.3975,-3.405,-3.4226,-3.4226,-3.4201,-3.4101,-3.4101,-3.3942,-3.3656,-3.4018,-3.4168,-3.4045,-3.4037,-3.3882,-3.3511,-3.1918,-3.1388,-3.1732,-3.09,-3.0609,-3.0736,-3.0671,-3.0671,-3.0773,-3.1018,-3.1035,-3.0932,-3.1154,-3.1353,-3.1585,-1.7066,-1.7359,-1.7474,-1.6742,-1.6228,0.0,0.0,0.0,0.0,0.0,0.0,0.0,0.0,0.0,0.0,0.0,0.0,-1.7647,-1.8776,-2.1709,-2.3912,-2.5009,-2.5399,-2.5889,-2.6464,-2.7493,-2.8273,-2.8772,-3.0306,-3.1378,-3.1958,-3.2442,-3.2659,-3.2618,-3.291,-3.2769,-3.2324,-3.2324,-3.2052,-3.1538,-3.0686,-3.0236,-2.993,-2.8575,-2.661,0.0,-2.1768,-2.0194,-1.9252,-1.8852,0.0,0.0,0.0,0.0,0.0,0.0,-2.2713,-2.4637,-2.5932,-2.7244,-2.8596,-3.0207,-3.0598,-3.0598,-3.0598,-3.0263,-3.0074,-3.0525,-2.9144,-2.8031,-2.8411,-2.8132,-2.7898,-2.8023,-2.92,-3.0061,-2.9996,-3.0212,-3.0688,-3.1478,-3.145,-3.1779,0.0,0.0,0.0,-3.3642,-3.3694,-3.3813,-3.4025,-3.3975,-3.3949,-3.3949,-3.3704,-3.3439,-3.3182,-3.3578,-3.3825,-3.3919,-3.3655,-3.3759,-3.4137,-3.2551,-3.2017,-3.22,-3.1387,-3.0921,-3.077,-3.0712,-3.0651,-3.0589,-3.0753,-3.081,-3.0773,-3.0952,-3.0995,-3.1095,-1.7883,-1.7843,-1.7757,0.0,0.0,0.0,0.0,0.0,0.0,0.0,0.0,0.0,0.0,0.0,0.0,0.0,0.0,0.0,-1.5856,-1.8666,0.0,-2.2551,-2.2468,-2.3085,-2.4609,-2.3853,-2.4192,-2.5695,-2.6117,-2.7352,-2.93,-3.0121,-3.0738,-3.1155,-3.1653,-3.15,-3.0892,-3.0895,-3.0766,-3.0486,-2.9255,-2.8266,-2.7365,-2.61,-2.3607,-2.0606,-1.9688,-1.7838,0.0,0.0,0.0,0.0,0.0,0.0,0.0,0.0,0.0,-2.4012,-2.7454,-2.8213,-2.8456,-3.0177,-3.0598,-3.0598,-3.0598,-3.0598,-3.0569,-3.0481,-2.9055,-2.7769,0.0,0.0,-2.63,-2.6898,-2.8218,-2.9323,-2.9783,-3.0264,-3.0687,0.0,0.0,0.0,0.0,0.0,0.0,-3.3497,-3.3591,-3.3668,-3.3781,-3.3694,-3.3642,-3.3617,-3.298,-3.2815,-3.313,-3.3145,-3.3588,-3.4431,-3.3744,-3.3801,-3.4472,-3.3023,-3.2498,-3.2724,-3.1946,-3.1345,-3.0922,-3.0729,-3.0671,-3.0671,-3.0671,-3.0609,-3.0531,-3.1012,-3.1075,-3.1015,0.0,0.0,0.0,0.0,0.0,0.0,0.0,0.0,0.0,0.0,0.0,0.0,0.0,0.0,0.0,0.0,0.0,0.0,-1.5922,-1.7768,0.0,0.0,0.0,0.0,0.0,0.0,0.0,-2.4316,-2.4998,-2.5644,-2.6161,-2.6369,-2.6833,-2.7461,-2.7585,-2.7776,-2.7964,-2.7981,-2.7329,-2.6259,-2.5915,-2.5368,-2.4627,-2.369,-2.197,-1.9907,-1.8886,0.0,0.0,0.0,0.0,0.0,0.0,0.0,-2.5077,0.0,0.0,-2.716,-2.7848,-2.8965,-3.0031,-3.0481,-3.0598,-3.0598,-3.0598,-3.0598,-3.0235,-2.8866,-2.7503,-2.5981,0.0,0.0,0.0,-2.5654,-2.8217,0.0,-3.0381,-3.03,0.0,-3.094,0.0,-3.1028,-3.1622,-3.1751,0.0,0.0,-3.2284,-3.2213,-3.2269,-3.2734,-3.283,-3.2367,-3.3033,-3.3044,-3.2238,-3.2442,-3.2875,-3.3537,-3.3422,-3.3833,-3.461,-3.3587,-3.3264,-3.3429,-3.204,-3.1384,-3.1229,-3.0594,-3.0274,-3.0189,-3.0347,-3.0372,-3.0372,-3.0593,-3.0773,-3.0932,0.0,0.0,0.0,0.0,0.0,0.0,0.0,0.0,0.0,0.0,0.0,0.0,0.0,0.0,0.0,0.0,0.0,0.0,0.0,-1.6011,-1.7197,0.0,0.0,0.0,0.0,0.0,0.0,0.0,0.0,-2.2009,-2.2992,-2.3336,-2.3543,-2.3612,-2.3974,-2.4107,-2.4076,-2.4418,-2.4047,0.0,0.0,-2.2781,-2.2005,-2.1218,-2.0026,-1.8669,0.0,0.0,0.0,0.0,0.0,-2.4031,-2.5742,-2.6301,-2.6413,-2.6923,0.0,-2.8304,-2.8922,-2.9828,-3.0598,-3.0598,-3.0598,-3.0307,-2.9217,-2.9188,-2.8735,-2.6334,-2.4881,0.0,-2.1869,0.0,0.0,0.0,0.0,0.0,-3.0221,-3.0274,-3.0401,0.0,-3.0553,0.0,-3.1058,-3.1102,-3.1131,0.0,-3.1551,-3.1807,-3.1877,-3.2213,-3.2312,-3.2132,-3.2465,-3.2339,-3.1736,-3.1862,-3.2253,-3.2841,-3.3156,-3.3563,-3.4036,-3.3803,-3.3671,-3.3564,-3.2334,-3.1627,-3.1342,-3.0591,-3.021,-3.0103,-3.0215,-3.0262,-3.0284,-3.051,-3.0671,-3.0814,0.0,0.0,0.0,0.0,0.0,0.0,0.0,0.0,0.0,-1.5267,-1.4824,-1.4558,0.0,0.0,0.0,0.0,0.0,0.0,0.0,0.0,-1.5151,0.0,0.0,0.0,0.0,0.0,0.0,0.0,0.0,-1.7718,-1.9665,-2.0475,-2.0527,-1.9981,-2.0682,-2.0665,-2.0153,-2.0854,-2.1073,-2.0947,-2.0956,-2.0441,-1.9642,0.0,0.0,0.0,0.0,0.0,0.0,0.0,-2.5479,-2.5853,-2.736,-2.7498,-2.7458,-2.9446,-2.9232,-2.8645,-3.0177,-3.0598,-3.0598,-3.0598,-3.0598,-2.9944,-2.7482,-2.7348,-2.6846,-2.3516,0.0,-2.1025,-2.0146,-2.1238,-2.2505,-2.326,0.0,-2.9176,-2.9812,-3.0264,-3.0507,-3.0312,-3.0189,-3.0158,-3.0296,-3.0219,-3.0219,-3.0312,-3.119,-3.1766,-3.1849,-3.1836,-3.202,-3.2398,-3.1695,-3.1394,-3.1508,-3.1508,-3.1766,-3.2287,-3.2841,-3.3145,-3.3209,-3.3815,-3.3876,-3.3451,-3.2613,-3.1965,-3.1396,-3.0615,-3.0228,-3.0103,-3.0146,-3.0146,-3.0189,-3.0506,-3.0651,-3.0712,0.0,0.0,0.0,0.0,0.0,0.0,0.0,0.0,0.0,0.0,-1.7426,-1.643,0.0,0.0,0.0,0.0,0.0,0.0,0.0,0.0,0.0,0.0,0.0,0.0,0.0,0.0,0.0,0.0,0.0,0.0,-1.5799,-1.6548,-1.7139,-1.7604,-1.7742,-1.8086,-1.8597,-1.8734,-1.872,-1.8591,-1.8591,-1.8421,-1.8172,0.0,0.0,0.0,0.0,0.0,0.0,0.0,-2.6983,-3.0045,-3.2118,-3.2256,-3.1669,-3.1809,-3.1192,-3.0485,-3.057,-3.0598,-3.0598,-3.0598,-3.0598,-2.9944,-2.7482,-2.6986,0.0,0.0,-2.0789,-1.9968,-1.7767,-1.9657,-2.1925,-2.3047,0.0,0.0,0.0,0.0,-3.0357,0.0,0.0,0.0,-3.0282,-3.0417,0.0,0.0,-3.0717,-3.0762,-3.0628,-3.1219,-3.1823,-3.2398,-3.1794,-3.1495,-3.1508,-3.1508,-3.1537,-3.1652,-3.2272,-3.2761,-3.3209,-3.3815,-3.4061,-3.3899,-3.2609,-3.1932,-3.1627,-3.0363,-2.9744,-2.9653,-2.9804,-2.9875,-2.9897,-3.0172,-3.0464,-3.0692,0.0,0.0,0.0,0.0,0.0,0.0,0.0,-1.9369,-2.0221,-2.1919,-2.1784,-2.0602,-1.8208,-1.6885,-1.6085,0.0,0.0,0.0,0.0,0.0,0.0,0.0,0.0,0.0,0.0,0.0,0.0,0.0,0.0,0.0,0.0,0.0,0.0,0.0,-1.5219,-1.5452,-1.5831,-1.6254,-1.6593,-1.6891,-1.7267,-1.7625,0.0,0.0,0.0,0.0,0.0,0.0,0.0,0.0,-2.6225,-3.0577,-3.2781,-3.2853,-3.213,-3.2167,-3.1578,-3.0836,-3.0657,-3.0598,-3.0598,-3.0598,-3.0598,-2.9624,-2.5827,0.0,0.0,0.0,-1.8302,-1.8049,-1.6502,0.0,0.0,-2.1704,0.0,0.0,0.0,0.0,0.0,0.0,0.0,0.0,0.0,-3.0538,-3.0598,-3.0598,-3.0598,-3.0568,-3.0447,-3.0822,-3.1175,-3.1451,-3.1175,-3.1029,-3.1029,-3.1029,-3.1029,-3.1029,-3.1652,-3.2228,-3.2788,-3.3371,-3.3646,-3.3556,-3.2174,-3.1376,-3.0941,-2.9855,-2.9359,-2.9289,-2.9409,-2.9438,-2.9461,-2.9705,-2.9881,-3.0032,0.0,0.0,0.0,0.0,0.0,0.0,0.0,-2.1518,-2.255,-2.5206,-2.5801,-2.4578,-2.0949,-1.8962,-1.7585,0.0,0.0,0.0,0.0,0.0,0.0,0.0,0.0,0.0,0.0,0.0,0.0,0.0,0.0,0.0,0.0,0.0,0.0,0.0,0.0,0.0,-1.3639,-1.4269,-1.5037,0.0,0.0,-1.7209,0.0,0.0,0.0,0.0,0.0,0.0,0.0,0.0,-2.4575,-2.8551,-3.0964,-3.155,-3.1382,-3.1569,-3.1164,-3.0631,-3.0615,-3.0598,-3.0598,-3.0598,-3.0598,-2.929,-2.4335,-2.3604,0.0,0.0,-1.6189,-1.6368,-1.5889,0.0,-1.9868,0.0,-2.387,-2.6816,0.0,0.0,0.0,0.0,0.0,0.0,0.0,-3.0598,0.0,-3.0598,-3.0598,-3.0598,-3.0598,-3.0598,-3.0598,-3.0598,-3.0598,-3.0598,-3.0598,-3.0598,-3.0598,-3.0598,-3.1204,-3.1737,-3.2231,-3.2788,-3.3013,-3.295,-3.1622,-3.0767,-3.0228,-2.9346,-2.8944,-2.8935,-2.8935,-2.8935,-2.8958,-2.9111,-2.9203,-2.9255,0.0,0.0,0.0,0.0,0.0,0.0,0.0,-2.3686,-2.5317,-2.8533,-2.7687,-2.6302,-2.505,-2.2835,-2.0473,0.0,0.0,0.0,0.0,0.0,0.0,0.0,0.0,0.0,0.0,0.0,0.0,0.0,0.0,0.0,0.0,0.0,0.0,0.0,0.0,0.0,0.0,-1.3674,0.0,0.0,0.0,0.0,0.0,0.0,0.0,0.0,0.0,0.0,0.0,0.0,0.0,-2.3599,-2.667,-2.9116,-3.074,-3.0194,0.0,0.0,-3.0514,-3.0598,-3.0598,-3.0598,-3.0598,-2.929,-2.4335,0.0,0.0,-1.683,-1.5844,-1.5873,-1.5814,0.0,0.0,0.0,0.0,-2.3378,0.0,0.0,0.0,0.0,0.0,0.0,0.0,-3.0598,-3.0598,-3.0598,-3.0598,-3.0598,-3.0598,-3.0598,-3.0598,-3.0598,-3.0598,-3.0598,-3.0598,-3.0598,-3.0598,-3.0598,-3.1204,-3.1537,-3.1595,-3.2188,-3.2465,-3.2391,-3.1131,-3.0448,-3.0207,-2.904,-2.8475,-2.836,-2.836,-2.836,-2.8376,-2.8384,-2.8512,-2.867,0.0,0.0,0.0,0.0,0.0,0.0,-2.3761,-2.395,-2.5138,-2.8905,-2.882,-2.7881,-2.6497,-2.505,-2.2713,-1.9031,0.0,0.0,0.0,0.0,0.0,0.0,0.0,0.0,0.0,0.0,-1.5364,-1.5127,-1.5563,0.0,0.0,0.0,0.0,0.0,0.0,0.0,0.0,0.0,0.0,0.0,0.0,0.0,0.0,0.0,0.0,0.0,0.0,0.0,0.0,0.0,0.0,0.0,-2.2212,-2.4418,0.0,0.0,-2.918,-2.9437,-3.0368,-3.0598,-3.0598,-3.0598,-2.977,-2.7961,-2.4072,0.0,0.0,-1.6607,-1.5799,-1.5799,-1.5799,-1.6278,-1.7174,-1.8587,-2.0279,0.0,-2.429,0.0,0.0,0.0,0.0,0.0,0.0,0.0,-3.0598,-3.0598,-3.0598,-3.0598,-3.0598,-3.0598,-3.0598,-3.0598,-3.0598,-3.0598,-3.0598,-3.0598,-3.0598,-3.0598,-3.0822,-3.1146,-3.1508,-3.1737,-3.1851,-3.179,-3.0524,-2.9717,-2.9268,-2.8316,-2.7855,-2.7824,-2.7824,-2.7824,-2.7824,-2.7824,-2.7874,-2.7932,0.0,0.0,0.0,0.0,0.0,-2.1107,-2.4318,-2.4162,-2.5079,-2.8927,-2.8989,-2.83,-2.7352,-2.568,-2.3476,-2.0637,-1.9298,0.0,0.0,0.0,0.0,0.0,0.0,0.0,0.0,0.0,-1.6872,-1.7009,-1.7335,-1.7377,0.0,0.0,0.0,0.0,0.0,0.0,0.0,0.0,0.0,0.0,0.0,0.0,0.0,0.0,0.0,0.0,0.0,0.0,0.0,0.0,0.0,0.0,0.0,-2.1078,-2.3745,0.0,-2.7682,-2.8581,-2.9686,-3.028,-3.0598,-3.0598,-2.9231,-2.7053,0.0,0.0,0.0,-1.6458,-1.5799,-1.5799,-1.5799,-1.6144,-1.6697,-1.7564,-1.9162,-2.0793,-2.2194,0.0,0.0,0.0,0.0,-2.7717,0.0,-3.0278,-3.0598,-3.0598,-3.0598,-3.0598,-3.0598,-3.0598,-3.0598,-3.0598,-3.0598,-3.0598,-3.0598,-3.0598,-3.0598,-3.0598,-3.0598,-3.0836,-3.1234,-3.1234,-3.1234,-3.1159,-2.9882,-2.9085,-2.8635,-2.7682,-2.7291,-2.7291,-2.7291,-2.7291,-2.7291,-2.7291,-2.7291,-2.7291,0.0,0.0,0.0,0.0,0.0,0.0,-2.4311,-2.4679,-2.5768,-2.9081,-2.8006,-2.7222,-2.8003,-2.4474,-2.2349,-2.3083,-2.0975,0.0,0.0,0.0,0.0,0.0,0.0,0.0,0.0,0.0,-1.7843,-1.7998,-1.9507,-1.974,-1.8798,-1.9529,-1.8905,-1.7187,0.0,0.0,0.0,0.0,0.0,0.0,0.0,0.0,0.0,0.0,0.0,0.0,0.0,0.0,0.0,0.0,0.0,0.0,0.0,-2.0018,-2.0481,-2.2638,-2.5274,-2.7667,-2.8348,-2.954,-3.0598,-3.0598,-2.9231,-2.7053,0.0,0.0,0.0,-1.6458,-1.5799,-1.5799,-1.5799,-1.5814,-1.6218,-1.7489,-1.7712,-1.8825,-2.1963,-2.2361,0.0,0.0,0.0,-2.5662,-2.755,-2.9464,-3.0598,-3.0598,-3.0598,-3.0598,-3.0598,-3.0598,-3.0598,-3.0598,-3.0598,-3.0598,-3.0598,-3.0598,-3.0598,-3.0598,-3.0598,-3.0598,-3.0598,-3.0598,-3.0598,-3.0539,-2.9261,-2.8709,-2.8607,-2.7329,-2.6806,-2.6806,-2.6806,-2.6806,-2.6806,-2.6806,-2.6806,-2.6806,0.0,0.0,0.0,0.0,0.0,0.0,0.0,-2.2261,-2.294,-2.4983,-2.4781,-2.4747,-2.554,-2.3461,-2.2107,-2.2367,-2.0678,0.0,0.0,0.0,0.0,0.0,0.0,0.0,0.0,0.0,-1.9644,-1.9782,-2.072,-2.1034,-2.069,-2.03,-1.968,-1.8861,-1.7764,0.0,0.0,0.0,0.0,0.0,0.0,0.0,0.0,0.0,0.0,0.0,0.0,0.0,0.0,0.0,0.0,0.0,0.0,0.0,0.0,-2.0057,-2.2134,-2.4534,-2.5944,-2.6626,-2.696,-2.6915,-2.5506,-2.3703,-2.2059,0.0,-1.8069,-1.6188,-1.5799,-1.5799,-1.5799,-1.5799,-1.6383,-1.8104,-1.8371,-1.9041,0.0,0.0,0.0,-2.491,-2.7357,-2.9171,0.0,-3.0382,-3.0702,-3.0598,-3.0598,-3.0598,-3.0598,-3.0598,-3.0598,-3.0598,-3.0598,-3.0598,-3.0598,-3.0598,-3.0598,-3.0598,-3.0598,-3.0598,-3.0598,-3.0598,-3.0335,-2.9871,-2.9044,-2.8434,-2.7955,-2.7128,-2.6806,-2.6806,-2.6806,-2.6806,-2.6806,-2.6806,-2.6806,-2.6806,0.0,0.0,0.0,0.0,0.0,0.0,0.0,-2.1134,-2.1538,-2.2756,-2.2645,-2.2966,-2.4375,-2.2497,-2.1626,-2.2848,-2.089,0.0,0.0,0.0,0.0,0.0,0.0,0.0,-1.9352,-1.979,-2.0399,-2.1134,-2.2175,-2.2501,-2.2136,-2.2126,-2.128,-1.9734,-1.8684,-1.7922,0.0,0.0,0.0,0.0,0.0,0.0,-1.9207,0.0,0.0,0.0,0.0,0.0,0.0,0.0,0.0,0.0,0.0,0.0,0.0,0.0,-1.9934,-2.158,-2.3871,-2.4694,-2.4912,-2.5011,-2.3443,-2.162,0.0,0.0,-1.7041,-1.6009,-1.5799,-1.5799,-1.5799,-1.5799,-1.6263,-1.7713,-1.8162,-1.8937,0.0,0.0,0.0,-2.4934,0.0,0.0,-2.9739,-3.0368,-3.0732,-3.0598,-3.0598,-3.0598,-3.0598,-3.0538,-3.0477,-3.0477,-3.0568,-3.0598,-3.0598,-3.0598,-3.0568,-3.0477,-3.0431,-3.0357,-3.0282,-3.0371,-3.0055,-2.9376,-2.8771,-2.815,0.0,-2.6759,-2.6527,-2.6592,-2.65,-2.6594,-2.6779,-2.6712,-2.6686,-2.6712,0.0,0.0,0.0,0.0,0.0,0.0,0.0,-2.1071,-2.1287,-2.2035,-2.1417,-2.1768,-2.4012,-2.1528,-2.0928,-2.3977,0.0,0.0,0.0,0.0,0.0,0.0,0.0,0.0,-1.9602,-1.9594,-2.0388,-2.1996,-2.3785,-2.4189,-2.3299,-2.4774,-2.3557,-2.0152,-1.9944,-1.9234,0.0,0.0,0.0,0.0,-1.9389,-1.9389,0.0,0.0,0.0,0.0,0.0,0.0,0.0,0.0,0.0,0.0,0.0,0.0,0.0,0.0,0.0,0.0,0.0,-2.3351,-2.3917,-2.4243,-2.255,-2.0534,-1.9573,-1.7974,0.0,-1.5919,-1.5799,-1.5814,-1.5858,-1.5829,-1.6024,-1.6726,-1.7369,-1.8631,0.0,-2.2157,0.0,0.0,-2.7233,0.0,-2.8259,-2.9812,-3.0732,-3.0598,-3.0598,-3.0598,-3.0568,-3.0417,-3.0296,-3.0296,-3.0477,-3.0582,-3.0568,-3.0598,-3.0477,-3.0282,-3.0158,-3.0005,-2.9777,-2.9974,-2.9695,-2.901,-2.8425,-2.7826,-2.7154,-2.6269,-2.6069,-2.6256,-2.5988,-2.626,-2.6753,-2.6578,-2.6484,-2.6525,0.0,0.0,0.0,0.0,0.0,0.0,0.0,0.0,0.0,0.0,-2.0239,-2.0282,-2.0795,-2.0117,-2.0197,0.0,0.0,0.0,0.0,0.0,0.0,0.0,0.0,0.0,-1.9609,-2.0786,-2.1583,-2.1996,-2.4909,-2.6162,-2.584,-2.6677,-2.5481,-2.2618,-2.1815,-2.0258,0.0,0.0,0.0,0.0,-2.0136,-2.0136,0.0,0.0,0.0,0.0,-1.82,-1.8502,0.0,0.0,0.0,0.0,0.0,0.0,0.0,0.0,-1.8008,-1.8229,-1.9545,0.0,-2.0083,-1.9888,-1.9343,-1.8668,0.0,-1.7242,-1.6532,-1.5919,-1.5799,-1.5934,-1.6398,-1.6099,-1.6323,-1.7969,-1.8321,-1.9241,-2.1671,0.0,0.0,-2.955,-2.9973,-3.0207,-3.0642,-3.0746,-3.0732,-3.0598,-3.0598,-3.0538,-3.0387,-3.0312,-3.0266,-3.0158,-3.0189,-3.0249,-3.0387,-3.0507,-3.0462,-3.0142,-3.0111,-2.9958,-2.9665,-2.971,-2.9242,-2.8382,-2.7994,-2.7329,-2.6512,-2.6086,-2.6069,-2.6256,-2.5988,-2.6177,-2.6551,-2.651,-2.6445,-2.6406,0.0,0.0,0.0,0.0,0.0,0.0,0.0,0.0,0.0,0.0,0.0,-1.9867,-1.9795,-1.9693,0.0,0.0,0.0,0.0,0.0,0.0,0.0,0.0,0.0,-1.9609,-1.9609,-2.0808,-2.2004,-2.3145,-2.568,-2.7258,-2.7937,-2.8173,-2.6845,-2.4133,-2.1934,-1.993,0.0,0.0,0.0,0.0,-2.0033,0.0,0.0,0.0,0.0,0.0,-1.82,-1.8409,0.0,-1.9018,-1.9058,-1.8988,0.0,0.0,0.0,0.0,-1.78,-1.7884,-1.8302,-1.8643,-1.889,-1.8815,-1.8421,-1.7932,-1.7415,-1.6771,-1.6189,-1.5873,-1.5799,-1.5889,-1.6234,-1.6503,-1.6906,-1.7605,-1.9081,0.0,0.0,0.0,-2.8379,-3.0287,-3.0394,-3.0513,-3.1123,-3.0906,-3.0702,-3.0702,-3.0642,-3.0507,-3.0312,-3.0235,-3.0127,-2.9974,-2.996,-3.0021,-3.0219,-3.0221,-3.0144,-2.996,-2.9727,-2.954,-2.9383,-2.9383,-2.8761,-2.772,-2.7573,-2.6903,-2.5921,-2.5619,-2.5688,-2.6001,-2.5702,-2.5907,-2.6392,-2.6338,-2.6272,-2.6245,0.0,0.0,0.0,0.0,0.0,0.0,0.0,0.0,0.0,0.0,0.0,0.0,0.0,0.0,0.0,0.0,0.0,0.0,0.0,0.0,0.0,0.0,0.0,-1.972,-1.9961,-2.0622,-2.2142,-2.45,-2.6479,-2.8189,-2.9582,-2.9884,-2.8308,-2.5081,-2.1466,-1.9279,0.0,0.0,0.0,0.0,-1.955,0.0,0.0,0.0,0.0,0.0,0.0,0.0,0.0,-1.959,-1.9542,-1.9107,-1.968,0.0,0.0,0.0,0.0,0.0,-1.7946,-1.873,-1.9465,-1.9141,-1.8494,-1.7793,-1.7254,-1.6464,-1.5856,-1.5813,-1.5799,-1.5903,-1.6276,-1.715,0.0,0.0,0.0,0.0,-2.6105,-2.7485,-2.8608,-2.9623,-2.9827,-3.0119,-3.0699,-3.061,-3.0507,-3.0642,-3.0538,-3.0417,-3.0221,-3.0127,-2.9974,-2.9792,-2.9761,-2.9867,-3.0019,-2.9898,-2.9822,-2.9747,-2.9338,-2.9099,-2.9035,-2.9035,-2.836,-2.7262,-2.7248,-2.6614,-2.5522,-2.5188,-2.5314,-2.5674,-2.537,-2.5674,-2.626,-2.6138,-2.6084,-2.6084,0.0,0.0,0.0,0.0,0.0,0.0,0.0,0.0,0.0,0.0,0.0,0.0,0.0,0.0,0.0,0.0,0.0,0.0,0.0,0.0,0.0,-2.167,-2.0333,-2.024,-2.1606,-2.1755,-2.2699,-2.45,-2.8207,-3.0158,-3.0474,-3.3001,-3.1205,-2.5721,-2.2196,-1.9759,-1.8352,-1.9153,0.0,-1.9447,-1.9355,0.0,0.0,0.0,0.0,0.0,0.0,0.0,0.0,-1.8672,-1.8767,-1.899,-1.8495,0.0,0.0,0.0,0.0,0.0,-1.8555,-2.0551,-2.1649,-1.8359,-1.7856,-1.7842,-1.6647,-1.6253,-1.608,-1.5856,-1.5799,-1.6426,-1.8469,-1.8547,-1.8794,0.0,0.0,-2.4687,0.0,0.0,-2.9465,-3.0277,-3.0038,-3.0014,-3.051,-3.0165,-2.9931,-2.9931,-2.9931,-2.9901,-2.987,-2.9853,-2.9775,-2.9634,-2.9634,-2.9634,-2.9665,-2.9927,-2.9913,-2.9634,-2.9387,-2.9135,-2.8844,-2.8716,-2.8218,-2.7438,-2.7173,-2.6514,-2.5661,-2.5481,-2.5536,-2.5674,-2.5508,-2.573,-2.6111,-2.6111,-2.6029,-2.5948,0.0,0.0,0.0,0.0,0.0,0.0,0.0,0.0,0.0,0.0,0.0,0.0,0.0,0.0,0.0,0.0,0.0,0.0,0.0,0.0,0.0,-2.3981,-2.2412,-2.1885,-2.2627,-2.3545,-2.503,-2.7158,-2.9898,-3.1924,-3.3243,-3.2662,-2.974,-2.4853,-2.2157,-2.0012,-1.8443,-1.88,-1.9097,-1.9269,0.0,0.0,0.0,0.0,0.0,0.0,0.0,0.0,0.0,0.0,-1.8932,-1.9035,-1.8694,0.0,0.0,0.0,0.0,0.0,-1.8166,-1.9465,-2.0468,-1.9407,-2.0746,-2.2047,-2.102,-2.0372,-1.9723,-1.8797,-1.8468,-1.8612,-1.9499,0.0,-2.1411,-2.4397,0.0,-2.5477,-2.7494,-2.7855,-2.83,-2.9264,-2.9173,-2.9305,-2.9936,-2.982,-2.9775,-2.9931,-2.996,-2.9915,-2.9822,-2.973,-2.962,-2.9509,-2.9383,-2.932,-2.932,-2.9477,-2.9571,-2.9571,-2.9149,-2.899,-2.9099,-2.8844,-2.8396,-2.785,-2.7368,-2.675,-2.6049,-2.5661,-2.5592,-2.5702,-2.5633,-2.5771,-2.6002,-2.6056,-2.6056,-2.6029,0.0,0.0,0.0,0.0,0.0,0.0,0.0,0.0,0.0,0.0,0.0,0.0,0.0,0.0,0.0,0.0,0.0,0.0,0.0,0.0,-2.4074,-2.5355,-2.4557,-2.4251,-2.4641,-2.5717,-2.7483,-2.9954,-3.1775,-3.3652,-3.5423,-3.1839,-2.8102,-2.4334,-2.2161,-2.0222,-1.8553,-1.8534,-1.8724,-1.8993,0.0,0.0,0.0,0.0,0.0,0.0,0.0,0.0,0.0,0.0,0.0,0.0,0.0,0.0,0.0,-1.798,-1.7693,-1.7603,-1.7878,-1.8564,-1.949,-2.0735,-2.2586,-2.4156,-2.4428,-2.3505,-2.2396,-2.1745,-2.1389,-2.1125,-2.0871,-2.1969,0.0,-2.7223,-2.662,-2.6398,-2.8214,-2.7766,-2.7556,-2.8305,-2.8541,-2.885,-2.9435,-2.954,-2.9665,-2.9915,-2.9943,-2.9882,-2.9761,-2.9665,-2.954,-2.9446,-2.9289,-2.9194,-2.9162,-2.9131,-2.9226,-2.9477,-2.8972,-2.894,-2.932,-2.9022,-2.8705,-2.8283,-2.7672,-2.7062,-2.6465,-2.5855,-2.5633,-2.5757,-2.5784,-2.5866,-2.6002,-2.6111,-2.6138,-2.6179,0.0,0.0,0.0,0.0,0.0,0.0,0.0,0.0,0.0,0.0,0.0,0.0,0.0,0.0,0.0,0.0,0.0,0.0,0.0,0.0,-2.4462,-2.4574,-2.5903,-2.7352,-2.8913,-2.8282,-2.9136,-3.1626,-3.4061,-3.5324,-3.5423,-3.1911,-2.854,-2.529,-2.2647,-2.0425,-1.8688,-1.8631,-1.848,-1.8269,-1.8217,0.0,0.0,0.0,0.0,0.0,0.0,0.0,0.0,0.0,0.0,0.0,0.0,0.0,-1.7957,-1.7839,-1.732,-1.7067,-1.8372,-1.9663,-2.0846,-2.1609,-2.0423,-1.9875,-2.3137,-2.2217,-2.1214,-2.3032,-2.3385,-2.3413,-2.3497,-2.4367,-2.5567,-2.7115,-2.7533,-2.7934,-2.8591,-2.8819,-2.882,-2.843,-2.8951,-2.9279,-2.9162,-2.9289,-2.9415,-2.9446,-2.9446,-2.9509,-2.9602,-2.9602,-2.9602,-2.9571,-2.9571,-2.9509,-2.9383,-2.9194,-2.9099,-2.9131,-2.9099,-2.9067,-2.9131,-2.923,-2.9052,-2.8631,-2.7956,-2.7368,-2.6807,-2.616,-2.5866,-2.5893,-2.6029,-2.6138,-2.6286,-2.6286,-2.6286,-2.6299,0.0,0.0,0.0,0.0,0.0,0.0,0.0,0.0,0.0,0.0,0.0,0.0,0.0,0.0,0.0,0.0,0.0,0.0,0.0,-2.4043,-2.5169,-2.6665,-2.6349,-2.7408,-3.0084,-3.0809,-3.237,-3.486,-3.5789,-3.5454,-3.3881,-3.0937,-2.7556,-2.387,-2.2227,-2.0705,-1.9353,-1.8826,-1.8708,-1.8838,-1.8373,-1.82,0.0,0.0,0.0,0.0,0.0,0.0,0.0,0.0,-1.7738,-1.8005,-1.7486,-1.7586,-1.79,-1.7822,-1.727,-1.6915,-1.7861,-1.9426,-2.0971,-2.172,-2.1534,-2.2046,-2.5342,-2.6107,-2.626,-2.6788,-2.7255,-2.7131,-2.5679,0.0,-2.8046,-2.8053,-2.8497,-2.9045,-2.9608,-2.9341,-2.9048,-2.8862,-2.9056,-2.9194,-2.9099,-2.9289,-2.9383,-2.9383,-2.9477,-2.954,-2.9602,-2.9509,-2.9477,-2.9477,-2.9352,-2.9257,-2.9194,-2.9131,-2.9099,-2.9099,-2.9099,-2.9243,-2.9543,-2.9591,-2.936,-2.8903,-2.8206,-2.7526,-2.6919,-2.6284,-2.6029,-2.6029,-2.6179,-2.626,-2.6299,-2.6392,-2.6326,-2.6179,0.0,0.0,0.0,0.0,0.0,0.0,0.0,0.0,0.0,0.0,0.0,0.0,0.0,0.0,0.0,0.0,0.0,0.0,-2.2442,-2.3479,-2.4825,-2.6488,-2.6256,-2.7241,-2.9768,-3.1905,-3.3838,-3.5529,-3.5776,-3.4643,-3.2191,-2.9606,-2.6769,-2.3759,-2.2282,-2.126,-2.055,-1.9497,-1.9134,-1.9234,-1.8493,-1.82,0.0,0.0,0.0,0.0,0.0,0.0,0.0,0.0,-1.7714,-1.8027,-1.7417,-1.7563,-1.7871,-1.7545,-1.7433,-1.749,-1.7929,-1.9078,-2.0524,-2.2153,-2.2665,-2.372,-2.7344,-2.8336,-2.8849,-3.0017,-2.9866,-2.91,-2.7751,0.0,0.0,0.0,-2.9145,-2.9752,-2.9783,-2.9279,-2.8803,-2.8623,-2.8747,-2.8789,-2.8609,-2.9129,-2.9362,-2.9181,-2.9428,-2.9602,-2.9602,-2.9509,-2.9446,-2.9446,-2.932,-2.9226,-2.9194,-2.9194,-2.9226,-2.9257,-2.9306,-2.9463,-2.973,-2.9884,-2.9765,-2.9442,-2.8467,-2.784,-2.7413,-2.6478,-2.6138,-2.6245,-2.6394,-2.6447,-2.6447,-2.6431,-2.619,-2.5852,0.0,0.0,0.0,0.0,0.0,0.0,0.0,0.0,0.0,0.0,0.0,0.0,0.0,0.0,0.0,0.0,0.0,0.0,-2.079,-2.2293,-2.3203,-2.3203,-2.556,-2.7241,-2.8059,-3.1273,-3.2953,-3.302,-3.3788,-3.2915,-3.0511,-2.804,-2.6432,-2.5477,-2.3017,-2.2091,-2.2274,-2.0676,-1.9737,-1.9252,-1.8493,-1.82,-1.82,0.0,0.0,0.0,0.0,0.0,0.0,0.0,-1.8183,-1.8162,-1.8009,-1.7994,-1.7819,-1.6968,-1.7738,-1.8865,-1.881,-1.8783,-1.9591,-2.3106,-2.3378,-2.3985,-2.8568,-2.7974,-2.7737,-3.2263,-3.0723,-2.8835,-2.9733,-2.8737,0.0,-2.8068,-2.9462,-3.0067,-2.8864,-2.8554,-2.8196,-2.7595,-2.8056,-2.8168,-2.7567,-2.875,-2.935,-2.8731,-2.9251,-2.9602,-2.9602,-2.9602,-2.9602,-2.9602,-2.9602,-2.954,-2.9383,-2.9383,-2.9477,-2.9602,-2.973,-2.973,-2.9634,-3.0083,-3.0312,-3.021,-2.8798,-2.8312,-2.8353,-2.6758,-2.6258,-2.651,-2.6712,-2.6779,-2.6753,-2.6418,-2.5906,-2.5342,0.0,0.0,0.0,0.0,0.0,0.0,0.0,0.0,0.0,0.0,0.0,0.0,0.0,0.0,0.0,0.0,0.0,0.0,-2.079,-2.1773,-2.2877,-2.4063,-2.4241,-2.4965,-2.6368,-2.791,-3.04,-3.3844,-3.2388,-3.0697,-2.8802,-2.6925,-2.53,-2.3894,-2.3529,-2.2697,-2.1476,-2.0246,-1.9552,-1.9286,-1.9062,-1.8666,-1.8252,0.0,0.0,0.0,0.0,0.0,0.0,0.0,0.0,0.0,-1.6597,-1.713,-1.7819,-1.6968,-1.702,-1.7348,-1.7326,-1.9966,-2.2786,-2.3143,-2.6213,-2.9471,-3.061,-3.0369,-3.0784,-3.3769,-3.3065,-3.1504,-3.034,-3.023,-2.9884,-2.8577,-2.9232,-2.9889,-2.9962,-2.9553,-2.919,-2.8991,-2.8769,-2.8545,-2.8346,-2.8336,-2.8422,-2.8675,-2.8872,-2.9153,-2.9588,-2.9602,-2.9602,-2.9602,-2.9602,-2.9571,-2.954,-2.962,-2.9699,-2.973,-3.0007,-3.0129,-3.0113,-3.0387,-3.0015,-2.9131,-2.8484,-2.7781,-2.7057,-2.6576,-2.6258,-2.6069,-2.6138,-2.6179,-2.6084,-2.5301,-2.5036,-2.4924,0.0,0.0,0.0,0.0,0.0,0.0,0.0,0.0,0.0,0.0,-2.3593,-2.3285,0.0,0.0,0.0,-2.1476,-2.079,-2.0325,-2.0325,-2.1087,-2.2115,-2.345,-2.3304,-2.4139,-2.6126,-2.6646,-2.8189,-3.0827,-2.9694,-2.8282,-2.6665,-2.633,-2.5616,-2.4617,-2.5226,-2.4413,-2.2486,-2.1192,-2.0293,-1.9717,-1.9424,-1.9027,-1.8683,0.0,0.0,0.0,0.0,0.0,0.0,0.0,0.0,0.0,-1.6001,-1.6365,-1.7096,-1.7165,-1.78,-1.8736,-1.9921,-2.27,-2.5515,-2.655,-2.8935,-3.1205,-3.1894,-3.2439,-3.3133,-3.4331,-3.3565,-3.2363,-3.1234,-3.0963,-3.0449,-2.914,-2.9519,-3.0007,-3.0129,-2.9624,-2.9237,-2.9237,-2.8914,-2.8493,-2.7987,-2.8057,-2.8227,-2.831,-2.8549,-2.8956,-2.9574,-2.9602,-2.9602,-2.9602,-2.9651,-2.9682,-2.9682,-2.9837,-2.996,-3.0007,-3.019,-3.0357,-3.0417,-3.0538,-3.0045,-2.9029,-2.831,-2.742,-2.6484,-2.6324,-2.6123,-2.5893,-2.5743,-2.5564,-2.5273,-2.4711,-2.4297,-2.3865,0.0,0.0,0.0,0.0,0.0,0.0,0.0,0.0,0.0,-2.3184,-2.3073,-2.2739,0.0,0.0,0.0,-2.079,-2.0066,-1.9609,-1.9609,-2.027,-2.1087,-2.1959,-2.2924,-2.4474,-2.6739,-2.6721,-2.6256,-2.5364,-2.6163,-2.581,-2.4425,-2.6033,-2.6728,-2.6636,-2.7331,-2.6474,-2.4389,-2.266,-2.1253,-2.0153,-1.9545,-1.9269,-1.9189,-1.9189,0.0,0.0,0.0,0.0,0.0,0.0,0.0,0.0,-1.5938,-1.5702,-1.5953,-1.7209,-1.9302,-2.1766,-2.4391,-2.5966,-2.7759,-3.1517,-3.1218,-3.0548,-3.2499,-3.386,-3.4618,-3.4201,-3.2914,-3.1955,-3.2249,-3.1153,-3.0046,-2.9659,-3.0068,-3.0237,-2.9665,-2.9125,-2.8774,-2.8774,-2.8717,-2.824,-2.7102,-2.7973,-2.8394,-2.7932,-2.838,-2.8956,-2.9574,-2.9602,-2.9634,-2.9634,-2.9761,-2.9822,-2.9822,-3.0036,-3.0189,-3.0282,-3.0312,-3.0417,-3.0598,-3.0598,-3.019,-2.9436,-2.8104,-2.7153,-2.6457,-2.6084,-2.5866,-2.577,-2.5384,-2.4909,-2.4412,-2.4295,-2.3551,-2.2531,0.0,0.0,0.0,0.0,0.0,0.0,0.0,0.0,-2.2479,-2.3128,-2.2107,-2.1495,-2.194,-2.0715,0.0,-2.0734,-2.0066,-1.9609,-1.9609,-1.9757,-2.0493,-2.194,-2.4036,-2.5401,-2.5949,-2.5336,-2.4286,-2.2802,-2.3601,-2.3824,-2.3508,-2.5125,-2.5857,-2.5846,-2.6217,-2.5122,-2.2851,-2.0796,-1.9444,-1.8717,-1.9131,-1.8959,-1.8441,-1.8441,-1.7959,0.0,0.0,0.0,0.0,0.0,0.0,0.0,-1.5011,-1.529,-1.5644,-1.5316,-1.8076,-2.1207,-2.1197,-2.4958,-2.9135,-3.0309,-3.1518,-3.2461,-3.2517,-3.2975,-3.3527,-3.4009,-3.3224,-3.2385,-3.2314,-3.1486,-3.0542,-2.973,-2.9727,-2.9758,-2.9602,-2.949,-2.942,-2.942,-2.8984,-2.8591,-2.831,-2.8099,-2.8157,-2.8464,-2.8619,-2.8956,-2.9574,-2.9713,-2.9761,-2.9761,-2.9943,-3.0036,-3.0036,-3.0174,-3.0266,-3.0282,-3.0447,-3.0568,-3.0598,-3.0598,-2.9929,-2.8655,-2.711,-2.6481,-2.6457,-2.6084,-2.5633,-2.5105,-2.4295,-2.3917,-2.3682,-2.2665,-2.2421,-2.247,0.0,0.0,0.0,0.0,0.0,0.0,0.0,0.0,-2.259,-2.2627,-2.1903,-2.1235,-2.0882,-2.011,0.0,0.0,-1.985,-1.9609,-1.9609,-1.9609,-2.0333,-2.1922,-2.4371,-2.5327,-2.4519,-2.4092,-2.3062,-2.1421,-2.1458,-2.1866,-2.2664,-2.4308,-2.5236,-2.5578,-2.598,-2.4824,-2.2486,-2.082,-1.9632,-1.8895,-1.9295,-1.8936,-1.82,-1.82,-1.7494,-1.6415,-1.6036,0.0,0.0,0.0,0.0,0.0,0.0,0.0,-1.481,-1.5413,-1.7504,-2.017,-2.2675,-2.6071,-2.9259,-3.0815,-3.2012,-3.2656,-3.2035,-3.2048,-3.2394,-3.3124,-3.3018,-3.2625,-3.2099,-3.1549,-3.0881,-3.0005,-2.971,-2.9602,-2.9602,-2.9602,-2.9634,-2.9682,-2.9338,-2.9043,-2.8824,-2.8499,-2.8443,-2.8768,-2.887,-2.9199,-2.9806,-2.9913,-2.9929,-2.9929,-3.0127,-3.0189,-3.0189,-3.0357,-3.0447,-3.0447,-3.0447,-3.0228,-2.9761,-2.9563,-2.9059,-2.8283,-2.6691,-2.5988,-2.5933,-2.5453,-2.4781,-2.405,-2.3547,-2.3083,-2.2616,-2.2094,-2.1908,-2.1846,0.0,0.0,0.0,0.0,0.0,0.0,0.0,0.0,0.0,-2.1866,-2.1662,-2.1087,-1.9757,-1.9609,-1.9609,0.0,0.0,0.0,-1.9609,-1.9739,-2.0455,-2.194,-2.4092,-2.4557,-2.3036,-2.2868,-2.207,-2.0585,-1.9776,-2.0344,-2.2237,-2.3768,-2.4828,-2.5463,-2.5771,-2.4605,-2.2347,-2.0955,-1.9835,-1.8981,-1.8978,-1.8488,-1.7787,-1.7649,-1.6821,-1.5684,-1.5537,-1.5502,-1.5408,-1.4796,0.0,0.0,0.0,0.0,-1.3955,-1.5714,-1.7112,-1.9183,-2.4183,-2.6857,-2.8859,-3.1653,-3.2339,0.0,-3.1452,-3.1307,-3.1481,-3.2092,-3.2477,-3.2501,-3.1849,-3.1478,-3.1028,-3.0233,-2.9834,-2.9602,-2.9602,-2.9634,-2.9682,-2.9777,-2.9713,-2.9515,-2.9144,-2.9118,-2.9118,-2.9118,-2.9266,-2.9568,-3.0021,-3.008,-3.008,-3.0036,-3.0174,-3.0266,-3.0266,-3.0431,-3.0507,-3.0522,-3.0326,-2.9767,-2.8909,-2.8322,-2.8025,-2.7883,-2.6399,-2.5591,-2.5259,-2.4667,-2.3888,-2.3088,-2.2932,-2.2396,-2.1714,-2.1877,-2.1639,-2.119,0.0,0.0,0.0,0.0,0.0,0.0,0.0,0.0,0.0,0.0,-2.0344,-1.985,-1.9627,-1.9609,-1.9609,-1.9609,-1.9609,-1.9609,-1.9609,0.0,0.0,-2.1959,-2.298,-2.3091,-2.2182,-2.1476,-2.066,-1.9757,-1.8896,-2.0047,-2.3054,-2.3985,-2.4709,-2.5204,-2.4592,-2.322,-2.1231,-1.8818,-1.7318,-1.6562,-1.6433,-1.6323,-1.614,-1.5495,-1.5133,-1.4856,-1.4157,-1.3908,-1.389,-1.3795,-1.376,0.0,0.0,0.0,-1.3647,-1.3871,-1.6271,-1.8973,-1.956,-2.3872,-2.8781,0.0,-3.1938,-3.1925,0.0,0.0,-3.1336,0.0,-3.1509,-3.1595,-3.1834,-3.1233,-3.0568,-3.0172,-2.9834,-2.9602,-2.9602,-2.9713,-2.9777,-2.9808,-2.9943,-3.0021,-2.9966,-2.9952,-2.9952,-2.9952,-2.9952,-2.995,-2.9853,-3.0005,-3.0005,-2.9853,-3.0036,-3.0142,-3.0142,-3.0142,-3.0172,-3.0172,-2.9946,-2.9594,-2.9028,-2.7938,-2.7265,-2.6919,-2.5785,-2.5161,-2.491,-2.431,-2.3669,-2.3027,-2.2199,-2.1808,-2.1683,-2.14,-2.1285,-2.119,0.0,0.0,0.0,0.0,0.0,0.0,0.0,0.0,0.0,0.0,0.0,-2.011,-1.9646,-1.9609,-1.9609,-1.9609,-1.9609,-1.9609,-1.9609,-2.0344,-2.0957,-2.1309,-2.2107,-2.194,-2.0678,-2.0307,-1.9713,-1.8878,-1.8042,-1.9504,0.0,-2.3026,-2.3778,-2.5113,-2.3256,-2.1722,-2.0391,-1.8342,-1.6958,-1.6159,-1.609,-1.7323,-1.8877,-1.5911,-1.6154,-1.7666,-1.4666,-1.3605,-1.3605,-1.3605,-1.3605,-1.3605,-1.3605,0.0,0.0,0.0,-1.4864,-1.7121,-2.0534,-2.4523,-2.8404,0.0,-3.1925,-3.1896,-3.1509,-3.1423,-3.1409,-3.1409,-3.1409,-3.1423,-3.1537,-3.1436,-3.1175,-3.0673,-3.0266,-2.9991,-2.9991,-2.9991,-2.9991,-3.0068,-3.0097,-3.0142,-3.0205,-3.0219,-3.0219,-3.0219,-3.031,-3.0296,-3.0099,-3.0174,-3.0158,-2.996,-3.0036,-3.008,-3.008,-3.008,-3.0019,-2.9834,-2.9713,-2.9049,-2.7858,-2.739,-2.7124,-2.6923,-2.5299,-2.441,-2.4082,-2.345,-2.2743,-2.2002,-2.1808,-2.1588,-2.1411,-2.1253,-2.119,-2.119,0.0,0.0,0.0,0.0,0.0,0.0,0.0,0.0,0.0,0.0,0.0,-2.0277,-1.9664,0.0,0.0,0.0,-1.9267,-1.9175,-1.8977,-1.9527,-1.9861,-1.9861,-2.0437,-2.0103,-1.8699,-1.8662,-1.8339,-1.769,-1.73,-1.9038,-2.271,-2.2083,-2.3015,0.0,-2.2857,-2.1165,-1.9841,0.0,0.0,-1.6229,-1.7001,-1.9,-2.1179,-1.8246,-1.8933,-2.0842,-1.6153,-1.4451,-1.4391,-1.3804,-1.3605,-1.3605,-1.3605,-1.3605,0.0,0.0,0.0,0.0,0.0,0.0,-2.5975,-2.9809,-3.0924,-3.1174,0.0,0.0,-3.1597,0.0,-3.1511,-3.1467,-3.138,-3.1537,-3.1536,-3.1073,-3.0613,-3.0282,-3.0282,-3.0249,-3.0249,-3.0282,-3.028,-3.031,-3.0357,-3.0387,-3.0387,-3.0387,-3.0507,-3.0507,-3.0266,-3.0235,-3.0144,-2.9988,-2.9958,-2.9958,-2.9958,-2.9927,-2.9772,-2.9477,-2.9415,-2.8502,-2.6852,-2.6975,-2.6805,-2.6307,-2.477,-2.3754,-2.3122,-2.2652,-2.197,-2.1221,-2.1474,-2.1411,-2.119,-2.119,-2.119,-2.119,0.0,0.0,0.0,0.0,0.0,0.0,0.0,0.0,0.0,0.0,0.0,-1.9646,-1.9609,-1.9609,-1.9267,-1.8451,-1.8376,-1.8042,-1.7281,-1.7263,-1.73,-1.73,-1.7337,0.0,-1.6112,-1.6093,-1.6075,-1.6019,-1.6743,-1.8776,-2.1953,-2.1651,-2.279,-2.5073,-2.4151,-2.2283,-1.9698,0.0,0.0,0.0,0.0,-2.0483,-2.0866,-2.2789,-2.3658,-2.3211,-1.8519,0.0,-1.6484,-1.4339,-1.3605,-1.3605,-1.3605,-1.3605,-1.3565,0.0,0.0,0.0,0.0,-1.8237,0.0,-2.5886,-2.7983,-2.9123,0.0,0.0,-3.1883,-3.1568,-3.1511,-3.1511,-3.1511,-3.1248,-3.1058,-3.0999,-3.0613,-3.0282,-3.0282,-3.0447,-3.0507,-3.0312,-3.0568,-3.0702,-3.0598,-3.0568,-3.0568,-3.0568,-3.0598,-3.0462,-3.0142,-3.0111,-2.9958,-2.9634,-2.9634,-2.9634,-2.9634,-2.9509,-2.932,-2.9131,-2.894,-2.8088,-2.6705,-2.6791,-2.5866,-2.4151,-2.4114,-2.3357,-2.2163,-2.2132,-2.1753,-2.119,-2.1221,-2.1233,-2.119,-2.119,-2.119,-2.119,0.0,0.0,0.0,0.0,0.0,0.0,0.0,0.0,0.0,0.0,0.0,0.0,0.0,-1.8302,-1.7875,-1.756,-1.7523,-1.7411,-1.7114,-1.7096,-1.7096,-1.7096,-1.7096,-1.6724,-1.5926,-1.5908,-1.5891,-1.5844,-1.6169,-1.7881,-2.0893,-2.1475,-2.2328,-2.331,-2.1992,-2.0783,-1.9573,-1.6976,0.0,0.0,0.0,0.0,0.0,0.0,0.0,0.0,0.0,0.0,0.0,-1.811,-1.5947,-1.3518,-1.3035,-1.2897,0.0,0.0,0.0,0.0,0.0,0.0,0.0,-2.295,-2.6219,-2.8554,-2.9126,-3.1336,-3.3062,-3.2302,-3.2123,-3.2004,-3.1585,-3.1409,-3.1322,-3.1322,-3.1102,-3.0955,-3.0955,-3.094,-3.0851,-3.0642,-3.0732,-3.0762,-3.0598,-3.0598,-3.0598,-3.0598,-3.0598,-3.0462,-3.0111,-3.008,-2.9958,-2.9602,-2.9602,-2.9602,-2.9602,-2.9477,-2.9289,-2.9099,-2.843,-2.7367,-2.5997,-2.5608,-2.4443,-2.267,-2.2776,-2.2531,-2.2082,-2.169,-2.14,-2.119,-2.119,-2.119,-2.119,-2.119,-2.119,-2.119,0.0,0.0,0.0,0.0,0.0,0.0,0.0,0.0,0.0,-1.9193,0.0,0.0,0.0,0.0,-1.7708,-1.7151,-1.6854,-1.6576,-1.6316,-1.6297,-1.6297,-1.6297,-1.6297,-1.6038,-1.5499,-1.5499,-1.5483,-1.5437,-1.5749,-1.7031,-1.9227,-2.0403,-2.1224,-2.162,-1.9897,-1.9466,0.0,0.0,0.0,-1.6367,0.0,0.0,-2.6839,0.0,0.0,0.0,0.0,0.0,0.0,0.0,0.0,0.0,0.0,0.0,0.0,0.0,0.0,-1.1872,-1.4184,0.0,0.0,0.0,0.0,-2.5438,-2.8171,0.0,-3.2135,-3.2569,-3.2571,-3.2288,-3.163,-3.1511,-3.1511,-3.1511,-3.138,-3.1307,-3.1307,-3.1205,-3.1102,-3.0925,-3.094,-3.0881,-3.0702,-3.0672,-3.0642,-3.0598,-3.0598,-3.0462,-3.0189,-3.0111,-2.9958,-2.9602,-2.9602,-2.9571,-2.954,-2.9383,-2.9085,-2.8624,-2.7947,-2.6703,-2.4975,-2.4798,-2.3608,-2.1684,-2.1969,-2.199,-2.1753,-2.1368,-2.119,-2.119,-2.119,-2.119,-2.119,-2.119,-2.1094,-2.1031,0.0,0.0,0.0,0.0,0.0,0.0,0.0,0.0,-1.9305,-1.8451,0.0,0.0,0.0,0.0,0.0,-1.7281,-1.6409,-1.5592,-1.4799,-1.4706,-1.4706,-1.4706,-1.4706,-1.4706,-1.4706,-1.4706,-1.4701,-1.4696,-1.5496,-1.6251,-1.6976,-1.8395,-1.9464,-2.0128,-1.8271,-1.8604,-2.0525,0.0,-1.8769,-1.8786,0.0,-2.7113,-2.5973,0.0,0.0,0.0,-2.6135,-2.4315,0.0,-2.3929,0.0,0.0,0.0,0.0,0.0,0.0,0.0,-1.1072,0.0,0.0,0.0,0.0,0.0,0.0,-2.8225,0.0,-2.8905,-3.2159,-3.2583,-3.2168,-3.1615,-3.1511,-3.1511,-3.1511,-3.138,-3.1307,-3.1307,-3.1307,-3.1263,-3.1102,-3.1205,-3.1176,-3.0821,-3.0791,-3.0732,-3.0598,-3.0598,-3.0507,-3.0326,-3.0158,-2.9927,-2.9602,-2.9602,-2.954,-2.9383,-2.9194,-2.861,-2.771,-2.7524,-2.6154,-2.3833,-2.4364,-2.3369,-2.1221,-2.1815,-2.1753,-2.119,-2.119,-2.119,-2.119,-2.119,-2.119,-2.119,-2.119,-2.0967,-2.07,0.0,0.0,0.0,0.0,0.0,-1.9516,-1.9286,-1.946,-1.9516,0.0,0.0,0.0,-1.8729,-1.8655,-1.8469,-1.8005,-1.7226,-1.6427,-1.5611,-1.5017,-1.4706,-1.4706,-1.4706,-1.4706,-1.4706,-1.4706,-1.4602,-1.4405,-1.527,-1.5681,-1.5742,-1.7333,-1.8097,-1.8119,-1.8169,-1.814,-1.7903,-1.5997,0.0,0.0,-2.2695,-2.5959,0.0,0.0,0.0,0.0,0.0,-2.9507,-2.7774,0.0,-2.4293,-1.8798,0.0,0.0,0.0,0.0,0.0,-0.9768,-1.0028,0.0,0.0,0.0,0.0,0.0,0.0,0.0,-2.5481,-2.853,-2.9094,-2.9529,-3.1182,-3.1511,-3.1511,-3.1511,-3.1467,-3.1438,-3.1438,-3.1438,-3.138,-3.1263,-3.1292,-3.1176,-3.0821,-3.0791,-3.0732,0.0,-3.0598,-3.0462,-3.0158,-2.9882,-2.971,-2.9602,-2.9509,-2.9446,-2.9383,-2.9067,-2.8484,-2.7705,-2.6635,-2.532,-2.3769,-2.303,-2.2145,-2.1221,-2.1368,-2.1336,-2.119,-2.119,-2.119,-2.119,-2.119,-2.119,-2.119,-2.119,-2.119,-2.1198,0.0,0.0,-1.9813,-2.0474,-2.0604,-2.0715,-2.1049,-2.0808,-2.0578,0.0,0.0,0.0,-1.9814,-2.0125,-1.9936,-1.8933,-1.8079,-1.7102,-1.5923,-1.5136,-1.4645,-1.4546,-1.4876,-1.5043,-1.494,-1.4959,-1.4866,-1.4711,-1.4892,-1.4887,-1.477,-1.5989,-1.6496,-1.6352,-1.6764,-1.6793,-1.6415,0.0,0.0,0.0,-2.3065,0.0,0.0,-3.0595,-3.2696,0.0,0.0,0.0,-2.9396,-3.0719,-2.5898,0.0,0.0,0.0,0.0,0.0,0.0,-0.9835,-0.9388,-0.9681,-1.0173,-1.049,0.0,0.0,-1.9146,-2.1482,0.0,0.0,-2.9855,-3.0083,-3.1271,-3.1511,-3.1511,-3.1511,-3.1511,-3.1511,-3.1511,-3.1511,-3.1467,-3.138,-3.138,-3.1292,-3.1029,-3.0955,-3.0866,-3.0702,-3.0642,-3.0462,-3.0111,-2.9851,-2.9651,-2.9602,-2.9477,-2.9352,-2.9289,-2.8366,-2.7672,-2.7147,-2.5507,-2.4251,-2.3306,-2.2341,-2.1652,-2.119,-2.119,-2.119,-2.119,-2.119,-2.119,-2.119,-2.119,-2.119,-2.1221,-2.1253,-2.1242,-2.1242,0.0,0.0,-2.0214,-2.1736,-2.207,-2.2404,-2.3221,-2.2664,-2.2147,0.0,-2.1538,-2.1403,-2.229,-2.2879,-2.2379,-2.0226,-1.9013,-1.7691,-1.6091,-1.5156,-1.4552,-1.4306,-1.5113,-1.5442,-1.5189,-1.5264,-1.5257,-1.5146,-1.443,-1.4076,-1.4067,-1.4591,-1.4795,-1.4725,-1.4604,-1.4908,-1.5434,-1.4235,0.0,-1.7896,-2.463,-2.6241,0.0,0.0,-3.0852,-2.8672,-3.0496,-3.0228,-2.9396,-3.1922,-2.7682,0.0,0.0,0.0,0.0,0.0,-1.0065,-1.1106,-0.8911,-0.9188,-1.0266,-1.0915,0.0,0.0,-2.0909,-2.1819,-2.2753,0.0,-3.1008,-3.0702,-3.0464,-3.0479,-3.0494,-3.0419,-3.0778,-3.1167,-3.1466,-3.1511,-3.1511,-3.1511,-3.1511,-3.1438,-3.1307,-3.119,-3.1014,-3.0821,-3.0642,-3.0372,-2.9981,-2.9856,-2.967,-2.9442,-2.9317,-2.9056,-2.872,-2.728,-2.6368,-2.6007,-2.423,-2.309,-2.255,-2.2031,-2.1562,-2.1158,-2.1158,-2.1158,-2.1158,-2.1158,-2.119,-2.119,-2.119,-2.1221,-2.1253,-2.1368,-2.1242,-2.1094,-1.8488,-1.9639,-2.0864,-2.1829,-2.2534,-2.3267,-2.4119,-2.352,-2.3206,-2.3898,-2.3575,-2.3826,-2.5278,-2.4236,-2.3241,-2.278,-2.0309,-1.8356,-1.7325,-1.5402,-1.4306,-1.43,-1.4981,-1.5101,-1.4503,-1.503,-1.4931,-1.4161,-1.4019,-1.3852,-1.3696,-1.3823,-1.3565,-1.2993,-1.2964,-1.3035,-1.3217,-1.4165,0.0,-1.934,-2.1242,0.0,-2.7774,-2.9751,-3.155,-3.2923,-3.2333,-3.1924,-3.1368,-2.9452,-2.73,-2.4516,0.0,0.0,0.0,-1.1636,0.0,0.0,0.0,0.0,0.0,0.0,0.0,0.0,-1.2591,-1.3521,-1.5071,0.0,-1.9682,-2.0704,-2.323,-2.4103,-2.4223,-2.3699,-2.6273,-2.9086,-3.1197,-3.1511,-3.1511,-3.1511,-3.1511,-3.1438,-3.1307,-3.119,-3.1014,-3.0821,-3.0446,-2.9883,-2.916,-2.9445,-2.9271,-2.8507,-2.8322,-2.7641,-2.6306,-2.5868,-2.5033,-2.3825,-2.3055,-2.2403,-2.1812,-2.1328,-2.1058,-2.0967,-2.0967,-2.0967,-2.0967,-2.0967,-2.1063,-2.119,-2.119,-2.1285,-2.1368,-2.1388,-2.1526,-2.1737,-1.8811,-2.0211,-2.1729,-2.2932,-2.3802,-2.4866,-2.6356,-2.5541,-2.4986,-2.5658,-2.5567,-2.55,-2.5648,-2.4846,-2.3833,-2.266,-2.0047,-1.8043,-1.7081,-1.5228,-1.4145,-1.4005,-1.4734,-1.513,-1.5096,-1.5072,-1.4992,-1.4896,-1.4135,-1.3705,-1.3605,-1.3605,-1.4218,-1.5288,-1.3718,-1.389,-1.5288,0.0,-1.5607,-1.8142,-2.1963,0.0,-2.9054,-3.1045,-3.2498,-3.3369,-3.2643,-3.2398,-3.2129,-3.0457,-2.7748,0.0,0.0,-2.0673,-1.8608,0.0,-1.3973,-1.4881,0.0,0.0,0.0,-1.0518,0.0,0.0,0.0,0.0,0.0,0.0,-1.9167,-1.9547,-2.1854,-2.1964,-2.1804,-2.2149,-2.4964,-2.7106,-2.7111,-2.9642,-3.1511,-3.1511,-3.1511,-3.1467,-3.1409,-3.1263,-3.0955,-3.0397,-2.9548,-2.8893,-2.8566,-2.8656,-2.8414,-2.7765,-2.7309,-2.6592,-2.5608,-2.4412,-2.3597,-2.3189,-2.2025,-2.1504,-2.1585,-2.1103,-2.0967,-2.1031,-2.0935,-2.0987,-2.1146,-2.1094,-2.1201,-2.1423,-2.1348,-2.1336,-2.142,-2.1588,-2.1769,-2.1894,-1.9004,-2.057,-2.2179,-2.3483,-2.4743,-2.6159,-2.7911,-2.7186,-2.6567,-2.6926,-2.7076,-2.6739,-2.5637,-2.5805,-2.5221,-2.3342,-2.1392,-1.9543,-1.7772,-1.626,-1.5115,-1.4392,-1.4743,-1.5322,-1.6126,-1.5271,-1.5021,-1.546,-1.4218,-1.3536,-1.3398,-1.3536,-1.4788,-1.6821,-1.5205,0.0,0.0,0.0,0.0,-1.825,0.0,-2.6929,-2.8168,-3.1633,-3.2474,-3.1866,-3.2268,-3.2398,-3.2311,-3.1623,-2.8295,-2.4534,-2.503,-2.2971,0.0,0.0,0.0,0.0,0.0,0.0,0.0,0.0,0.0,-1.1948,0.0,0.0,0.0,0.0,0.0,0.0,0.0,0.0,0.0,0.0,0.0,0.0,0.0,0.0,0.0,0.0,0.0,-3.1062,-3.0434,-3.0101,-2.976,-2.9319,-2.7812,-2.7117,-2.7567,-2.7502,-2.725,-2.6772,-2.6112,-2.5493,-2.4834,-2.2995,-2.2248,-2.2587,-2.1084,-2.0711,-2.1345,-2.1019,-2.0935,-2.1106,-2.0967,-2.1051,-2.1305,-2.119,-2.1328,-2.1624,-2.1506,-2.1463,-2.1526,-2.18,-2.1894,-2.1894,-1.7752,-1.9732,-2.1356,-2.1613,-2.3985,-2.5954,-2.626,-2.6657,-2.6908,-2.6911,-2.7376,-2.7635,-2.7416,-2.8465,-2.9073,0.0,-2.8629,-2.6737,-2.2434,-2.072,-1.8948,-1.6888,-1.5523,-1.5514,-1.7026,-1.5566,-1.4494,-1.3856,-1.3691,-1.3277,-1.2645,-1.3294,-1.3087,-1.2323,-1.6033,0.0,0.0,0.0,-2.0874,0.0,-2.5345,-2.4376,0.0,-2.8248,-2.9744,-2.9348,-3.1589,-3.2398,-3.2013,0.0,-2.8383,-2.6941,0.0,-2.3482,-2.5712,-1.6818,0.0,0.0,0.0,0.0,0.0,0.0,-1.3806,0.0,0.0,0.0,0.0,-1.2603,0.0,0.0,0.0,0.0,0.0,0.0,0.0,0.0,0.0,0.0,0.0,0.0,0.0,0.0,-2.6557,-2.5545,-2.5617,-2.6863,-2.4564,-2.3783,-2.5286,-2.5835,-2.5709,-2.4862,-2.4714,-2.3858,-2.2075,-2.1796,-2.1267,-2.0433,-2.0238,-2.0281,-2.0529,-2.0669,-2.0733,-2.0765,-2.0871,-2.0924,-2.0967,-2.0935,-2.1115,-2.1463,-2.1624,-2.1749,-2.1862,-2.1894,-2.1819,-2.1788,-1.6799,-1.8878,-2.0512,-2.0541,-2.238,-2.4258,-2.547,-2.6513,-2.6994,-2.6495,-2.7068,-2.7382,0.0,0.0,0.0,0.0,0.0,-2.6033,0.0,-2.1806,-1.984,-1.6595,-1.5384,-1.5314,-1.6413,-1.4908,-1.4165,-1.4304,-1.3829,-1.3225,-1.2524,-1.326,-1.3977,-1.4788,-1.7714,0.0,-1.9672,0.0,-2.1078,0.0,0.0,0.0,0.0,-2.9879,-3.2462,-3.2141,-3.3098,-3.3179,-3.2673,0.0,-2.9077,0.0,0.0,0.0,0.0,0.0,0.0,0.0,0.0,0.0,0.0,0.0,0.0,0.0,-1.2899,0.0,-1.257,0.0,0.0,0.0,0.0,0.0,0.0,0.0,-1.3957,0.0,0.0,0.0,0.0,0.0,0.0,0.0,0.0,0.0,0.0,-2.6651,-2.3279,-2.2135,-2.4487,-2.4724,-2.4558,-2.3996,-2.3396,-2.264,-2.1616,-2.1028,-2.0518,-2.0118,-2.0216,-2.0378,-2.0572,-2.0722,-2.0882,-2.0978,-2.0935,-2.1019,-2.1178,-2.1126,-2.1253,-2.1549,-2.121,-2.14,-2.1862,-2.1557,-2.1588,-2.1831,-1.5548,-1.7586,-1.9177,-1.9177,-2.0659,-2.2546,-2.4633,-2.5739,-2.6281,-2.6111,-2.6609,0.0,-2.6742,-2.7302,0.0,0.0,-2.953,-2.8402,0.0,0.0,-2.2237,-1.917,-1.6502,-1.5946,-1.7742,-1.525,-1.4114,-1.4476,-1.3881,-1.3225,-1.2524,-1.326,-1.4391,-1.588,0.0,-2.1052,-2.31,0.0,-2.2834,-2.3908,-2.4092,-2.4531,-2.5758,-3.1605,-3.4164,-3.4647,-3.427,-3.3799,-3.3192,-3.2264,-2.9346,-2.654,-2.9154,0.0,0.0,0.0,0.0,0.0,-1.6053,0.0,0.0,0.0,0.0,0.0,0.0,0.0,0.0,0.0,0.0,0.0,0.0,0.0,0.0,0.0,0.0,0.0,0.0,0.0,0.0,0.0,0.0,0.0,0.0,0.0,0.0,0.0,0.0,-2.0116,-2.3544,-2.3577,-2.3399,-2.31,-2.2359,-2.1846,-2.1565,-2.0828,-2.0421,-2.0388,-2.0518,-2.0625,-2.0701,-2.0839,-2.0967,-2.1094,-2.1031,-2.1115,-2.1336,-2.1253,-2.1265,-2.1265,-2.0537,-2.0698,-2.1293,-2.1092,-2.1167,-2.1336,-1.369,-1.5538,-1.709,-1.709,-1.8952,-2.1241,-2.3505,-2.3888,-2.4439,-2.5904,0.0,0.0,0.0,0.0,0.0,0.0,0.0,-3.7875,-3.1886,0.0,-2.781,-2.6979,-1.9827,-1.7974,-2.2479,-1.7438,-1.439,-1.3639,-1.3605,-1.3225,-1.2524,-1.326,-1.326,-1.2867,-1.8054,-2.05,-2.0949,-2.4569,-2.8375,-3.1861,-3.1153,-3.2254,-3.4022,0.0,-3.276,-3.508,-3.4227,0.0,-3.3171,-2.9868,-2.8666,-2.8031,-2.489,0.0,0.0,0.0,0.0,0.0,0.0,0.0,0.0,-1.5281,0.0,0.0,0.0,0.0,-1.3775,0.0,0.0,0.0,0.0,0.0,0.0,0.0,0.0,0.0,0.0,0.0,0.0,0.0,0.0,0.0,0.0,0.0,0.0,0.0,0.0,0.0,-2.2,-2.2247,-2.2111,-2.1776,-2.1745,-2.1608,-2.142,-2.1356,-2.1262,-2.1071,-2.106,-2.0955,-2.0701,-2.0839,-2.0903,-2.0935,-2.1094,-2.119,-2.1221,-2.119,-2.0892,-2.0366,-1.9628,-1.9552,-1.9955,-2.0655,-2.0473,-1.9998,-1.439,-1.5021,-1.5547,-1.5547,-1.6994,-1.893,-2.1187,-2.3285,-2.5304,0.0,-2.7909,0.0,0.0,-3.2911,-3.4411,0.0,0.0,-3.6753,-3.2532,-3.0743,0.0,-2.6677,-2.1162,-1.936,0.0,-1.7754,-1.5167,-1.439,-1.3864,-1.3225,-1.2524,-1.3255,-1.3181,-1.2669,0.0,-2.1692,0.0,0.0,0.0,0.0,0.0,-3.1224,-3.3466,0.0,-3.3594,-3.4364,-3.4673,-3.4439,-3.381,-3.2184,-3.019,-2.8434,-2.873,-2.6976,-2.4966,-2.5836,-2.5494,-2.4401,-2.2661,-2.3511,-2.3681,-1.8519,0.0,0.0,0.0,0.0,0.0,0.0,0.0,0.0,0.0,0.0,0.0,0.0,0.0,0.0,0.0,0.0,0.0,0.0,0.0,0.0,0.0,0.0,0.0,0.0,0.0,0.0,0.0,-2.2197,-2.2154,-2.2018,-2.1819,-2.1714,-2.1733,-2.1305,-2.1071,-2.1092,-2.1008,-2.0924,-2.0807,-2.0506,-2.0635,-2.1094,-2.0667,-2.0764,-2.1158,-2.0667,-2.0366,-2.0063,-1.89,-1.8432,-1.8489,-1.9255,-1.9922,-2.0431,-1.5184,-1.4744,-1.4546,-1.5107,-1.6425,-1.8103,-2.0102,-2.2785,0.0,0.0,-2.8777,0.0,-3.2777,0.0,-3.4749,0.0,-3.7122,-3.6222,-3.284,-3.1847,0.0,-2.8329,-2.4315,0.0,0.0,-2.0572,-1.7698,-1.6403,-1.5069,-1.389,-1.2897,-1.3378,-1.3321,-1.3006,0.0,-2.1216,-2.5288,0.0,-2.9375,0.0,0.0,-3.1011,0.0,0.0,-3.3197,-3.335,-3.4641,-3.4801,-3.4277,-3.3598,-3.1928,-3.0322,-3.1308,-2.9165,-2.6589,-2.8139,-2.7347,-2.5766,-2.4911,-2.581,-2.5888,-2.1248,-2.0754,-2.0177,-1.5537,0.0,-1.5007,0.0,0.0,0.0,0.0,0.0,0.0,0.0,0.0,0.0,0.0,0.0,0.0,0.0,0.0,0.0,0.0,0.0,0.0,0.0,0.0,0.0,0.0,0.0,-2.2309,-2.2197,-2.1987,-2.187,-2.1908,-2.1482,-2.1273,-2.1325,-2.1242,-2.0987,-2.0603,-2.0269,-2.0237,-2.0399,-1.9901,-1.9966,-2.0366,-1.9901,-1.9562,-1.9266,-1.8365,-1.7799,-1.7604,-1.8186,-1.909,-1.9868,-1.5889,-1.477,-1.4279,-1.5752,-1.7225,-1.8717,-2.0222,-2.2358,-2.4686,0.0,-2.8812,-3.039,-3.2034,-3.4036,-3.5266,-3.5266,-3.7112,-3.677,-3.3205,-3.2907,0.0,0.0,-2.9074,-2.8475,-3.0801,0.0,0.0,0.0,-1.7005,-1.5089,-1.3649,-1.361,-1.3595,-1.3647,-1.5072,0.0,-2.5157,-2.6335,-3.0379,-3.5752,-3.3027,-3.1879,-3.1777,-3.1569,-3.1655,-3.2154,-3.4169,-3.4817,-3.4595,-3.3955,-3.3721,-3.3469,-3.2257,-3.1678,-3.1409,-3.083,-3.0627,-3.0104,-2.7808,-2.7176,-2.6451,-2.3364,-2.2084,-2.0798,-1.7711,0.0,-1.7411,0.0,0.0,0.0,0.0,0.0,0.0,0.0,0.0,0.0,0.0,0.0,0.0,0.0,0.0,0.0,0.0,0.0,0.0,0.0,0.0,0.0,0.0,0.0,-2.2421,-2.2216,-2.2216,-2.2142,-2.1939,-2.192,-2.1827,-2.1683,-2.1651,-2.1103,-2.0096,-2.0031,-1.9639,-1.9011,-1.8977,-1.8977,-1.9011,-1.8977,-1.8576,-1.8003,-1.7969,-1.7638,-1.7201,-1.7609,-1.8017,-1.8263,-1.5874,-1.636,-1.6993,-1.7387,-1.7872,-1.889,-2.0975,-2.2684,-2.5159,0.0,-3.0916,-3.3044,-3.6318,-3.7145,-3.7469,-3.7469,-3.797,0.0,0.0,0.0,0.0,-3.4404,-3.095,-2.9835,-3.1581,-2.576,0.0,-2.0949,0.0,-1.4726,-1.4332,-1.3735,-1.3454,-1.3522,0.0,0.0,-2.3578,-2.4976,-2.8537,-3.3171,-3.2427,-3.1512,-3.0711,-3.2169,-3.2303,-3.1938,-3.4024,-3.4731,-3.4629,-3.41,-3.3833,-3.3557,-3.2781,-3.2057,-3.1451,-3.1322,-3.0945,-3.0452,-2.9857,-2.974,-2.9069,-2.5989,-2.4841,-2.364,-2.0535,-2.0343,-2.039,0.0,0.0,0.0,0.0,0.0,0.0,0.0,0.0,0.0,0.0,0.0,0.0,0.0,0.0,0.0,0.0,0.0,0.0,0.0,0.0,0.0,0.0,0.0,0.0,-2.2494,-2.2555,-2.2494,-2.2285,-2.2037,-2.1819,-2.1683,-2.088,-2.0366,-2.0063,-1.9034,-1.87,-1.8977,-1.8476,-1.8543,-1.8977,-1.8465,-1.8172,-1.7935,-1.7407,-1.6925,-1.6682,-1.7857,-1.7687,-1.6915,-1.6782,-1.8182,-1.9348,-1.9024,-2.0154,-2.1565,-2.2842,-2.3692,-2.5609,-2.9543,-3.1346,-3.3193,-3.5662,-3.6874,-3.7504,-3.7504,-3.7504,0.0,-3.4926,0.0,0.0,-3.4317,-3.3229,-3.3022,-3.3895,-2.9499,0.0,-2.3038,0.0,0.0,-1.3981,-1.3489,-1.3219,0.0,0.0,-1.7587,-2.1705,-2.5777,-2.8698,-3.0758,-3.217,-3.2248,0.0,-3.2825,-3.3181,-3.3226,-3.4484,-3.485,-3.4758,-3.4489,-3.4324,-3.4108,-3.351,-3.2801,-3.2076,-3.1737,-3.1167,-3.0702,-3.0702,-3.0732,-3.0338,-2.8383,-2.7457,-2.6244,-2.3178,-2.2494,-2.2235,-2.1262,-2.1015,-2.0752,0.0,0.0,0.0,0.0,0.0,0.0,0.0,0.0,0.0,0.0,0.0,0.0,0.0,0.0,0.0,0.0,0.0,0.0,0.0,0.0,0.0,-2.2109,-2.1948,-2.1982,-2.2297,-2.1072,-2.0634,-2.1008,-2.0063,-1.9474,-1.9166,-1.8365,-1.8037,-1.807,-1.7672,-1.774,-1.8046,-1.7672,-1.7501,-1.7467,-1.7072,-1.6656,-1.6412,-1.7432,-1.7148,-1.6324,-1.8279,0.0,0.0,0.0,0.0,-2.5102,-2.5445,-2.5547,-2.6631,-2.9566,-3.1293,-3.2522,-3.3275,-3.5223,-3.6492,-3.6492,-3.6492,-3.5641,-3.3599,-3.5391,-3.5595,-3.3564,-3.5437,-3.6554,-3.6554,-3.4157,-3.0336,0.0,0.0,-1.8522,-1.3158,-1.3097,0.0,0.0,0.0,0.0,0.0,-2.7206,-2.9612,-2.9285,-3.2258,-3.3423,-3.3422,-3.3586,-3.4171,-3.4968,-3.5148,-3.5082,-3.4935,-3.4968,-3.4968,-3.4832,-3.4304,-3.3684,-3.2987,-3.2289,-3.1554,-3.0953,-3.0953,-3.091,-3.0732,-3.0129,-2.9532,-2.8326,-2.5532,-2.4343,-2.3768,-2.34,-2.1945,-2.1665,-2.4776,0.0,0.0,0.0,0.0,0.0,0.0,0.0,0.0,0.0,0.0,0.0,0.0,0.0,0.0,0.0,0.0,0.0,0.0,0.0,0.0,-2.16,-2.1119,-2.1145,-2.1873,-1.9771,-1.9104,-1.9823,-1.9182,-1.8566,-1.8003,-1.7901,-1.7501,-1.6908,-1.6908,-1.6908,-1.6908,-1.6908,-1.6908,-1.6908,-1.6908,-1.67,-1.6412,-1.6691,-1.6612,-1.628,-1.9769,0.0,0.0,0.0,0.0,-2.623,-2.8435,-2.9238,-3.0261,-3.213,-3.3666,-3.4933,-3.5766,-3.623,-3.6492,-3.6492,-3.6492,0.0,0.0,0.0,0.0,-3.6071,-3.646,-3.6723,-3.6908,-3.3967,-3.0251,0.0,-2.2211,-1.786,-1.295,-1.2878,-1.255,0.0,0.0,0.0,-2.299,-2.5725,0.0,-3.1462,-3.3021,-3.3561,-3.3512,-3.452,-3.4973,-3.5148,-3.518,-3.518,-3.518,-3.5326,-3.5294,-3.5133,-3.5014,-3.446,-3.3785,-3.3667,-3.2737,-3.1794,-3.1794,-3.1516,-3.0911,-2.9747,-2.9439,-2.8959,-2.7354,-2.6875,-2.6745,-2.6651,-2.6375,-2.5687,-2.4207,0.0,0.0,0.0,0.0,0.0,0.0,0.0,0.0,0.0,0.0,0.0,0.0,0.0,0.0,0.0,0.0,0.0,0.0,0.0,0.0,0.0,-2.1813,0.0,0.0,0.0,-1.9035,-1.8456,-1.8269,-1.8104,-1.7969,-1.7373,-1.7003,-1.6908,-1.6908,-1.6908,-1.6908,-1.6908,-1.6908,-1.6908,-1.6908,-1.6874,-1.6769,-1.6482,-1.6377,-1.6307,-2.1755,0.0,0.0,0.0,0.0,-2.9325,-3.1734,-3.3408,-3.4182,-3.3537,-3.3926,-3.461,-3.5486,-3.6551,-3.716,-3.7046,-3.7015,-3.6861,-3.6507,-3.6492,-3.6554,-3.6693,-3.6693,-3.68,-3.7015,-3.5506,-3.1687,-2.5415,-2.3544,-1.9027,-1.2125,-1.2098,-1.1851,-1.1601,0.0,-1.847,0.0,0.0,-2.9588,-3.1453,-3.3727,-3.4578,-3.4543,-3.5121,-3.5409,-3.5459,-3.5377,-3.5409,-3.5459,-3.5489,-3.5439,-3.5359,-3.5359,-3.4865,-3.425,-3.414,-3.3113,-3.1982,-3.1707,-3.1172,-3.0409,-2.919,-2.8935,-2.8712,-2.7723,-2.749,-2.749,-2.749,-2.749,-2.6699,-2.4076,-2.0742,0.0,0.0,0.0,0.0,0.0,0.0,0.0,0.0,0.0,0.0,0.0,0.0,0.0,0.0,0.0,0.0,0.0,0.0,0.0,0.0,0.0,0.0,-1.9587,0.0,-1.7799,-1.8029,-1.7642,-1.7432,-1.7407,-1.7072,-1.6908,-1.6908,-1.6908,-1.6908,-1.6908,-1.6908,-1.6908,-1.6908,-1.6908,-1.6908,-1.6874,-1.67,-1.6621,-1.6551,0.0,-2.4905,0.0,0.0,-3.017,-3.2253,-3.4145,-3.6391,-3.7088,-3.5021,-3.4534,-3.4632,-3.5304,-3.6912,-3.7816,-3.7592,-3.7579,-3.7348,-3.6827,-3.6796,-3.6814,-3.6816,-3.6816,-3.6848,-3.6877,-3.6877,-3.331,0.0,-2.519,-2.0597,-1.2583,-1.1897,-1.1934,-1.2744,-1.6924,-2.0003,-2.2405,-2.8056,-3.0949,-3.1941,-3.4488,-3.5504,-3.5504,-3.5504,-3.5587,-3.5638,-3.5554,-3.5572,-3.5638,-3.5572,-3.5522,-3.5504,-3.5504,-3.513,-3.4696,-3.4522,-3.3404,-3.215,-3.1719,-3.087,-2.9877,-2.8816,-2.8546,-2.832,-2.7656,-2.749,-2.749,-2.749,-2.749,-2.6673,-2.3889,-2.1656,-1.9848,0.0,0.0,0.0,0.0,0.0,0.0,0.0,0.0,0.0,0.0,0.0,0.0,0.0,0.0,0.0,0.0,0.0,0.0,0.0,0.0,-1.8053,-1.8612,0.0,-1.6667,-1.7559,-1.7114,-1.6908,-1.6908,-1.6908,-1.6908,-1.6908,-1.6908,-1.6908,-1.6908,-1.6908,-1.6908,-1.6908,-1.6908,-1.6908,-1.6908,-1.6908,-1.6908,-1.6839,-2.7912,0.0,-2.8123,-3.0165,-3.1905,-3.3354,-3.4412,-3.6359,-3.7688,-3.7555,-3.7509,-3.7506,-3.76,-3.7776,-3.7898,-3.7871,-3.7855,-3.784,-3.778,-3.7764,-3.759,-3.7175,-3.7145,-3.6965,-3.6569,-3.6554,-3.4277,0.0,0.0,-2.1649,-1.6407,-1.3494,-1.3992,-1.7379,-1.7865,-2.2038,-2.8756,-2.942,-3.1777,-3.507,-3.5385,-3.5504,-3.5504,-3.5504,-3.5504,-3.5537,-3.5504,-3.5504,-3.5522,-3.5638,-3.5589,-3.5504,-3.5504,-3.5459,-3.5415,-3.5367,-3.4105,-3.2723,-3.2664,-3.1277,-2.9662,-2.8944,-2.8643,-2.832,-2.7656,-2.749,-2.749,-2.749,-2.749,-2.6523,-2.3289,-2.4034,-2.3623,0.0,0.0,0.0,0.0,0.0,0.0,0.0,0.0,0.0,0.0,0.0,0.0,0.0,0.0,0.0,0.0,0.0,0.0,-1.8391,0.0,-1.6467,-1.5709,-1.6443,-1.6585,-1.62,-1.6669,-1.6908,-1.6908,-1.6908,-1.6908,-1.6908,-1.6908,-1.6908,-1.6908,-1.6908,-1.6908,-1.6908,-1.6908,-1.6908,-1.6908,-1.6908,-1.6908,-1.6908,-3.1222,-3.0812,-3.111,-3.3622,-3.4204,-3.5045,-3.7157,-3.8185,-3.8722,-3.8792,-3.8447,-3.8411,-3.8907,-3.8848,-3.8747,-3.858,-3.855,-3.8368,-3.791,-3.7879,-3.7874,-3.7813,-3.7798,-3.7543,-3.7045,-3.7029,-3.4756,-3.0094,-2.6627,-2.2405,-1.7561,-1.6284,-1.7531,-2.0986,-2.373,-2.6693,-2.9766,-3.2122,-3.4038,-3.5504,-3.5504,-3.5504,-3.5504,-3.5604,-3.5621,-3.5557,-3.5118,-3.4971,-3.4857,-3.4081,-3.4614,-3.5653,-3.5765,-3.5412,-3.4971,-3.4971,-3.3628,-3.2089,-3.1617,-3.0408,-2.9134,-2.841,-2.8006,-2.7723,-2.7523,-2.7436,-2.7403,-2.7503,-2.7356,-2.6795,-2.5488,-2.4339,-2.3573,-2.3518,0.0,0.0,0.0,0.0,0.0,0.0,0.0,0.0,0.0,0.0,0.0,0.0,0.0,0.0,0.0,0.0,0.0,-1.5726,0.0,-1.6759,-1.525,-1.6353,-1.6797,-1.6529,-1.6772,-1.6908,-1.6908,-1.6908,-1.6908,-1.6908,-1.6908,-1.6908,-1.6908,-1.6908,-1.6908,-1.6908,-1.6908,-1.6908,-1.6908,-1.6908,-1.6908,-1.6908,-3.3888,-3.3462,-3.3841,-3.6667,-3.656,-3.6862,-3.9062,-3.9388,-3.9388,-3.9388,-3.8985,-3.8936,-3.9529,-3.9496,-3.9337,-3.9118,-3.9123,-3.8912,-3.8379,-3.8348,-3.8326,-3.828,-3.8265,-3.8013,-3.7397,-3.7382,-3.5612,-3.1985,-2.855,-2.4982,-2.1394,-2.0237,-2.1529,-2.4942,-2.8145,-3.0248,-3.1537,-3.4307,-3.5504,-3.5504,-3.5504,-3.5439,-3.5326,-3.5172,-3.5124,-3.5041,-3.423,-3.3993,-3.3959,-3.3031,-3.3656,-3.4879,-3.4978,-3.4581,-3.4095,-3.4095,-3.2884,-3.1424,-3.0833,-2.9797,-2.8712,-2.7968,-2.7587,-2.7335,-2.7188,-2.7222,-2.7335,-2.7436,-2.7154,-2.6905,-2.6905,-2.4962,-2.3833,-2.5313,0.0,0.0,0.0,0.0,0.0,0.0,0.0,0.0,0.0,0.0,0.0,0.0,0.0,0.0,0.0,0.0,0.0,0.0,0.0,0.0,-1.5216,-1.6314,-1.6908,-1.6908,-1.6908,-1.6908,-1.6908,-1.6908,-1.6908,-1.6908,-1.6908,-1.6908,-1.6908,-1.6908,-1.6908,-1.6908,-1.6908,-1.6908,-1.6908,-1.6908,-1.6864,-1.683,-3.5769,-3.5675,-3.6123,-3.8858,-3.8869,-3.8662,-3.9307,-3.9388,-3.9388,-3.9388,-3.9373,-3.9373,-3.9409,-3.9388,-3.9388,-3.9409,-3.9409,-3.9409,-3.9394,-3.9394,-3.9095,-3.8442,-3.8412,-3.8063,-3.7404,-3.7389,-3.7075,-3.6435,-3.2451,-3.0171,-2.939,-2.5514,-2.58,-2.9525,-2.9585,-3.1763,-3.5429,-3.5489,-3.5504,-3.5504,-3.5504,-3.5261,-3.482,-3.4032,-3.3774,-3.3679,-3.2692,-3.2558,-3.2925,-3.289,-3.2925,-3.289,-3.2713,-3.2784,-3.2925,-3.2925,-3.196,-3.0887,-3.0909,-2.9749,-2.8476,-2.7945,-2.7635,-2.7323,-2.6586,-2.6871,-2.7302,-2.7302,-2.6985,-2.6679,-2.6679,-2.6505,-2.544,-2.2625,-2.4233,0.0,0.0,0.0,0.0,0.0,-1.6141,-1.4831,-1.8166,0.0,0.0,0.0,0.0,0.0,0.0,0.0,0.0,-1.6151,-1.5874,0.0,-1.5196,-1.6314,-1.6908,-1.6908,-1.6908,-1.6908,-1.6908,-1.6908,-1.6908,-1.6908,-1.6908,-1.6908,-1.6908,-1.6908,-1.6908,-1.6908,-1.6908,-1.6908,-1.6908,-1.6908,-1.676,-1.6638,-3.825,-3.8224,-3.8364,-3.9272,-3.9228,-3.9184,-3.9349,-3.9388,-3.9388,-3.9388,-3.9388,-3.9388,-3.9388,-3.9388,-3.9388,-3.9388,-3.9388,-3.9388,-3.9388,-3.9388,-3.932,-3.9095,-3.9095,-3.8781,-3.8093,-3.8078,-3.7764,-3.712,-3.3636,-3.1625,-3.0936,-2.9687,-3.0428,-3.2815,-3.3389,-3.4025,-3.4725,-3.5279,-3.5504,-3.5424,-3.4595,-3.4182,-3.3998,-3.3031,-3.2743,-3.2678,-3.1933,-3.1815,-3.1819,-3.1071,-3.0959,-3.1145,-3.0822,-3.1341,-3.2069,-3.2069,-3.1246,-3.0334,-3.0189,-2.9333,-2.8402,-2.8074,-2.7477,-2.6918,-2.6829,-2.6977,-2.7045,-2.693,-2.6679,-2.6461,-2.6371,-2.6302,-2.5968,-2.5029,-2.5592,-2.5797,-2.4851,0.0,0.0,0.0,-2.0037,-1.8996,0.0,-1.6364,0.0,0.0,0.0,0.0,0.0,0.0,0.0,0.0,-1.6168,0.0,-1.5021,-1.6248,-1.6908,-1.6908,-1.6908,-1.6908,-1.6908,-1.6908,-1.6908,-1.6908,-1.6908,-1.6908,-1.6908,-1.6908,-1.6908,-1.6908,-1.6908,-1.6908,-1.6908,-1.6908,-1.676,-1.6603,-3.9388,-3.9388,-3.9388,-3.9388,-3.9388,-3.9388,-3.9388,-3.9388,-3.9388,-3.9388,-3.9388,-3.9388,-3.9388,-3.9388,-3.9388,-3.9388,-3.9388,-3.9388,-3.9388,-3.9388,-3.9388,-3.9388,-3.9388,-3.9215,-3.8781,-3.8781,-3.8452,-3.7778,-3.5216,-3.3619,-3.2967,-3.2687,-3.3021,-3.3905,-3.4423,-3.4356,-3.3939,-3.4423,-3.4539,-3.4341,-3.3587,-3.3094,-3.2729,-3.1807,-3.1556,-3.1559,-3.0818,-3.0707,-3.0872,-3.0075,-2.9972,-3.0113,-2.9869,-3.0355,-3.102,-3.1095,-3.057,-2.9973,-2.9833,-2.9169,-2.8384,-2.8064,-2.7389,-2.6816,-2.6875,-2.6773,-2.6705,-2.6692,-2.6508,-2.6314,-2.6211,-2.6141,-2.6094,-2.6094,-2.5756,-2.5505,-2.5469,0.0,-2.3079,0.0,0.0,0.0,0.0,-1.7766,-1.6846,0.0,0.0,0.0,0.0,0.0,0.0,-1.5377,-1.7255,-1.756,-1.6127,-1.6913,-1.7284,-1.7128,-1.6972,-1.6908,-1.6908,-1.6908,-1.6908,-1.6908,-1.6908,-1.6908,-1.6908,-1.6908,-1.6908,-1.6908,-1.6908,-1.6908,-1.6908,-1.6908,-1.6726,-1.6508,-3.9388,-3.9388,-3.9388,-3.9388,-3.9388,-3.9388,-3.9388,-3.9388,-3.9388,-3.9388,-3.9388,-3.9388,-3.9388,-3.9388,-3.9388,-3.9388,-3.9388,-3.9388,-3.9388,-3.9388,-3.9388,-3.9388,-3.9388,-3.9388,-3.9388,-3.9388,-3.9095,-3.8467,-3.7072,-3.6089,-3.5421,-3.4605,-3.3874,-3.3178,-3.3206,-3.3178,-3.3108,-3.3178,-3.2989,-3.2593,-3.25,-3.2006,-3.1225,-3.0379,-3.0266,-3.038,-2.9431,-2.9521,-3.0049,-2.9869,-2.9792,-2.9792,-2.9792,-2.9792,-2.983,-3.0011,-2.9934,-2.9792,-2.9792,-2.9201,-2.8486,-2.7938,-2.7384,-2.6905,-2.6714,-2.643,-2.6305,-2.6589,-2.643,-2.6201,-2.6213,-2.6062,-2.591,-2.584,-2.5028,-2.4343,-2.4155,-2.3342,-2.1649,-1.8772,0.0,-1.8181,-1.775,-1.7686,-1.8405,0.0,0.0,0.0,0.0,0.0,-1.5499,-1.8881,-1.8813,-1.8499,-1.8081,-1.8081,-1.7926,-1.7541,-1.7165,-1.6972,-1.6945,-1.6919,-1.6901,-1.6874,-1.6874,-1.6874,-1.6874,-1.6874,-1.6874,-1.6874,-1.6874,-1.6874,-1.6874,-1.6908,-1.6665,-1.6342,-3.9388,-3.9388,-3.9388,-3.9388,-3.9388,-3.9388,-3.9388,-3.9388,-3.9388,-3.9388,-3.9388,-3.9388,-3.9388,-3.9388,-3.9388,-3.9388,-3.9388,-3.9388,-3.9388,-3.9388,-3.9388,-3.9388,-3.9388,-3.9388,-3.9388,-3.9388,-3.9298,-3.917,-3.879,-3.7986,-3.6736,-3.6064,-3.4824,-3.306,-3.3155,-3.2897,-3.2398,-3.2967,-3.2989,-3.2522,-3.1633,-3.0968,-3.0379,-2.9303,-2.9145,-2.9431,-2.9209,-2.9417,-2.9869,-2.983,-2.9792,-2.9792,-2.9792,-2.9792,-2.9792,-2.9869,-2.983,-2.9792,-2.9792,-2.9302,-2.8698,-2.8173,-2.7304,-2.6555,-2.6374,-2.6361,-2.6396,-2.6339,-2.6361,-2.6361,-2.6236,-2.6166,-2.5945,-2.5312,-2.4798,-2.428,-2.3649,-2.2733,-2.1749,-2.0775,-2.0182,-1.9853,-1.9723,-1.9713,-1.9134,0.0,0.0,0.0,0.0,-1.6731,-1.7104,-1.9033,-1.8844,-1.8415,-1.7886,-1.8007,-1.8036,-1.7972,-1.7844,-1.7669,-1.7358,-1.7188,-1.6945,-1.6682,-1.6682,-1.6577,-1.6447,-1.6612,-1.6586,-1.6447,-1.6612,-1.6682,-1.6682,-1.683,-1.6665,-1.6316,-3.9388,-3.9388,-3.9388,-3.9388,-3.9388,-3.9388,-3.9388,-3.9388,-3.9388,-3.9388,-3.9388,-3.9388,-3.9388,-3.9388,-3.9388,-3.9388,-3.9388,-3.9388,-3.9388,-3.9388,-3.9388,-3.9388,-3.9388,-3.9388,-3.9388,-3.9388,-3.9388,-3.9388,-3.862,-3.7713,-3.6671,-3.5597,-3.4014,-3.2167,-3.2235,-3.1816,-3.1044,-3.1426,-3.1389,-3.0944,-3.0342,-2.9807,-2.9369,-2.8724,-2.8736,-2.9091,-2.9091,-2.9417,-2.9792,-2.9792,-2.9792,-2.9792,-2.9792,-2.9792,-2.9792,-2.9792,-2.9792,-2.9792,-2.9792,-2.9365,-2.87,-2.7934,-2.7281,-2.6779,-2.6424,-2.643,-2.6465,-2.6374,-2.6141,-2.5921,-2.5828,-2.5488,-2.5087,-2.4671,-2.3941,-2.3335,-2.3033,-2.2004,-2.1261,-2.1207,-2.0897,-2.0666,-2.0618,-2.0626,-2.0002,-1.851,-1.8656,0.0,-1.8241,-1.8195,-1.859,-1.9427,-1.9163,-1.8813,-1.8497,-1.84,-1.8356,-1.8356,-1.8173,-1.8009,-1.7779,-1.7679,-1.7343,-1.6892,-1.6892,-1.6652,-1.6307,-1.6508,-1.6473,-1.6342,-1.6621,-1.6612,-1.6508,-1.6795,-1.6665,-1.6342,-3.9553,-3.9574,-3.9508,-3.9439,-3.9388,-3.9388,-3.9388,-3.9388,-3.9388,-3.9388,-3.9388,-3.9388,-3.9388,-3.9388,-3.9388,-3.9388,-3.9388,-3.9388,-3.9388,-3.9388,-3.9388,-3.9388,-3.9388,-3.9337,-3.9228,-3.9104,-3.9104,-3.9228,-3.7677,-3.6666,-3.6188,-3.4539,-3.2958,-3.1457,-3.1278,-3.0699,-2.9829,-2.9741,-2.9484,-2.9091,-2.9131,-2.8895,-2.851,-2.855,-2.8788,-2.9091,-2.9091,-2.9417,-2.9792,-2.9792,-2.9792,-2.9792,-2.9792,-2.9792,-2.9792,-2.9792,-2.9792,-2.9792,-2.9792,-2.9365,-2.8662,-2.777,-2.7406,-2.719,-2.6725,-2.6549,-2.6465,-2.6349,-2.5781,-2.5264,-2.5123,-2.4564,-2.3957,-2.3544,-2.2754,-2.2093,-2.191,-2.1015,-2.0545,-2.0906,-2.0892,-2.0855,-2.0914,-2.0799,-2.0644,-2.0303,-2.0225,-2.0108,-1.9863,-1.9676,-1.9636,-1.9863,-1.9499,-1.9301,-1.9301,-1.8971,-1.8806,-1.8797,-1.842,-1.8228,-1.8173,-1.8173,-1.7842,-1.7279,-1.7279,-1.6947,-1.6369,-1.6562,-1.65,-1.6246,-1.6621,-1.6586,-1.6342,-1.67,-1.6656,-1.6517,-4.0352,-4.0247,-4.0068,-3.9514,-3.9388,-3.9388,-3.9388,-3.9388,-3.9388,-3.9388,-3.9388,-3.9388,-3.9388,-3.9388,-3.9388,-3.9388,-3.9388,-3.9388,-3.9388,-3.9388,-3.9388,-3.9388,-3.9388,-3.9068,-3.8389,-3.7639,-3.7653,-3.8389,-3.7372,-3.6877,-3.674,-3.528,-3.3913,-3.257,-3.1637,-3.0875,-3.0367,-2.9905,-2.9484,-2.9091,-2.9275,-2.9,-2.851,-2.8685,-2.8882,-2.9091,-2.9091,-2.9417,-2.9792,-2.9792,-2.9792,-2.9792,-2.9792,-2.9792,-2.9792,-2.9792,-2.9792,-2.9792,-2.9792,-2.9365,-2.885,-2.8675,-2.7971,-2.7291,-2.7168,-2.6839,-2.6314,-2.5641,-2.5382,-2.5087,-2.4409,-2.4181,-2.3349,-2.1007,-2.1423,-2.1331,-1.9242,-1.9563,-2.0181,-2.0695,-2.0352,-2.0304,-2.0858,-2.0381,-2.0137,-2.0303,-1.9912,-1.9685,-1.9645,-1.9469,-1.9429,-1.9636,-1.9429,-1.9301,-1.9301,-1.9246,-1.921,-1.921,-1.9146,-1.8944,-1.8585,-1.8413,-1.812,-1.7712,-1.7712,-1.7312,-1.6639,-1.6838,-1.6509,-1.5903,-1.6132,-1.6272,-1.6316,-1.6377,-1.6691,-1.7063,-4.0995,-4.0935,-4.0831,-4.0531,-4.0472,-4.0472,-4.0472,-4.0172,-3.9948,-3.9948,-3.9634,-3.9388,-3.9388,-3.9388,-3.9388,-3.9388,-3.9388,-3.9388,-3.9388,-3.9388,-3.9388,-3.9388,-3.9388,-3.9031,-3.8202,-3.7333,-3.6958,-3.7112,-3.6292,-3.5762,-3.5467,-3.4345,-3.3232,-3.216,-3.1333,-3.0565,-2.9824,-2.926,-2.8961,-2.8776,-2.8895,-2.8736,-2.851,-2.8618,-2.8816,-2.9091,-2.9091,-2.9417,-2.9792,-2.9792,-2.9792,-2.9792,-2.9792,-2.9792,-2.9792,-2.9792,-2.9792,-2.9792,-2.9792,-2.9591,-2.9315,-2.8963,-2.8549,-2.8097,-2.7795,-2.696,-2.6174,-2.5804,-2.4847,-2.3936,-2.3559,-2.3154,-2.2484,-2.1315,-2.1431,-2.124,-2.0183,-2.0209,-2.0404,-2.0636,-2.0629,-2.0576,-2.0586,-2.0381,-2.0177,-1.9951,-1.9627,-1.9429,-1.9429,-1.9341,-1.9341,-1.9429,-1.9341,-1.9301,-1.9301,-1.9301,-1.9301,-1.9301,-1.9301,-1.9201,-1.9026,-1.8939,-1.8604,-1.8109,-1.8109,-1.776,-1.7199,-1.7357,-1.7052,-1.6455,-1.6759,-1.6775,-1.6665,-1.6874,-1.7176,-1.751,-4.1677,-4.1647,-4.1602,-4.1452,-4.1422,-4.1422,-4.1422,-4.095,-4.0576,-4.0427,-3.9963,-3.9553,-3.9439,-3.9388,-3.9388,-3.9388,-3.9388,-3.9388,-3.9388,-3.9388,-3.9388,-3.9388,-3.9017,-3.8449,-3.7644,-3.6738,-3.62,-3.5934,-3.5088,-3.4568,-3.4264,-3.339,-3.2561,-3.1754,-3.1213,-3.0497,-2.9629,-2.8967,-2.8691,-2.8679,-2.8638,-2.8618,-2.8578,-2.863,-2.8855,-2.917,-2.9131,-2.9417,-2.9792,-2.9792,-2.9792,-2.9792,-2.9792,-2.9792,-2.9792,-2.9792,-2.9792,-2.9792,-2.9792,-2.9792,-2.9691,-2.9239,-2.8988,-2.875,-2.8235,-2.7078,-2.6021,-2.5707,-2.4235,-2.2927,-2.2777,-2.2214,-2.1695,-2.1381,-2.1245,-2.1047,-2.0776,-2.0496,-2.0394,-2.0498,-2.0576,-2.0537,-2.0303,-2.0264,-2.0059,-1.9715,-1.9429,-1.9265,-1.9164,-1.9256,-1.9301,-1.9301,-1.9301,-1.9301,-1.9301,-1.9301,-1.9301,-1.9301,-1.9301,-1.9301,-1.9301,-1.9301,-1.9049,-1.8602,-1.8602,-1.8308,-1.7776,-1.7909,-1.7638,-1.717,-1.7397,-1.7347,-1.7141,-1.7395,-1.7657,-1.7954,-4.2455,-4.2336,-4.2126,-4.1527,-4.1422,-4.1422,-4.1422,-4.1339,-4.1085,-4.0487,-4.0367,-4.0098,-3.9484,-3.9388,-3.9388,-3.9388,-3.9388,-3.9388,-3.9388,-3.9388,-3.9388,-3.9388,-3.7919,-3.6699,-3.591,-3.5032,-3.4731,-3.5102,-3.4233,-3.3982,-3.4264,-3.339,-3.2772,-3.2314,-3.1779,-3.1254,-3.0687,-2.9677,-2.9244,-2.9237,-2.9102,-2.8922,-2.8803,-2.8961,-2.9197,-2.9341,-2.917,-2.9417,-2.9792,-2.9792,-2.9792,-2.9792,-2.9792,-2.9792,-2.9792,-2.9792,-2.9792,-2.9792,-2.9792,-2.9792,-2.9779,-2.9741,-2.9327,-2.875,-2.8235,-2.7078,-2.5768,-2.4487,-2.3582,-2.2777,-2.2035,-2.1845,-2.1204,-1.9337,-1.9991,-2.0198,-1.8668,-1.8904,-1.9504,-2.0236,-1.9487,-1.925,-2.0225,-1.9587,-1.932,-1.9824,-1.9499,-1.9146,-1.8779,-1.91,-1.9301,-1.9301,-1.9301,-1.9301,-1.9301,-1.9301,-1.9301,-1.9301,-1.9301,-1.9301,-1.9301,-1.9301,-1.9283,-1.9216,-1.9216,-1.8909,-1.8344,-1.8335,-1.8051,-1.7534,-1.7506,-1.7593,-1.7716,-1.7489,-1.7862,-1.8414,-4.3015,-4.297,-4.288,-4.2626,-4.2596,-4.2596,-4.2596,-4.2252,-4.1931,-4.1692,-4.1265,-4.0756,-4.0098,-3.955,-3.906,-3.8693,-3.8159,-3.7829,-3.7829,-3.7829,-3.8084,-3.8612,-3.7525,-3.6503,-3.5709,-3.4827,-3.4176,-3.3771,-3.3445,-3.3061,-3.2661,-3.2339,-3.2101,-3.1957,-3.1411,-3.1082,-3.085,-2.9749,-2.9304,-2.9256,-2.8875,-2.8776,-2.8791,-2.8882,-2.9118,-2.938,-2.9314,-2.9495,-2.9792,-2.9792,-2.9792,-2.9753,-2.9456,-2.9378,-2.9339,-2.9209,-2.8882,-2.8554,-2.8554,-2.8661,-2.8779,-2.8949,-2.8699,-2.8402,-2.8348,-2.7159,-2.5747,-2.4441,-2.324,-2.2283,-2.1706,-2.1502,-2.1237,-2.0576,-2.0565,-2.037,-1.9601,-1.9561,-1.9601,-1.9659,-1.9548,-1.9508,-1.9666,-1.9627,-1.9548,-1.9548,-1.9381,-1.9127,-1.8733,-1.8852,-1.9045,-1.9292,-1.9301,-1.9301,-1.9301,-1.9301,-1.9301,-1.9301,-1.9301,-1.9301,-1.9301,-1.9301,-1.9301,-1.9301,-1.9301,-1.917,-1.8955,-1.8955,-1.8688,-1.8268,-1.8267,-1.8277,-1.8277,-1.812,-1.8405,-1.8875,-4.329,-4.329,-4.329,-4.329,-4.3076,-4.2875,-4.2875,-4.2545,-4.2214,-4.1981,-4.1814,-4.1392,-4.0502,-3.9627,-3.8855,-3.826,-3.7424,-3.688,-3.688,-3.688,-3.7049,-3.7414,-3.683,-3.6122,-3.5305,-3.4716,-3.3924,-3.2988,-3.2988,-3.2568,-3.1705,-3.1705,-3.1705,-3.1693,-3.1332,-3.1163,-3.1103,-3.017,-2.9701,-2.9496,-2.9048,-2.8882,-2.8882,-2.8882,-2.9157,-2.9509,-2.9419,-2.956,-2.9792,-2.9792,-2.9792,-2.9714,-2.926,-2.9013,-2.8895,-2.8736,-2.8171,-2.7545,-2.7354,-2.7116,-2.7052,-2.7614,-2.7654,-2.7567,-2.7495,-2.6502,-2.5274,-2.4054,-2.2864,-2.1865,-2.1391,-2.1195,-2.1123,-2.123,-2.0735,-2.0333,-2.0183,-1.985,-1.9548,-1.9341,-1.9429,-1.9469,-1.9301,-1.9499,-1.9548,-1.9301,-1.9301,-1.9182,-1.8907,-1.8894,-1.9005,-1.9283,-1.942,-1.942,-1.9301,-1.9301,-1.9301,-1.9301,-1.9301,-1.9301,-1.9301,-1.9301,-1.9301,-1.9301,-1.9301,-1.9301,-1.9301,-1.9301,-1.9146,-1.89,-1.8882,-1.895,-1.8965,-1.8755,-1.8954,-1.9305,-4.329,-4.329,-4.329,-4.329,-4.2578,-4.199,-4.199,-4.199,-4.1758,-4.1094,-4.1794,-4.1863,-4.0561,-3.9604,-3.8832,-3.8223,-3.7386,-3.6894,-3.688,-3.688,-3.6503,-3.5709,-3.5709,-3.5264,-3.4397,-3.4397,-3.3924,-3.2988,-3.2988,-3.2568,-3.1705,-3.1705,-3.1705,-3.1705,-3.1705,-3.1705,-3.1669,-3.1139,-3.0567,-3.0079,-2.9731,-2.9398,-2.9091,-2.9091,-2.9378,-2.9753,-2.9509,-2.956,-2.9792,-2.9792,-2.9792,-2.9714,-2.926,-2.8816,-2.8471,-2.8471,-2.7799,-2.6942,-2.634,-2.5305,-2.4671,-2.5817,-2.6295,-2.6266,-2.547,-2.4884,-2.422,-2.3204,-2.2381,-2.16,-2.1023,-2.0905,-2.0828,-2.0644,-2.0216,-1.9902,-1.9902,-1.939,-1.9073,-1.9262,-1.8962,-1.8851,-1.9262,-1.9112,-1.9073,-1.9262,-1.9292,-1.9292,-1.9301,-1.9294,-1.9295,-1.9323,-1.9706,-1.9696,-1.9301,-1.9301,-1.9301,-1.9301,-1.9301,-1.9301,-1.9301,-1.9301,-1.9301,-1.9301,-1.9301,-1.9301,-1.9301,-1.9301,-1.9301,-1.9304,-1.9295,-1.9554,-1.9852,-1.9312,-1.9412,-1.9696,-4.325,-4.329,-4.329,-4.329,-4.2578,-4.199,-4.199,-4.1421,-4.0958,-4.0731,-4.0954,-4.082,-3.9922,-3.9101,-3.8186,-3.7107,-3.6252,-3.5596,-3.5168,-3.5142,-3.4896,-3.433,-3.4883,-3.48,-3.3924,-3.3586,-3.3288,-3.2988,-3.2711,-3.2288,-3.1705,-3.1705,-3.1705,-3.1717,-3.1849,-3.1849,-3.1669,-3.13,-3.0725,-3.0037,-2.9579,-2.925,-2.9091,-2.9091,-2.9378,-2.9792,-2.9702,-2.974,-2.9792,-2.9792,-2.9792,-2.9675,-2.8907,-2.7296,-2.583,-2.664,-2.5902,-2.4755,-2.4563,-2.393,-2.3627,-2.5031,-2.5326,-2.5304,-2.5196,-2.4913,-2.4388,-2.3175,-2.2379,-2.1706,-2.1203,-2.0605,-2.0167,-2.0137,-1.9745,-1.946,-1.946,-1.9301,-1.9222,-1.9301,-1.9183,-1.9152,-1.9301,-1.9271,-1.9222,-1.9301,-1.9045,-1.9125,-1.9687,-1.9448,-1.9564,-2.0196,-2.0333,-2.0333,-2.0206,-1.9618,-1.9301,-1.9301,-1.9301,-1.9301,-1.9301,-1.9301,-1.9301,-1.9301,-1.9301,-1.9301,-1.9301,-1.9301,-1.9301,-1.9344,-1.9631,-1.9799,-1.9879,-1.9667,-1.9689,-1.973,-4.1906,-4.2085,-4.2345,-4.2699,-4.1713,-4.1029,-4.138,-4.0646,-4.0029,-4.0029,-4.0375,-4.0322,-3.9662,-3.8858,-3.7881,-3.6618,-3.5544,-3.4789,-3.4424,-3.4397,-3.4105,-3.3458,-3.394,-3.4053,-3.3713,-3.3245,-3.2988,-3.2988,-3.2593,-3.2169,-3.1705,-3.1705,-3.1749,-3.1805,-3.195,-3.1981,-3.1957,-3.176,-3.1187,-3.0367,-3.0039,-2.9605,-2.9236,-2.9236,-2.9456,-2.9792,-2.9792,-2.9792,-2.9792,-2.9792,-2.9326,-2.8581,-2.7701,-2.608,-2.4627,-2.5348,-2.4573,-2.3541,-2.3671,-2.3125,-2.2784,-2.379,-2.4039,-2.4039,-2.4168,-2.4168,-2.3841,-2.2938,-2.2399,-2.1902,-2.1188,-2.0598,-2.0101,-1.9813,-1.9587,-1.939,-1.9301,-1.939,-1.939,-1.9301,-1.9301,-1.9301,-1.9301,-1.9301,-1.9301,-1.9301,-1.9081,-1.9171,-1.9648,-1.9763,-1.9976,-2.0323,-2.0654,-2.076,-2.0605,-2.0089,-1.9736,-1.9539,-1.9539,-1.946,-1.9301,-1.9301,-1.9301,-1.9301,-1.9301,-1.9301,-1.9301,-1.9301,-1.9381,-1.9559,-1.9812,-2.0099,-2.0401,-2.0169,-2.0041,-1.9955,-3.9887,-4.0218,-4.0802,-4.1728,-4.0375,-3.9505,-4.0332,-3.9681,-3.9077,-3.9077,-3.9826,-4.0136,-3.9536,-3.8728,-3.7779,-3.6574,-3.5156,-3.4356,-3.4397,-3.4356,-3.3937,-3.3043,-3.2988,-3.3159,-3.3598,-3.3116,-3.2902,-3.2957,-3.255,-3.2125,-3.1705,-3.1705,-3.1805,-3.1994,-3.2038,-3.2169,-3.24,-3.2431,-3.1816,-3.0778,-3.0778,-3.0235,-2.9419,-2.9419,-2.956,-2.9792,-2.9792,-2.9792,-2.9792,-2.9702,-2.845,-2.6726,-2.6016,-2.5073,-2.4284,-2.437,-2.3714,-2.3008,-2.328,-2.274,-2.2141,-2.2353,-2.2574,-2.275,-2.2794,-2.2969,-2.2984,-2.2646,-2.2496,-2.2172,-2.1132,-2.0716,-2.0353,-1.9671,-1.9597,-1.9557,-1.9341,-1.9478,-1.9518,-1.9341,-1.9301,-1.9301,-1.9301,-1.9301,-1.9301,-1.9301,-1.9301,-1.9341,-1.942,-2.0167,-2.045,-2.0098,-2.0848,-2.1079,-2.0722,-2.0722,-2.045,-1.9981,-1.9902,-1.9706,-1.9341,-1.9301,-1.9301,-1.9301,-1.9301,-1.9301,-1.9341,-1.9341,-1.9578,-1.9981,-2.002,-2.0498,-2.1155,-2.0702,-2.0527,-2.0385,-3.9901,-3.9988,-4.0218,-4.0802,-3.9942,-3.9285,-3.9461,-3.8774,-3.8181,-3.8181,-3.8362,-3.8445,-3.8281,-3.7664,-3.7008,-3.627,-3.476,-3.4021,-3.4397,-3.405,-3.3586,-3.3031,-3.2988,-3.2914,-3.268,-3.2232,-3.2145,-3.2519,-3.2069,-3.1805,-3.1705,-3.1705,-3.1805,-3.1994,-3.2213,-3.2356,-3.2388,-3.255,-3.1932,-3.0778,-3.0778,-3.0235,-2.9419,-2.9419,-2.956,-2.9792,-2.9792,-2.9792,-2.9714,-2.9,-2.7105,-2.5094,-2.5641,-2.4168,-2.2467,-2.3193,-2.2765,-2.2033,-2.2078,-2.1954,-2.1874,-2.2309,-2.2441,-2.253,-2.275,-2.2969,-2.3071,-2.2974,-2.2572,-2.2015,-2.1269,-2.0712,-2.0161,-1.9454,-1.9518,-1.9566,-1.9557,-1.9557,-1.9566,-1.9557,-1.939,-1.9301,-1.9301,-1.9301,-1.9301,-1.9301,-1.9301,-1.9618,-2.0284,-2.0489,-2.0838,-2.1377,-2.1578,-2.1617,-2.153,-2.153,-2.1185,-2.045,-2.0098,-1.9863,-1.9745,-1.942,-1.9301,-1.9301,-1.9301,-1.946,-1.9784,-1.9784,-2.0059,-2.0489,-2.0809,-2.1051,-2.1193,-2.1029,-2.0941,-2.0819,-3.7834,-3.8243,-3.8796,-3.9461,-3.9015,-3.8715,-3.9121,-3.8472,-3.7808,-3.7551,-3.7749,-3.7808,-3.7564,-3.7475,-3.7077,-3.6188,-3.4624,-3.3797,-3.4063,-3.3628,-3.3172,-3.2711,-3.2711,-3.255,-3.2213,-3.1893,-3.1937,-3.24,-3.1937,-3.1761,-3.1849,-3.1849,-3.2025,-3.2332,-3.2463,-3.2593,-3.2723,-3.2523,-3.1925,-3.1071,-3.0822,-3.0254,-2.9599,-2.9599,-2.9702,-2.9792,-2.9792,-2.9546,-2.8961,-2.7637,-2.5953,-2.4426,-2.4467,-2.3236,-2.1776,-2.229,-2.2069,-2.1696,-2.1696,-2.1696,-2.1785,-2.1998,-2.2176,-2.2353,-2.2715,-2.2969,-2.3057,-2.2969,-2.2708,-2.2299,-2.1792,-2.1231,-2.0633,-1.9857,-1.9805,-1.978,-1.9497,-1.9557,-1.9557,-1.9469,-1.9341,-1.9301,-1.9301,-1.9301,-1.9301,-1.9301,-1.9301,-1.9578,-2.0216,-2.0489,-2.0876,-2.1502,-2.1693,-2.1807,-2.1807,-2.1807,-2.1568,-2.1185,-2.0731,-2.0294,-1.9902,-1.9666,-1.946,-1.9301,-1.9301,-1.9548,-1.9902,-1.9902,-2.0294,-2.0925,-2.1128,-2.132,-2.1482,-2.1463,-2.13,-2.101,-3.562,-3.6275,-3.7142,-3.8115,-3.7985,-3.8057,-3.8836,-3.8349,-3.7703,-3.7168,-3.7505,-3.7564,-3.7015,-3.7291,-3.702,-3.5926,-3.4444,-3.3586,-3.3586,-3.3172,-3.2754,-3.2388,-3.2431,-3.23,-3.1994,-3.1893,-3.1981,-3.2344,-3.1937,-3.1849,-3.1994,-3.2038,-3.2288,-3.2711,-3.2711,-3.2853,-3.3086,-3.2566,-3.1989,-3.1348,-3.0922,-3.0369,-2.9792,-2.9792,-2.9792,-2.9792,-2.9624,-2.8922,-2.7799,-2.6235,-2.4999,-2.4061,-2.3333,-2.2441,-2.1696,-2.1696,-2.1696,-2.1696,-2.1696,-2.1696,-2.1687,-2.1785,-2.1919,-2.2185,-2.2583,-2.2838,-2.2969,-2.2838,-2.2759,-2.2581,-2.2169,-2.1773,-2.1193,-2.029,-2.0201,-2.0012,-1.9445,-1.9478,-1.9557,-1.939,-1.9301,-1.9301,-1.9301,-1.9301,-1.9301,-1.9301,-1.9341,-1.9578,-2.002,-2.045,-2.0886,-2.1282,-2.1617,-2.1807,-2.1807,-2.1807,-2.1807,-2.1807,-2.1474,-2.0886,-2.0137,-2.0059,-1.9784,-1.9381,-1.9381,-1.9578,-1.9902,-1.9981,-2.0498,-2.1215,-2.1282,-2.1512,-2.1807,-2.1807,-2.1559,-2.1166,-3.5656,-3.5716,-3.6133,-3.7095,-3.7248,-3.74,-3.7965,-3.7992,-3.7703,-3.7168,-3.7155,-3.7028,-3.6546,-3.6022,-3.5506,-3.4851,-3.3753,-3.3074,-3.3074,-3.2723,-3.2475,-3.24,-3.255,-3.2463,-3.1994,-3.2213,-3.2213,-3.2038,-3.1981,-3.1994,-3.1994,-3.2257,-3.2475,-3.2711,-3.2711,-3.2853,-3.3111,-3.2993,-3.2353,-3.1386,-3.1311,-3.0683,-2.9792,-2.9792,-2.9792,-2.9714,-2.8961,-2.7597,-2.6069,-2.542,-2.4339,-2.3256,-2.3135,-2.2441,-2.1696,-2.1696,-2.1696,-2.1696,-2.1696,-2.1696,-2.1785,-2.2008,-2.2052,-2.2097,-2.2185,-2.2353,-2.2574,-2.2759,-2.2618,-2.2265,-2.171,-2.1549,-2.115,-2.0094,-2.0088,-2.0062,-1.9622,-1.9566,-1.9597,-1.9557,-1.9429,-1.9301,-1.9301,-1.9301,-1.9301,-1.9301,-1.9618,-2.002,-2.0489,-2.0886,-2.131,-2.1693,-2.1769,-2.1807,-2.1807,-2.1807,-2.1807,-2.1807,-2.1731,-2.1464,-2.1012,-2.0644,-2.0255,-1.9824,-1.9824,-1.9863,-1.9942,-2.0333,-2.077,-2.1244,-2.1578,-2.1769,-2.1807,-2.1807,-2.1766,-2.1652,-3.556,-3.562,-3.5764,-3.6168,-3.6734,-3.7214,-3.7611,-3.7551,-3.7307,-3.6922,-3.6781,-3.6499,-3.5991,-3.5667,-3.5269,-3.4876,-3.3878,-3.3208,-3.3081,-3.2649,-3.24,-3.24,-3.2475,-3.2463,-3.2376,-3.2388,-3.2388,-3.2376,-3.23,-3.2288,-3.2376,-3.2506,-3.268,-3.2939,-3.2939,-3.2982,-3.3056,-3.2729,-3.2127,-3.1361,-3.1072,-3.0495,-2.9792,-2.9792,-2.9507,-2.887,-2.7209,-2.6265,-2.5652,-2.4691,-2.3983,-2.3493,-2.3493,-2.2828,-2.2087,-2.2087,-2.1909,-2.1696,-2.1696,-2.1696,-2.1741,-2.183,-2.1874,-2.1919,-2.2052,-2.2043,-2.2097,-2.2362,-2.2318,-2.2164,-2.1889,-2.1729,-2.1394,-2.0686,-2.0444,-2.0241,-1.9835,-1.9577,-1.9429,-1.9429,-1.9341,-1.9301,-1.9301,-1.9301,-1.9381,-1.9618,-1.9784,-2.0216,-2.0886,-2.1089,-2.1397,-2.1807,-2.1807,-2.1807,-2.1807,-2.1807,-2.1807,-2.1807,-2.1807,-2.1578,-2.1205,-2.1002,-2.0693,-2.0294,-2.0294,-2.0411,-2.0654,-2.0848,-2.1156,-2.154,-2.1731,-2.1807,-2.1838,-2.2097,-2.219,-2.2159]},{"header":{"parameterUnit":"m.s-1","parameterCategory":1,"la1":30.6,"la2":28.766,"lo1":-90.7593,"lo2":-88.6598,"dx":0.0162,"dy":0.0183,"nx":116,"ny":114,"refTime":"2022-12-08T06:00:00:Z","depth":0,"parameterNumber":3,"parameterNumberName":"V-component_of_WINDS"},"data":[0.0,0.0,0.0,0.0,0.0,0.0,0.0,0.0,0.0,0.0,0.0,0.0,0.0,0.0,0.0,0.0,0.0,0.0,0.0,0.0,0.0,0.0,0.0,0.0,0.0,0.0,0.0,0.0,0.0,0.0,0.0,0.0,0.0,0.0,0.0,0.0,0.0,0.0,0.0,0.0,0.0,0.0,0.0,0.0,0.0,0.0,0.0,0.0,0.0,0.0,0.0,0.0,0.0,0.0,0.0,0.0,0.0,0.0,0.0,0.0,0.0,0.0,0.0,0.0,0.0,0.0,0.0,0.0,0.0,0.0,0.0,0.0,0.0,0.0,0.0,0.0,0.0,0.0,0.0,0.0,0.0,0.0,0.0,0.0,0.0,0.0,0.0,0.0,0.0,0.0,0.0,0.0,0.0,0.0,0.0,0.0,0.0,0.0,0.0,0.0,0.0,0.0,0.0,0.0,0.0,0.0,0.0,0.0,0.0,0.0,0.0,0.0,0.0,0.0,0.0,0.0,0.0,0.0,0.0,0.0,0.0,0.0,0.0,0.0,0.0,0.0,0.0,0.0,0.0,0.0,0.0,0.0,0.0,0.0,0.0,0.0,0.0,0.0,0.0,0.0,0.0,0.0,0.0,0.0,0.0,0.0,0.0,0.0,0.0,0.0,0.0,0.0,0.0,0.0,0.0,0.0,0.0,0.0,0.0,0.0,0.0,0.0,0.0,0.0,0.0,0.0,0.0,0.0,0.0,0.0,0.0,0.0,0.0,0.0,0.0,0.0,0.0,0.0,0.0,0.0,0.0,0.0,0.0,0.0,0.0,0.0,0.0,0.0,0.0,0.0,0.0,0.0,0.0,0.0,0.0,0.0,0.0,0.0,0.0,0.0,0.0,0.0,0.0,0.0,0.0,0.0,0.0,0.0,0.0,0.0,0.0,0.0,0.0,0.0,0.0,0.0,0.0,0.0,0.0,0.0,0.0,0.0,0.0,0.0,0.0,0.0,0.0,0.0,0.0,0.0,0.0,0.0,0.0,0.0,0.0,0.0,0.0,0.0,0.0,0.0,0.0,0.0,0.0,0.0,0.0,0.0,0.0,0.0,0.0,0.0,0.0,0.0,0.0,0.0,0.0,0.0,0.0,0.0,0.0,0.0,0.0,0.0,0.0,0.0,0.0,0.0,0.0,0.0,0.0,0.0,0.0,0.0,0.0,0.0,0.0,0.0,0.0,0.0,0.0,0.0,0.0,0.0,0.0,0.0,0.0,0.0,0.0,0.0,0.0,0.0,0.0,0.0,0.0,0.0,0.0,0.0,0.0,0.0,0.0,0.0,0.0,0.0,0.0,0.0,0.0,0.0,0.0,0.0,0.0,0.0,0.0,0.0,0.0,0.0,0.0,0.0,0.0,0.0,0.0,0.0,0.0,0.0,0.0,0.0,0.0,0.0,0.0,0.0,0.0,0.0,0.0,0.0,0.0,0.0,0.0,0.0,0.0,0.0,0.0,0.0,0.0,0.0,0.0,0.0,0.0,0.0,0.0,0.0,0.0,0.0,0.0,0.0,0.0,0.0,0.0,0.0,0.0,0.0,0.0,0.0,0.0,0.0,0.0,0.0,0.0,0.0,0.0,0.0,0.0,0.0,0.0,0.0,0.0,0.0,0.0,0.0,0.0,0.0,0.0,0.0,0.0,0.0,0.0,0.0,0.0,0.0,0.0,0.0,0.0,0.0,0.0,0.0,0.0,0.0,0.0,0.0,0.0,0.0,0.0,0.0,0.0,0.0,0.0,0.0,0.0,0.0,0.0,0.0,0.0,0.0,0.0,0.0,0.0,0.0,0.0,0.0,0.0,0.0,0.0,0.0,0.0,0.0,0.0,0.0,0.0,0.0,0.0,0.0,0.0,0.0,0.0,0.0,0.0,0.0,0.0,0.0,0.0,0.0,0.0,0.0,0.0,0.0,0.0,0.0,0.0,0.0,0.0,0.0,0.0,0.0,0.0,0.0,0.0,0.0,0.0,0.0,0.0,0.0,0.0,0.0,0.0,0.0,0.0,0.0,0.0,0.0,0.0,0.0,0.0,0.0,0.0,0.0,0.0,0.0,0.0,0.0,0.0,0.0,0.0,0.0,0.0,0.0,0.0,0.0,0.0,0.0,0.0,0.0,0.0,0.0,0.0,0.0,0.0,0.0,0.0,0.0,0.0,0.0,0.0,0.0,0.0,0.0,0.0,0.0,0.0,0.0,0.0,0.0,0.0,0.0,0.0,0.0,0.0,0.0,0.0,0.0,0.0,0.0,0.0,0.0,0.0,0.0,0.0,0.0,0.0,0.0,0.0,0.0,0.0,0.0,0.0,0.0,0.0,0.0,0.0,0.0,0.0,0.0,0.0,0.0,0.0,0.0,0.0,0.0,0.0,0.0,0.0,0.0,0.0,0.0,0.0,0.0,0.0,0.0,0.0,0.0,0.0,0.0,0.0,0.0,0.0,0.0,0.0,0.0,0.0,0.0,0.0,0.0,0.0,0.0,0.0,0.0,0.0,0.0,0.0,0.0,0.0,0.0,0.0,0.0,0.0,0.0,0.0,0.0,0.0,0.0,0.0,0.0,0.0,0.0,0.0,0.0,0.0,0.0,0.0,0.0,0.0,0.0,0.0,0.0,0.0,0.0,0.0,0.0,0.0,0.0,0.0,0.0,0.0,0.0,0.0,0.0,0.0,0.0,0.0,0.0,0.0,0.0,0.0,0.0,0.0,0.0,0.0,0.0,0.0,0.0,0.0,0.0,0.0,0.0,0.0,0.0,0.0,0.0,0.0,0.0,0.0,0.0,0.0,0.0,0.0,0.0,0.0,0.0,0.0,0.0,0.0,0.0,0.0,0.0,0.0,0.0,0.0,0.0,0.0,0.0,0.0,0.0,0.0,0.0,0.0,0.0,0.0,0.0,0.0,0.0,0.0,0.0,0.0,0.0,0.0,0.0,0.0,0.0,0.0,0.0,0.0,0.0,0.0,0.0,0.0,0.0,0.0,0.0,0.0,0.0,0.0,0.0,0.0,0.0,0.0,0.0,0.0,0.0,0.0,0.0,0.0,0.0,0.0,0.0,0.0,0.0,0.0,0.0,0.0,0.0,0.0,0.0,0.0,0.0,0.0,0.0,0.0,0.0,0.0,0.0,0.0,0.0,0.0,0.0,0.0,0.0,0.0,0.0,0.0,0.0,0.0,0.0,0.0,0.0,0.0,0.0,0.0,0.0,0.0,0.0,0.0,0.0,0.0,0.0,0.0,0.0,0.0,0.0,0.0,0.0,0.0,0.0,0.0,0.0,0.0,0.0,0.0,0.0,0.0,0.0,0.0,0.0,0.0,0.0,0.0,0.0,0.0,0.0,0.0,0.0,0.0,0.0,0.0,0.0,0.0,0.0,0.0,0.0,0.0,0.0,0.0,0.0,0.0,0.0,0.0,0.0,0.0,0.0,0.0,0.0,0.0,0.0,0.0,0.0,0.0,0.0,0.0,0.0,0.0,0.0,0.0,0.0,0.0,0.0,0.0,0.0,0.0,0.0,0.0,0.0,0.0,0.0,0.0,0.0,0.0,0.0,0.0,0.0,0.0,0.0,0.0,0.0,0.0,0.0,0.0,0.0,0.0,0.0,0.0,0.0,0.0,0.0,0.0,0.0,0.0,0.0,0.0,0.0,0.0,0.0,0.0,0.0,0.0,0.0,0.0,0.0,0.0,0.0,0.0,0.0,0.0,0.0,0.0,0.0,0.0,0.0,0.0,0.0,0.0,0.0,0.0,0.0,0.0,0.0,0.0,0.0,0.0,0.0,0.0,0.0,0.0,0.0,0.0,0.0,0.0,0.0,0.0,0.0,0.0,0.0,0.0,0.0,0.0,0.0,0.0,0.0,0.0,0.0,0.0,0.0,0.0,0.0,0.0,0.0,0.0,0.0,0.0,0.0,0.0,0.0,0.0,0.0,0.0,0.0,0.0,0.0,0.0,0.0,0.0,0.0,0.0,0.0,0.0,0.0,0.0,0.0,0.0,0.0,0.0,0.0,0.0,0.0,0.0,0.0,0.0,0.0,0.0,0.0,0.0,0.0,0.0,0.0,0.0,0.0,0.0,0.0,0.0,0.0,0.0,0.0,0.0,0.0,0.0,0.0,0.0,0.0,0.0,0.0,0.0,0.0,0.0,0.0,0.0,0.0,0.0,0.0,0.0,0.0,0.0,0.0,0.0,0.0,0.0,0.0,0.0,0.0,0.0,0.0,0.0,0.0,0.0,0.0,0.0,0.0,0.0,0.0,0.0,0.0,0.0,0.0,0.0,0.0,0.0,0.0,0.0,0.0,0.0,0.0,0.0,0.0,0.0,0.0,0.0,0.0,0.0,0.0,0.0,0.0,0.0,0.0,0.0,0.0,0.0,0.0,0.0,0.0,0.0,0.0,0.0,0.0,0.0,0.0,0.0,0.0,0.0,0.0,0.0,0.0,0.0,0.0,0.0,0.0,0.0,0.0,0.0,0.0,0.0,0.0,0.0,0.0,0.0,0.0,0.0,0.0,0.0,0.0,0.0,0.0,0.0,0.0,0.0,0.0,0.0,0.0,0.0,0.0,0.0,0.0,0.0,0.0,0.0,0.0,0.0,0.0,0.0,0.0,0.0,0.0,0.0,0.0,0.0,0.0,0.0,0.0,0.0,0.0,0.0,0.0,0.0,0.0,0.0,0.0,0.0,0.0,0.0,0.0,0.0,0.0,0.0,0.0,0.0,0.0,0.0,0.0,0.0,0.0,0.0,0.0,0.0,0.0,0.0,0.0,0.0,0.0,0.0,0.0,0.0,0.0,0.0,0.0,0.0,0.0,0.0,0.0,0.0,0.0,0.0,0.0,0.0,0.0,0.0,0.0,0.0,0.0,0.0,0.0,0.0,0.0,0.0,0.0,0.0,0.0,0.0,0.0,0.0,0.0,0.0,0.0,0.0,0.0,0.0,0.0,0.0,0.0,0.0,0.0,0.0,0.0,0.0,0.0,0.0,0.0,0.0,0.0,0.0,0.0,0.0,0.0,0.0,0.0,0.0,0.0,0.0,0.0,0.0,0.0,0.0,0.0,0.0,0.0,0.0,0.0,0.0,0.0,0.0,0.0,0.0,0.0,0.0,0.0,0.0,0.0,0.0,0.0,0.0,0.0,0.0,0.0,0.0,0.0,0.0,0.0,0.0,0.0,0.0,0.0,0.0,0.0,0.0,0.0,0.0,0.0,0.0,0.0,0.0,0.0,0.0,0.0,0.0,0.0,0.0,0.0,0.0,0.0,0.0,0.0,0.0,0.0,0.0,0.0,0.0,0.0,0.0,0.0,0.0,0.0,0.0,0.0,0.0,0.0,0.0,0.0,0.0,0.0,0.0,0.0,0.0,0.0,0.0,0.0,0.0,0.0,0.0,0.0,0.0,0.0,0.0,0.0,0.0,0.0,0.0,0.0,0.0,0.0,0.0,0.0,0.0,0.0,0.0,0.0,0.0,0.0,0.0,0.0,0.0,0.0,0.0,0.0,0.0,0.0,0.0,0.0,0.0,0.0,0.0,0.0,0.0,0.0,0.0,0.0,0.0,0.0,0.0,0.0,0.0,0.0,0.0,0.0,0.0,0.0,0.0,0.0,0.0,0.0,0.0,0.0,0.0,0.0,0.0,0.0,0.0,0.0,0.0,0.0,0.0,0.0,0.0,0.0,0.0,0.0,0.0,0.0,0.0,0.0,0.0,0.0,0.0,0.0,0.0,0.0,0.0,0.0,0.0,0.0,0.0,0.0,0.0,0.0,0.0,0.0,0.0,0.0,0.0,0.0,0.0,0.0,0.0,0.0,0.0,0.0,0.0,0.0,0.0,0.0,0.0,0.0,0.0,0.0,0.0,0.0,0.0,0.0,0.0,0.0,0.0,0.0,0.0,0.0,0.0,0.0,0.0,0.0,0.0,0.0,0.0,0.0,0.0,0.0,0.0,0.0,0.0,0.0,0.0,0.0,0.0,0.0,0.0,0.0,0.0,0.0,0.0,0.0,0.0,0.0,0.0,0.0,0.0,0.0,0.0,0.0,0.0,0.0,0.0,0.0,0.4488,0.3754,0.0,0.0,0.0,0.0,0.0,0.0,0.0,0.0,0.0,0.0,0.0,0.0,0.0,0.0,0.0,0.0,0.0,0.0,0.0,0.0,0.0,0.0,0.0,0.3926,0.4196,0.446,0.466,0.0,0.0,0.0,0.0,0.0,0.0,0.0,0.0,0.0,0.407,0.4658,0.5218,0.6282,0.7784,0.7233,0.6316,0.5158,0.0,0.0,0.0,0.0,0.0,0.0,0.0,0.0,0.0,0.0,0.0,0.0,0.0,0.0,0.0,0.0,0.0,0.0,0.0,0.0,0.0,0.0,0.0,0.0,0.0,0.0,0.0,0.0,0.0,0.0,0.0,0.0,0.0,0.0,0.0,0.0,0.0,0.0,0.0,0.0,0.0,0.0,0.0,0.0,0.0,0.0,0.0,0.0,0.0,0.0,0.0,0.0,0.0,0.0,0.0,0.0,0.0,0.0,0.0,0.0,0.0,0.0,0.0,0.0,0.0,0.0,0.0,0.0,0.0,0.0,0.5191,0.4049,0.0,0.0,0.0,0.0,0.0,0.0,0.0,0.0,0.0,0.0,0.0,0.0,0.0,0.0,0.0,0.0,0.0,0.0,0.0,0.0,0.0,0.3897,0.3999,0.4409,0.48,0.5143,0.5473,0.5623,0.5513,0.5506,0.0,0.0,0.0,0.0,0.431,0.432,0.5011,0.6427,0.7658,0.9196,1.0976,1.1226,0.99,0.7358,0.6847,0.0,0.0,0.0,0.0,0.0,0.0,0.0,0.0,0.0,0.0,0.0,0.0,0.0,0.0,0.0,0.0,0.0,0.0,0.0,0.0,0.0,0.0,0.0,0.0,0.0,0.0,0.0,0.0,0.0,0.0,0.0,0.0,0.0,0.0,0.0,0.0,0.0,0.0,0.0,0.0,0.0,0.0,0.0,0.0,0.0,0.0,0.0,0.0,0.0,0.0,0.0,0.0,0.0,0.0,0.0,0.0,0.0,0.0,0.0,0.0,0.0,0.0,0.0,0.8596,0.8776,0.8987,0.8924,0.8984,0.8983,0.6013,0.4593,0.4327,0.3575,0.0,0.0,0.0,0.0,0.0,0.0,0.0,0.0,0.0,0.0,0.0,0.0,0.0,0.0,0.0,0.0,0.0,0.0,0.0,0.4261,0.4782,0.4902,0.5197,0.5811,0.5916,0.5941,0.592,0.5911,0.0,0.0,0.0,0.5132,0.473,0.5049,0.6307,0.85,1.1747,1.3195,1.2948,1.4063,1.3688,1.2028,1.0547,0.9415,0.8571,0.0,0.0,0.0,0.0,0.0,0.0,0.0,0.0,0.0,0.0,0.0,0.0,0.0,0.0,0.0,0.0,0.0,0.0,0.0,0.0,0.0,0.0,0.0,0.0,0.0,0.0,0.0,0.0,0.0,0.0,0.0,0.0,0.0,0.0,0.0,0.0,0.0,0.0,0.0,0.0,0.0,1.1703,1.0731,0.0,0.0,0.0,0.0,0.0,0.0,0.0,0.0,0.0,0.0,0.0,0.0,0.0,0.8099,0.8634,0.8619,0.8734,0.9005,0.9703,1.0051,1.0065,0.9843,0.9569,0.9201,0.8047,0.0,0.6171,0.5156,0.0,0.0,0.0,0.0,0.0,0.0,0.0,0.0,0.0,0.0,0.0,0.0,0.0,0.0,0.0,0.0,0.0,0.0,0.0,0.0,0.0,0.6513,0.7269,0.8016,0.85,0.8372,0.7464,0.7445,0.0,0.0,0.5475,0.5391,0.5141,0.6455,0.9033,1.29,1.4785,1.5988,1.6515,1.6702,1.6422,1.5785,1.5046,1.3078,1.0259,0.9262,0.0,0.0,0.0,0.0,0.0,0.0,0.0,0.0,0.0,0.0,0.0,0.0,0.0,0.0,0.0,0.0,0.0,0.0,0.0,0.0,0.0,0.0,0.0,0.0,0.0,0.0,0.0,0.0,0.0,0.0,0.0,0.0,0.0,0.0,0.0,0.0,0.0,0.0,0.0,1.1182,1.1758,1.109,1.0863,1.0261,0.0,0.0,0.0,0.0,0.0,0.0,0.0,0.0,0.0,1.0833,1.0069,0.9865,1.0328,1.0155,1.0094,1.0248,1.0563,1.0731,1.0743,1.0638,1.047,1.0265,0.9238,0.8541,0.7976,0.6116,0.5075,0.4624,0.0,0.0,0.0,0.0,0.2672,0.259,0.0,0.0,0.0,0.0,0.0,0.0,0.0,0.0,0.0,0.0,0.0,0.0,0.6917,0.8181,0.9263,1.0043,1.0925,1.0759,0.9179,0.911,0.8171,0.5981,0.5708,0.561,0.5632,0.8375,1.1766,1.5749,1.686,1.7833,1.8646,1.8452,1.8202,1.8008,1.8212,1.6085,1.2344,1.1438,1.0007,0.8215,0.0,0.0,0.0,0.0,0.0,0.0,0.0,0.0,0.0,0.0,0.0,0.0,0.0,0.0,0.0,0.0,0.0,0.0,0.0,0.0,0.0,0.0,0.0,0.0,0.0,0.0,0.0,0.0,0.0,0.0,0.0,0.0,0.0,0.0,0.0,0.0,0.0,1.185,1.2339,1.1673,1.1743,1.1295,0.0,0.0,0.0,0.0,0.0,0.0,1.1936,1.2237,1.2569,1.2928,1.2264,1.1962,1.2054,1.1817,1.1589,1.1409,1.1409,1.1409,1.1409,1.1298,1.126,1.1186,1.019,0.9771,0.959,0.7294,0.6278,0.6084,0.4742,0.3938,0.3532,0.3275,0.3123,0.3127,0.0,0.0,0.0,0.0,0.0,0.0,0.0,0.0,0.0,0.0,0.0,0.7356,0.8297,0.9473,1.047,1.116,1.2254,1.2245,1.0684,1.059,0.9584,0.731,0.6179,0.5808,0.6244,1.0911,1.3897,1.5041,1.7689,1.858,1.7808,1.8767,1.8787,1.8042,1.8741,1.7881,1.5858,1.4687,1.331,1.1686,0.8702,0.0,0.0,0.0,0.0,0.0,0.0,0.0,0.0,0.0,0.0,0.0,0.0,0.0,0.0,0.0,0.0,0.0,0.0,0.0,0.0,0.0,0.0,0.0,0.0,0.0,0.0,0.0,0.0,0.0,0.0,0.0,0.0,0.0,0.0,0.0,0.0,0.0,0.0,1.3122,1.3809,0.0,0.0,0.0,0.0,1.276,1.3227,1.3704,1.4202,1.4151,1.425,1.4655,1.4496,1.4042,1.3331,1.3288,1.2945,1.2224,1.2224,1.2224,1.2224,1.1855,1.1669,1.1632,1.1186,1.0999,1.0877,0.9102,0.7947,0.726,0.6672,0.5884,0.4986,0.4003,0.3488,0.3338,0.0,0.0,0.0,0.3393,0.3654,0.3921,0.4191,0.4344,0.4546,0.4868,0.6457,0.7966,0.9025,1.1499,1.3492,1.4537,1.5855,1.6089,1.485,1.3086,1.1733,1.0869,0.8466,0.8593,1.1711,1.437,1.6673,1.8603,1.9157,1.9253,1.8934,1.8954,1.8798,1.8539,1.8931,1.8558,1.7603,1.6455,1.5187,1.3883,1.2572,1.0594,0.0,0.0,0.0,0.0,0.0,0.0,0.0,0.0,0.0,0.0,0.0,0.0,0.0,0.0,0.0,0.0,0.0,0.0,0.0,0.0,0.0,0.0,0.0,0.0,0.0,0.0,0.0,0.0,0.0,0.0,0.0,0.0,0.0,0.0,0.0,0.0,0.0,1.5262,1.5968,0.0,1.4023,1.4484,1.4845,1.4738,1.5605,1.6187,1.6373,1.609,1.6008,1.6143,1.54,1.4835,1.455,1.4291,1.404,1.3759,1.3266,1.3018,1.2981,1.2365,1.1929,1.1706,1.1558,1.1335,1.1056,1.0417,0.957,0.8535,0.7491,0.6767,0.6126,0.5251,0.4687,0.4347,0.0,0.0,0.0,0.3518,0.3789,0.4058,0.4333,0.4475,0.4935,0.5956,0.7577,0.9403,1.1399,1.3882,1.5953,1.7331,1.86,1.8583,1.6809,1.515,1.3527,1.1951,1.0262,1.128,1.5415,1.6862,1.8608,2.0718,2.0511,2.0253,2.0007,1.9557,1.9191,1.8965,1.9237,1.9065,1.8576,1.81,1.7172,1.597,1.534,1.3302,1.0605,0.0,0.0,0.0,0.0,0.0,0.0,0.0,0.0,0.0,0.0,0.0,0.0,0.0,0.0,0.0,0.0,0.0,0.0,0.0,0.0,0.0,0.0,0.0,0.0,0.0,0.0,0.0,0.0,0.0,0.0,0.0,0.0,0.0,0.0,1.5305,1.6287,1.6327,1.7309,1.7386,1.5889,1.6486,1.6953,1.6897,1.7575,1.8035,1.8051,1.762,1.7389,1.7423,1.6611,1.6018,1.5763,1.55,1.5253,1.4969,1.445,1.4055,1.3774,1.3164,1.2586,1.2077,1.1818,1.1558,1.1298,1.1149,1.0651,0.9771,0.8547,0.7863,0.7524,0.6412,0.5651,0.5115,0.0,0.0,0.3228,0.3636,0.3921,0.4191,0.4456,0.4622,0.5689,0.8419,0.9704,1.1748,1.5408,1.6581,1.7719,1.9246,2.0218,1.9475,1.6461,1.6577,1.4805,1.04,1.1538,1.3795,1.6983,1.8369,1.9691,2.0973,2.1675,2.1631,2.085,2.0546,1.9968,1.9228,1.9607,1.9407,1.8862,1.9758,1.9328,1.7962,1.6777,1.5226,1.3406,0.0,0.0,0.0,0.0,0.0,0.0,0.0,0.0,0.0,0.0,0.0,0.0,0.0,0.0,0.0,0.0,0.0,0.0,0.0,0.0,0.0,0.0,0.0,0.0,0.0,0.0,0.0,0.0,0.0,0.0,0.0,0.0,0.0,1.4623,1.6697,1.7696,1.6283,1.7808,1.8466,1.7234,1.7879,1.8614,1.9198,1.9099,1.9057,1.9116,1.8617,1.8371,1.8516,1.8212,1.7691,1.6966,1.6966,1.6585,1.5781,1.5745,1.5384,1.4673,1.425,1.3644,1.2929,1.2114,1.1781,1.1706,1.1298,1.1111,1.0993,0.9809,0.9352,0.912,0.749,0.6339,0.5494,0.2718,0.2961,0.3228,0.3636,0.3838,0.4078,0.4436,0.4777,0.5798,0.807,1.0377,1.2802,1.5374,1.7991,1.9882,2.0819,2.165,2.1504,1.9957,1.7435,1.5009,1.2819,1.6617,1.9373,2.0564,2.1564,2.2337,2.2788,2.2896,2.2559,2.1771,2.0843,2.0298,2.006,1.9589,1.9332,1.9352,1.9879,1.9943,1.97,1.9126,1.748,1.5413,0.0,0.0,0.0,0.0,0.0,0.0,0.0,0.0,0.0,0.0,0.0,0.0,0.0,0.0,0.0,0.0,0.0,0.0,0.0,0.0,0.0,0.0,0.0,0.0,0.0,0.0,0.0,0.0,0.0,0.0,0.0,1.611,1.7186,1.7185,1.8064,1.8836,1.9137,1.9782,1.999,1.9499,1.9799,2.01,2.0294,1.9864,1.9627,1.9755,1.9217,1.8774,1.8516,1.8674,1.8563,1.8056,1.8351,1.825,1.7706,1.7207,1.6715,1.6228,1.5561,1.4994,1.4522,1.3709,1.32,1.2865,1.1922,1.1558,1.1484,1.0838,1.0426,1.0051,0.9011,0.7711,0.6339,0.2707,0.2961,0.3228,0.3636,0.3859,0.4099,0.4446,0.4885,0.6244,0.9193,1.1089,1.3512,1.71,1.9126,2.0679,2.1892,2.1956,2.1262,1.9758,1.691,1.5863,1.7203,1.9773,2.1721,2.2933,2.376,2.4217,2.4293,2.4569,2.426,2.3352,2.2205,2.143,2.0933,2.031,1.9897,1.9727,2.0327,2.0492,2.0379,2.0197,1.8824,1.697,1.7612,1.6196,1.3764,1.3532,1.3233,1.2827,1.2021,0.0,0.0,0.0,0.0,0.0,0.0,0.0,0.0,0.0,0.0,0.0,0.0,0.0,0.0,0.0,0.0,0.0,0.0,0.0,0.0,0.0,0.0,0.0,0.0,1.7125,1.8343,1.8802,1.9253,1.9675,2.011,2.0484,2.0561,2.0162,2.0484,2.0656,2.0547,2.0111,1.9915,2.0043,1.9521,1.9108,1.8975,1.9042,1.9008,1.8741,1.8975,1.8975,1.8741,1.8148,1.7594,1.7104,1.6472,1.5913,1.5384,1.478,1.4178,1.36,1.2762,1.2144,1.1669,0.0,0.0,0.0,0.0,0.859,0.7452,0.279,0.3001,0.3239,0.3674,0.3942,0.4206,0.4504,0.5022,0.6837,1.0902,1.1706,1.3944,1.9298,1.9905,2.0623,2.2433,2.1555,1.9981,1.781,1.6346,1.7544,2.198,2.1618,2.2305,2.4497,2.5182,2.5531,2.5578,2.6371,2.6242,2.5169,2.4073,2.2939,2.1843,2.1353,2.0707,2.004,2.0852,2.0934,2.055,2.055,1.9626,1.8285,1.8552,1.7715,1.6233,1.5207,1.5102,1.5268,1.412,0.0,0.0,0.0,0.0,0.0,0.0,0.0,0.0,0.0,0.0,0.0,0.0,0.0,0.0,0.0,0.0,0.0,0.0,0.0,0.0,0.0,0.0,0.0,0.0,1.7615,1.8633,1.964,2.0062,2.012,1.9761,2.0202,2.0362,1.9896,2.0317,2.0586,2.0429,2.0218,2.0109,2.0204,1.9742,0.0,0.0,0.0,1.9297,1.9253,1.9279,1.9248,1.9214,1.8805,1.8259,1.7575,1.7242,1.6689,1.5983,1.5552,1.4958,1.4142,1.3665,1.2799,1.1706,1.126,1.1111,1.0956,0.9884,0.9243,0.8713,0.3239,0.3227,0.3301,0.3914,0.4117,0.4324,0.4754,0.5424,0.711,1.0567,1.1936,1.4139,1.8132,1.975,2.0864,2.1732,2.1752,2.099,1.9352,2.0294,2.1224,2.1932,2.3535,2.4927,2.5952,2.6133,2.6379,2.6676,2.7015,2.6918,2.6346,2.4574,2.3432,2.2766,2.1276,2.0575,2.0498,2.0991,2.1322,2.1538,2.1538,2.0901,1.9986,2.022,1.9601,1.8674,1.9227,1.8601,1.7536,1.7591,1.6695,1.5344,1.4219,1.3117,0.0,0.0,0.0,0.0,0.0,0.0,0.0,0.0,0.0,0.0,0.0,0.0,0.0,0.0,0.0,0.0,0.0,0.0,0.0,1.7319,1.8266,1.9102,1.9589,1.9484,1.9336,1.9243,1.9416,1.9763,2.0234,2.0198,2.0443,2.1129,2.0789,2.0653,2.0834,2.0719,2.0534,2.0267,2.0499,2.0464,2.0162,2.0257,2.0135,1.9831,1.9509,0.0,1.8754,1.8361,1.81,1.792,1.6966,1.6123,1.5278,1.4286,1.3208,1.2114,1.1372,1.1111,1.1074,1.0844,1.0507,1.0013,0.3402,0.342,0.3518,0.4218,0.4375,0.4568,0.507,0.5629,0.6996,0.9791,1.1131,1.2981,1.5926,1.7175,1.797,1.8403,1.8758,1.9015,1.9185,2.0851,2.2283,2.3316,2.4683,2.5734,2.6289,2.6393,2.653,2.6841,2.7134,2.7146,2.6794,2.4941,2.4014,2.3802,2.1776,2.0939,2.1045,2.1153,2.1349,2.1655,2.1769,2.1528,2.1099,2.099,2.0699,2.0336,2.0247,1.9867,1.9357,1.8742,1.7812,1.6727,1.5595,1.4485,1.3374,0.0,0.0,0.0,0.0,0.0,0.0,0.0,0.0,0.0,0.0,0.0,0.0,0.0,0.0,1.701,0.0,0.0,1.8552,1.8549,1.9364,2.0056,2.0223,2.0327,2.0177,1.9742,1.9664,1.9857,2.0358,2.0365,2.0523,2.102,2.0831,2.0786,2.0995,2.0995,2.0914,2.069,2.0914,2.0914,2.069,2.0786,2.0703,2.0508,2.0033,1.97,1.9521,1.9044,1.8808,1.8774,1.7944,1.7148,1.6263,1.4573,1.3571,1.2959,1.204,1.1595,1.1372,1.1186,1.0962,1.07,0.344,0.3585,0.3792,0.4502,0.467,0.487,0.5404,0.5811,0.6807,0.8911,0.9885,1.1244,1.3468,1.4153,1.4668,1.515,1.5965,1.7068,1.8568,2.0375,2.2261,2.4268,2.4809,2.5226,2.5597,2.5822,2.601,2.6173,2.6586,2.6667,2.6393,2.4874,2.4169,2.4158,2.2107,2.1282,2.1436,2.1282,2.1436,2.1807,2.1807,2.1987,2.2161,2.1495,2.1323,2.1301,2.0371,2.0205,2.0247,1.9253,1.825,1.7323,1.6591,1.5608,1.4519,1.3686,1.3803,0.0,0.0,0.0,0.0,0.0,0.0,0.0,0.0,0.0,1.7513,1.9185,1.959,1.962,1.9647,2.0095,2.0346,1.993,2.0523,2.1127,2.1319,2.1515,2.1405,2.0857,2.0509,2.0383,2.0621,2.0806,2.0919,2.0895,2.0906,2.0988,2.1153,2.1153,2.1153,2.1153,2.1153,2.1153,2.1153,2.1094,2.1087,2.1076,2.0484,2.0131,2.0025,1.95,1.9214,1.9108,1.8496,1.7808,1.6932,1.5065,1.4222,1.4042,1.3025,1.2549,1.2285,1.1515,1.1223,1.1149,0.345,0.3743,0.4034,0.4591,0.4883,0.5203,0.5682,0.6056,0.6787,0.8241,0.8519,0.9348,1.1322,1.2434,1.3519,1.4754,1.6759,1.8108,1.8493,2.0494,2.1964,2.2708,2.305,2.3265,2.3431,2.4023,2.4374,2.4409,2.472,2.472,2.4409,2.3672,2.3073,2.2553,2.1596,2.1205,2.1244,2.1205,2.1845,2.2777,2.2063,2.2633,2.3672,2.2253,2.1483,2.1152,2.1266,2.0321,1.9201,2.0401,1.9217,1.7348,1.7864,1.6961,1.5696,1.5443,0.0,1.4014,1.4335,1.5443,0.0,1.6442,1.7287,1.8278,0.0,0.0,1.9127,1.9228,1.9889,2.0256,1.9552,2.0338,2.1105,2.1099,2.1331,2.1876,2.2894,2.2218,2.1831,2.244,2.1875,2.1447,2.1537,2.1579,2.1602,2.1659,2.169,2.169,2.169,2.169,2.169,2.169,2.169,2.169,2.169,2.146,2.1371,2.1361,2.1062,2.0652,2.0239,1.9994,1.9674,1.9241,1.8331,1.7609,1.7044,1.6306,1.5737,1.5215,1.4214,1.4207,1.455,1.2425,1.1632,1.1595,0.3068,0.3352,0.3732,0.4503,0.5023,0.5455,0.5808,0.6105,0.6578,0.7333,0.7727,0.8299,0.9179,0.9656,1.0241,1.1118,1.4418,1.6733,1.7345,2.0938,2.3083,2.3203,2.3606,2.3847,2.3891,2.3979,2.4108,2.4331,2.4187,2.4182,2.4264,2.3184,2.2776,2.2925,2.1634,2.1205,2.154,2.1436,2.1655,2.2138,2.2402,2.2879,2.3449,2.3217,2.3011,2.2597,2.0682,1.9807,0.0,1.8976,1.804,1.7215,1.7999,1.7279,1.6108,1.6079,1.5656,0.0,1.7899,0.0,0.0,0.0,2.0901,2.1413,2.1886,2.1758,2.1882,2.3098,2.3298,2.3293,2.3404,2.3504,2.3623,0.0,2.3705,2.3875,2.4536,2.4342,2.4108,2.4059,2.3779,2.3272,2.2527,2.2475,2.2376,2.2166,2.2138,2.2035,2.1807,2.1807,2.1807,2.1807,2.1807,2.1807,2.1807,2.1686,2.163,2.162,2.1345,2.099,2.0516,2.0286,1.9748,1.8975,1.8721,1.8273,1.774,1.7173,1.6819,1.6498,1.5552,1.5376,1.5438,1.3433,1.2682,1.2645,0.2788,0.3056,0.3483,0.4361,0.5033,0.5554,0.5851,0.6129,0.6387,0.6633,0.7039,0.7382,0.7577,0.7485,0.7673,0.8328,1.1813,1.4416,1.5438,1.9477,2.203,2.238,2.2689,2.3045,2.3398,2.3017,2.2923,2.3132,2.2968,2.2961,2.3069,2.237,2.2286,2.2638,2.1492,2.1244,2.1693,2.154,2.1655,2.1997,2.2703,2.325,2.368,2.3975,2.3906,2.3271,2.0409,1.9587,1.9496,1.7461,1.6588,1.6467,1.7119,1.6713,1.6039,1.6188,1.6261,1.6811,1.94,0.0,0.0,2.2723,2.3641,2.4124,2.4437,2.4197,2.4321,2.5858,2.5809,2.5589,2.5906,2.5708,2.5557,2.5735,2.5526,2.5475,2.5921,2.5946,2.5687,2.5075,2.5004,2.4551,2.3446,2.3224,2.2964,2.244,2.2402,2.2289,2.1997,2.1959,2.2035,2.2138,2.2138,2.2063,2.1959,2.1959,2.1921,2.1797,2.1616,2.122,2.0613,2.022,1.9739,1.9228,1.9227,1.8898,1.8327,1.7993,1.7755,1.7491,1.6636,1.6463,1.6498,1.4871,1.4127,1.3839,0.2788,0.3056,0.3438,0.4183,0.4858,0.5435,0.5843,0.6129,0.6299,0.6307,0.6338,0.647,0.68,0.6594,0.6823,0.7739,0.9734,1.1436,1.2633,1.5054,1.7257,1.9071,1.8913,1.937,2.0602,2.0224,1.9933,1.9769,2.0247,2.0265,1.9848,2.0855,2.108,2.0712,2.1051,2.132,2.1502,2.1502,2.2063,2.2964,2.3001,2.39,2.5158,2.4373,2.3416,2.2302,2.1083,1.9986,1.8785,1.6521,1.5303,1.4813,1.5024,1.5143,0.0,1.5926,1.624,1.6491,1.6994,0.0,2.1453,2.2795,2.4428,2.5741,2.5741,2.5839,2.5901,2.5842,2.6047,2.6034,2.5275,2.5658,2.6114,2.618,2.5991,2.6148,2.6845,2.6333,2.5687,2.5075,2.5004,2.4767,0.0,2.3824,2.3261,2.2478,2.2402,2.2402,2.2365,2.2365,2.2553,2.2964,2.2964,2.2777,2.2402,2.2365,2.2176,2.1807,2.1787,2.1311,2.0389,1.968,1.9681,2.0241,1.9774,1.9164,1.8509,1.8888,1.864,1.794,1.7329,1.7638,1.8269,1.6985,1.5921,1.5084,0.2719,0.3068,0.3489,0.4012,0.4627,0.5105,0.5331,0.575,0.6037,0.6037,0.6276,0.0,0.0,0.0,0.0,0.0,0.9912,1.1775,1.279,1.5537,1.7532,1.8419,1.8626,1.8919,1.9363,1.9229,1.9202,1.926,1.9261,1.9346,1.9502,1.9556,1.9661,1.9819,1.9744,2.0004,2.0447,2.0447,2.1032,2.204,2.2538,2.3549,2.4664,2.3663,2.2855,2.1859,0.0,1.6852,1.576,1.4814,0.0,0.0,1.5323,0.0,0.0,1.485,1.6093,1.7767,1.977,2.1696,2.359,2.5537,2.6485,2.6929,2.6929,2.6693,2.6555,2.687,2.6046,2.5336,2.5419,2.5607,2.5832,2.5972,2.6535,2.7142,2.7669,2.741,2.6744,2.565,2.5662,0.0,0.0,0.0,2.3787,2.3224,2.3187,2.3075,2.2815,2.2815,2.2852,2.3001,2.3001,2.3165,2.3511,2.3054,2.283,2.2909,2.1999,2.1223,2.0636,1.9944,1.9613,1.954,1.9215,1.8942,1.8697,1.8841,1.8841,1.8674,1.8226,1.8236,1.8448,1.8032,1.7604,1.706,0.2741,0.3119,0.3555,0.4058,0.4558,0.0,0.0,0.0,0.0,0.0,0.0,0.0,0.0,0.0,0.0,0.0,0.0,1.0525,1.1338,1.3797,1.5678,1.671,1.6652,1.6973,1.7767,1.7221,1.7072,1.7416,1.7586,1.7798,1.8081,1.8495,1.8666,1.8737,1.8857,1.9062,1.9279,1.9279,1.969,2.0432,2.1041,2.1717,2.2299,2.1729,2.0696,0.0,1.6515,1.4471,1.2986,1.2567,0.0,0.0,0.0,0.0,0.0,0.0,1.6654,1.8777,2.1905,2.3526,2.4858,2.696,2.749,2.749,2.749,2.7249,2.7079,2.7425,2.6069,2.4909,2.5247,2.4944,2.4736,2.5066,2.6005,2.6889,2.7426,2.7624,2.733,2.6355,2.6389,2.6022,0.0,0.0,0.0,2.3666,2.3593,2.3457,2.3113,2.3187,2.3224,2.3224,2.3545,2.3852,2.4108,2.3621,2.3302,2.3095,2.2013,2.1455,2.1331,2.0588,2.0006,1.9636,1.9281,1.8995,1.8717,1.8774,1.8875,1.8975,1.8707,1.865,1.8674,1.8414,1.8303,1.8134,0.2832,0.3186,0.3633,0.0,0.0,0.0,0.0,0.0,0.0,0.0,0.0,0.0,0.0,0.0,0.0,0.0,0.0,0.0,0.8453,0.9951,0.0,1.3887,1.3037,1.353,1.5716,1.4226,1.3722,1.4316,1.5231,1.5633,1.562,1.7478,1.7971,1.7358,1.8183,1.837,1.8016,1.7972,1.8077,1.8318,1.8638,1.862,1.8458,1.8703,1.7151,1.4834,1.4635,1.293,0.0,0.0,0.0,0.0,0.0,0.0,0.0,0.0,0.0,1.9662,2.319,2.4525,2.5343,2.7052,2.749,2.749,2.749,2.749,2.7464,2.7385,2.5933,2.4676,0.0,0.0,2.3064,2.3537,2.4638,2.5659,2.6349,2.7071,2.739,0.0,0.0,0.0,0.0,0.0,0.0,2.3838,2.374,2.3629,2.3434,2.3593,2.3666,2.3703,2.4515,2.4671,2.4181,2.4192,2.3573,2.2467,2.2019,2.2003,2.2333,2.1445,2.0853,2.0498,2.001,1.9349,1.858,1.8785,1.8841,1.8841,1.8841,1.8942,1.9031,1.8313,1.8168,1.8269,0.0,0.0,0.0,0.0,0.0,0.0,0.0,0.0,0.0,0.0,0.0,0.0,0.0,0.0,0.0,0.0,0.0,0.0,0.8244,0.9225,0.0,0.0,0.0,0.0,0.0,0.0,0.0,1.3134,1.3679,1.3923,1.391,1.4429,1.4721,1.4833,1.5055,1.5396,1.5821,1.579,1.6138,1.6688,1.679,1.7192,1.7607,1.6358,1.5206,1.4167,1.3071,0.0,0.0,0.0,0.0,0.0,0.0,0.0,1.7477,0.0,0.0,2.2993,2.4261,2.5682,2.6922,2.7385,2.749,2.749,2.749,2.749,2.7104,2.5764,2.4386,2.2835,0.0,0.0,0.0,2.2498,2.4965,0.0,2.7176,2.7644,0.0,2.7074,0.0,2.6913,2.6183,2.6057,0.0,0.0,2.5394,2.5452,2.5381,2.4779,2.4683,2.5288,2.4443,2.4396,2.5357,2.5063,2.4493,2.3647,2.3402,2.2874,2.2155,2.176,2.1396,2.099,2.0264,1.9802,1.9609,1.9444,1.9473,1.9605,1.9287,1.921,1.921,1.8931,1.8674,1.8448,0.0,0.0,0.0,0.0,0.0,0.0,0.0,0.0,0.0,0.0,0.0,0.0,0.0,0.0,0.0,0.0,0.0,0.0,0.0,0.807,0.8668,0.0,0.0,0.0,0.0,0.0,0.0,0.0,0.0,1.1733,1.2257,1.2441,1.2551,1.2588,1.2781,1.2987,1.3208,1.3396,1.3779,0.0,0.0,1.4478,1.4773,1.355,1.2912,1.2593,0.0,0.0,0.0,0.0,0.0,1.6171,1.6877,1.8076,1.95,2.0706,0.0,2.4659,2.5701,2.6739,2.749,2.749,2.749,2.7229,2.6192,2.6166,2.5647,2.335,2.1868,0.0,1.8843,0.0,0.0,0.0,0.0,0.0,2.6973,2.7499,2.7736,0.0,2.751,0.0,2.6879,2.6858,2.6824,0.0,2.6299,2.5988,2.5871,2.5452,2.5358,2.5616,2.5194,2.5323,2.6045,2.5859,2.5369,2.4636,2.4145,2.361,2.2957,2.2533,2.2023,2.1434,2.0748,2.0294,2.0015,1.963,1.9572,1.9736,1.9528,1.9419,1.9386,1.9065,1.8841,1.8607,0.0,0.0,0.0,0.0,0.0,0.0,0.0,0.0,0.0,0.5275,0.5635,0.5937,0.0,0.0,0.0,0.0,0.0,0.0,0.0,0.0,0.7431,0.0,0.0,0.0,0.0,0.0,0.0,0.0,0.0,0.9445,1.0484,1.0916,1.0943,1.068,1.1026,1.1017,1.0772,1.1118,1.1412,1.1641,1.1586,1.1506,1.1369,0.0,0.0,0.0,0.0,0.0,0.0,0.0,1.7924,1.8612,1.8325,1.9569,2.1356,2.2391,2.383,2.5454,2.7052,2.749,2.749,2.749,2.749,2.6902,2.4528,2.4355,2.3803,2.0669,0.0,1.8117,1.7282,1.8259,1.9392,2.0042,0.0,2.5531,2.6434,2.713,2.759,2.7776,2.7967,2.8,2.7822,2.7934,2.7934,2.7776,2.6756,2.607,2.5906,2.5953,2.5756,2.5312,2.6186,2.6577,2.638,2.638,2.607,2.5453,2.4636,2.4192,2.4072,2.335,2.2635,2.1932,2.1535,2.0957,2.0292,1.9881,1.9724,1.9736,1.9671,1.9671,1.9605,1.9108,1.8875,1.8774,0.0,0.0,0.0,0.0,0.0,0.0,0.0,0.0,0.0,0.0,0.6022,0.6082,0.0,0.0,0.0,0.0,0.0,0.0,0.0,0.0,0.0,0.0,0.0,0.0,0.0,0.0,0.0,0.0,0.0,0.0,0.8268,0.8775,0.9161,0.9409,0.9483,0.9667,0.9914,0.9988,1.0138,1.0332,1.0332,1.0396,1.0518,0.0,0.0,0.0,0.0,0.0,0.0,0.0,1.9247,2.0698,2.1715,2.2955,2.4082,2.4574,2.5599,2.6734,2.7345,2.749,2.749,2.749,2.749,2.6902,2.4528,2.4086,0.0,0.0,1.7913,1.713,1.5075,1.6863,1.9017,2.0167,0.0,0.0,0.0,0.0,2.7756,0.0,0.0,0.0,2.7809,2.7689,0.0,0.0,2.7356,2.7276,2.7397,2.6722,2.6,2.5312,2.6035,2.6427,2.638,2.638,2.6346,2.6208,2.5441,2.4743,2.4072,2.335,2.292,2.2811,2.3099,2.2567,2.1534,2.1808,2.1363,2.0475,2.015,2.0009,1.9977,1.9594,1.9175,1.8808,0.0,0.0,0.0,0.0,0.0,0.0,0.0,0.6247,0.6595,0.7122,0.7157,0.7119,0.7012,0.6588,0.6539,0.0,0.0,0.0,0.0,0.0,0.0,0.0,0.0,0.0,0.0,0.0,0.0,0.0,0.0,0.0,0.0,0.0,0.0,0.0,0.8113,0.8216,0.8417,0.862,0.8939,0.9291,0.9498,0.982,0.0,0.0,0.0,0.0,0.0,0.0,0.0,0.0,1.8663,2.2012,2.3328,2.4588,2.5557,2.5415,2.6205,2.7222,2.7423,2.749,2.749,2.749,2.749,2.6557,2.295,0.0,0.0,0.0,1.5562,1.5347,1.3909,0.0,0.0,1.8825,0.0,0.0,0.0,0.0,0.0,0.0,0.0,0.0,0.0,2.7556,2.749,2.749,2.749,2.7523,2.7656,2.7209,2.6803,2.6449,2.6803,2.6973,2.6973,2.6973,2.6973,2.6973,2.6208,2.5464,2.4707,2.3913,2.3559,2.3551,2.3269,2.3006,2.2739,2.2041,2.1429,2.0892,2.0688,2.0613,2.0581,2.0226,1.9966,1.9737,0.0,0.0,0.0,0.0,0.0,0.0,0.0,0.6836,0.7327,0.8129,0.8321,0.8164,0.7599,0.6949,0.6728,0.0,0.0,0.0,0.0,0.0,0.0,0.0,0.0,0.0,0.0,0.0,0.0,0.0,0.0,0.0,0.0,0.0,0.0,0.0,0.0,0.0,0.7214,0.7527,0.8038,0.0,0.0,0.9441,0.0,0.0,0.0,0.0,0.0,0.0,0.0,0.0,1.7207,2.1175,2.2808,2.4429,2.5583,2.4943,2.5633,2.6745,2.7324,2.749,2.749,2.749,2.749,2.6257,2.1483,2.0746,0.0,0.0,1.3584,1.3765,1.3303,0.0,1.7006,0.0,2.0888,2.3777,0.0,0.0,0.0,0.0,0.0,0.0,0.0,2.749,0.0,2.749,2.749,2.749,2.749,2.749,2.749,2.749,2.749,2.749,2.749,2.749,2.749,2.749,2.6769,2.6104,2.5523,2.4707,2.4373,2.4326,2.356,2.3396,2.3616,2.2265,2.1564,2.1313,2.1313,2.1313,2.1282,2.1005,2.0878,2.0771,0.0,0.0,0.0,0.0,0.0,0.0,0.0,0.7496,0.8165,0.9202,0.8963,0.8673,0.8656,0.7891,0.725,0.0,0.0,0.0,0.0,0.0,0.0,0.0,0.0,0.0,0.0,0.0,0.0,0.0,0.0,0.0,0.0,0.0,0.0,0.0,0.0,0.0,0.0,0.7232,0.0,0.0,0.0,0.0,0.0,0.0,0.0,0.0,0.0,0.0,0.0,0.0,0.0,1.6181,1.898,2.1496,2.327,2.2599,0.0,0.0,2.6937,2.749,2.749,2.749,2.749,2.6257,2.1483,0.0,0.0,1.4217,1.3235,1.3261,1.321,0.0,0.0,0.0,0.0,2.0412,0.0,0.0,0.0,0.0,0.0,0.0,0.0,2.749,2.749,2.749,2.749,2.749,2.749,2.749,2.749,2.749,2.749,2.749,2.749,2.749,2.749,2.749,2.6769,2.6346,2.6277,2.5546,2.5194,2.5193,2.521,2.4657,2.3706,2.3726,2.3059,2.2009,2.2009,2.2009,2.2021,2.1978,2.1779,2.1506,0.0,0.0,0.0,0.0,0.0,0.0,0.6701,0.7237,0.7956,0.9322,0.933,0.9059,0.8769,0.8291,0.7765,0.721,0.0,0.0,0.0,0.0,0.0,0.0,0.0,0.0,0.0,0.0,0.674,0.6402,0.7154,0.0,0.0,0.0,0.0,0.0,0.0,0.0,0.0,0.0,0.0,0.0,0.0,0.0,0.0,0.0,0.0,0.0,0.0,0.0,0.0,0.0,0.0,0.0,1.4424,1.647,0.0,0.0,2.3367,2.432,2.6808,2.749,2.749,2.749,2.6687,2.4901,2.125,0.0,0.0,1.3966,1.3198,1.3198,1.3198,1.369,1.4506,1.577,1.7397,0.0,2.1208,0.0,0.0,0.0,0.0,0.0,0.0,0.0,2.749,2.749,2.749,2.749,2.749,2.749,2.749,2.749,2.749,2.749,2.749,2.749,2.749,2.749,2.7209,2.6837,2.638,2.6104,2.5965,2.5916,2.5274,2.4991,2.4887,2.3865,2.3167,2.2683,2.2683,2.2683,2.2683,2.2683,2.2622,2.2518,0.0,0.0,0.0,0.0,0.0,0.5116,0.6516,0.7071,0.7817,0.919,0.9314,0.9161,0.8854,0.8313,0.7826,0.7486,0.6763,0.0,0.0,0.0,0.0,0.0,0.0,0.0,0.0,0.0,0.714,0.6807,0.7448,0.7646,0.0,0.0,0.0,0.0,0.0,0.0,0.0,0.0,0.0,0.0,0.0,0.0,0.0,0.0,0.0,0.0,0.0,0.0,0.0,0.0,0.0,0.0,0.0,1.2853,1.5754,0.0,2.2019,2.33,2.5749,2.6966,2.749,2.749,2.6147,2.404,0.0,0.0,0.0,1.381,1.3198,1.3198,1.3198,1.3546,1.4072,1.4771,1.6329,1.7877,1.9124,0.0,0.0,0.0,0.0,2.4793,0.0,2.7203,2.749,2.749,2.749,2.749,2.749,2.749,2.749,2.749,2.749,2.749,2.749,2.749,2.749,2.749,2.749,2.7222,2.6735,2.6735,2.6735,2.6671,2.5521,2.5339,2.567,2.4064,2.3412,2.3412,2.3412,2.3412,2.3412,2.3412,2.3412,2.3412,0.0,0.0,0.0,0.0,0.0,0.0,0.6542,0.7252,0.797,0.896,0.8864,0.8812,0.9065,0.7981,0.7315,0.7584,0.6866,0.0,0.0,0.0,0.0,0.0,0.0,0.0,0.0,0.0,0.7141,0.6796,0.7659,0.8126,0.8198,0.867,0.8816,0.8687,0.0,0.0,0.0,0.0,0.0,0.0,0.0,0.0,0.0,0.0,0.0,0.0,0.0,0.0,0.0,0.0,0.0,0.0,0.0,1.1616,1.2215,1.5126,1.8279,2.1277,2.3368,2.5679,2.749,2.749,2.6147,2.404,0.0,0.0,0.0,1.381,1.3198,1.3198,1.3198,1.321,1.3579,1.4708,1.4928,1.5972,1.8883,1.9438,0.0,0.0,0.0,2.3106,2.4861,2.653,2.749,2.749,2.749,2.749,2.749,2.749,2.749,2.749,2.749,2.749,2.749,2.749,2.749,2.749,2.749,2.749,2.749,2.749,2.749,2.7438,2.6289,2.5793,2.5702,2.4553,2.4083,2.4083,2.4083,2.4083,2.4083,2.4083,2.4083,2.4083,0.0,0.0,0.0,0.0,0.0,0.0,0.0,0.6043,0.6659,0.7668,0.7724,0.7832,0.8237,0.7623,0.7236,0.7322,0.6769,0.0,0.0,0.0,0.0,0.0,0.0,0.0,0.0,0.0,0.7467,0.7151,0.7824,0.8206,0.828,0.8409,0.8762,0.9225,0.8712,0.0,0.0,0.0,0.0,0.0,0.0,0.0,0.0,0.0,0.0,0.0,0.0,0.0,0.0,0.0,0.0,0.0,0.0,0.0,0.0,1.2201,1.507,1.8362,2.0407,2.2293,2.3436,2.2435,2.1592,2.0514,1.8469,0.0,1.5263,1.3554,1.3198,1.3198,1.3198,1.3198,1.3686,1.5191,1.5449,1.6048,0.0,0.0,0.0,2.1894,2.4257,2.5979,0.0,2.7057,2.7403,2.749,2.749,2.749,2.749,2.749,2.749,2.749,2.749,2.749,2.749,2.749,2.749,2.749,2.749,2.749,2.749,2.749,2.7314,2.6896,2.6151,2.5602,2.5171,2.4426,2.4083,2.4083,2.4083,2.4083,2.4083,2.4083,2.4083,2.4083,0.0,0.0,0.0,0.0,0.0,0.0,0.0,0.549,0.5948,0.666,0.6761,0.7049,0.7715,0.7174,0.6949,0.7424,0.6813,0.0,0.0,0.0,0.0,0.0,0.0,0.0,0.702,0.7301,0.7399,0.7251,0.7825,0.8134,0.8221,0.8577,0.8951,0.9255,0.8962,0.9009,0.0,0.0,0.0,0.0,0.0,0.0,1.0347,0.0,0.0,0.0,0.0,0.0,0.0,0.0,0.0,0.0,0.0,0.0,0.0,0.0,1.273,1.5251,1.7583,1.9468,2.0628,2.0074,1.9154,1.8141,0.0,0.0,1.4331,1.3403,1.3198,1.3198,1.3198,1.3198,1.3616,1.4896,1.5273,1.596,0.0,0.0,0.0,2.1867,0.0,0.0,2.6311,2.6926,2.7369,2.749,2.749,2.749,2.749,2.7556,2.7623,2.7623,2.7523,2.749,2.749,2.749,2.7523,2.7623,2.7703,2.7756,2.7809,2.7769,2.742,2.686,2.6248,2.5682,0.0,2.4628,2.4361,2.4261,2.439,2.4316,2.4112,2.4157,2.4187,2.4157,0.0,0.0,0.0,0.0,0.0,0.0,0.0,0.5425,0.5679,0.5904,0.6015,0.6422,0.737,0.6608,0.6498,0.7675,0.0,0.0,0.0,0.0,0.0,0.0,0.0,0.0,0.6416,0.6747,0.702,0.72,0.7699,0.8035,0.8222,0.914,0.9368,0.8999,0.9406,0.9616,0.0,0.0,0.0,0.0,1.0337,1.0337,0.0,0.0,0.0,0.0,0.0,0.0,0.0,0.0,0.0,0.0,0.0,0.0,0.0,0.0,0.0,0.0,0.0,1.7005,1.8686,1.9501,1.8179,1.6665,1.657,1.5284,0.0,1.3328,1.3198,1.321,1.3248,1.3223,1.3416,1.4097,1.4639,1.5807,0.0,1.9346,0.0,0.0,2.3777,0.0,2.4947,2.6375,2.7369,2.749,2.749,2.749,2.7523,2.7689,2.7822,2.7822,2.7623,2.7536,2.7523,2.749,2.7623,2.7809,2.8,2.8164,2.832,2.8197,2.7752,2.7112,2.6565,2.5948,2.5322,2.5093,2.4793,2.4538,2.4878,2.4649,2.4141,2.4247,2.4321,2.4305,0.0,0.0,0.0,0.0,0.0,0.0,0.0,0.0,0.0,0.0,0.5589,0.5936,0.6333,0.6343,0.6416,0.0,0.0,0.0,0.0,0.0,0.0,0.0,0.0,0.0,0.6395,0.6879,0.7143,0.72,0.8094,0.8722,0.9119,0.9908,1.0134,0.9893,1.0201,1.01,0.0,0.0,0.0,0.0,1.0763,1.0763,0.0,0.0,0.0,0.0,0.9703,0.9967,0.0,0.0,0.0,0.0,0.0,0.0,0.0,0.0,1.0528,1.0845,1.1802,0.0,1.4425,1.3991,1.4313,1.4651,0.0,1.4119,1.3934,1.3328,1.3198,1.3341,1.379,1.3509,1.3667,1.5078,1.5509,1.6507,1.8922,0.0,0.0,2.6901,2.6929,2.696,2.7469,2.7382,2.7369,2.749,2.749,2.7556,2.7723,2.7776,2.7855,2.8,2.7967,2.7901,2.7723,2.759,2.7669,2.8046,2.8079,2.8243,2.8522,2.8503,2.7749,2.6525,2.6624,2.5934,2.4722,2.4917,2.4793,2.4538,2.4878,2.4679,2.4276,2.4292,2.4392,2.4463,0.0,0.0,0.0,0.0,0.0,0.0,0.0,0.0,0.0,0.0,0.0,0.5393,0.5653,0.5997,0.0,0.0,0.0,0.0,0.0,0.0,0.0,0.0,0.0,0.6395,0.6395,0.6811,0.7176,0.752,0.8313,0.8955,0.9449,1.008,1.0238,1.0027,1.0083,0.9883,0.0,0.0,0.0,0.0,1.0708,0.0,0.0,0.0,0.0,0.0,0.9703,0.9892,0.0,1.0326,1.0537,1.0743,0.0,0.0,0.0,0.0,1.0303,1.0352,1.0566,1.1369,1.2151,1.216,1.2749,1.333,1.3302,1.349,1.3584,1.3261,1.3198,1.3303,1.3622,1.3848,1.4217,1.4904,1.6514,0.0,0.0,0.0,2.5721,2.7571,2.7307,2.7233,2.784,2.7585,2.7403,2.7403,2.7469,2.759,2.7776,2.7888,2.8033,2.8197,2.8183,2.8118,2.7934,2.7875,2.7987,2.8183,2.8457,2.8651,2.8812,2.8812,2.8079,2.6769,2.6919,2.6208,2.4977,2.5286,2.5188,2.4836,2.5202,2.4963,2.445,2.4507,2.4607,2.4635,0.0,0.0,0.0,0.0,0.0,0.0,0.0,0.0,0.0,0.0,0.0,0.0,0.0,0.0,0.0,0.0,0.0,0.0,0.0,0.0,0.0,0.0,0.0,0.6431,0.651,0.675,0.7194,0.7901,0.8572,0.9125,0.9576,1.0217,1.0338,0.9975,0.9698,0.9481,0.0,0.0,0.0,0.0,1.045,0.0,0.0,0.0,0.0,0.0,0.0,0.0,0.0,1.0664,1.0832,1.081,1.1106,0.0,0.0,0.0,0.0,0.0,1.0361,1.1033,1.1783,1.2194,1.2328,1.2488,1.3061,1.3155,1.3129,1.3181,1.3198,1.3256,1.3417,1.4169,0.0,0.0,0.0,0.0,2.4184,2.502,2.5759,2.6966,2.6857,2.6941,2.7581,2.7622,2.759,2.7469,2.7556,2.7689,2.7875,2.8033,2.8197,2.8333,2.8365,2.8281,2.8177,2.8249,2.83,2.8352,2.883,2.9099,2.9162,2.9162,2.8484,2.7262,2.7248,2.6556,2.5467,2.5743,2.5591,2.523,2.5536,2.523,2.4649,2.475,2.4806,2.4806,0.0,0.0,0.0,0.0,0.0,0.0,0.0,0.0,0.0,0.0,0.0,0.0,0.0,0.0,0.0,0.0,0.0,0.0,0.0,0.0,0.0,0.7067,0.6631,0.6601,0.7072,0.7121,0.7375,0.7901,0.9131,0.9763,0.9865,1.1363,1.1628,1.0786,1.0262,0.9744,0.9326,0.9733,0.0,1.0395,1.0318,0.0,0.0,0.0,0.0,0.0,0.0,0.0,0.0,0.998,1.0216,1.058,1.0305,0.0,0.0,0.0,0.0,0.0,1.0713,1.2998,1.4671,1.2037,1.1735,1.2177,1.2602,1.2698,1.2791,1.3129,1.3198,1.3481,1.4397,1.4329,1.4585,0.0,0.0,2.3071,0.0,0.0,2.8392,2.8984,2.8442,2.8296,2.908,2.8563,2.8157,2.8157,2.8157,2.8189,2.8222,2.8268,2.8379,2.8554,2.8554,2.8554,2.8522,2.8276,2.8262,2.8554,2.8753,2.9008,2.9352,2.9477,2.8652,2.7141,2.7351,2.663,2.5272,2.5481,2.5425,2.523,2.5453,2.5229,2.4778,2.4778,2.4863,2.4948,0.0,0.0,0.0,0.0,0.0,0.0,0.0,0.0,0.0,0.0,0.0,0.0,0.0,0.0,0.0,0.0,0.0,0.0,0.0,0.0,0.0,0.7792,0.7309,0.7164,0.7407,0.7679,0.8102,0.8759,0.9678,1.0334,1.0761,1.1446,1.1083,0.9915,0.9778,0.9491,0.9145,0.9348,0.9757,1.0272,0.0,0.0,0.0,0.0,0.0,0.0,0.0,0.0,0.0,0.0,1.0279,1.0579,1.0389,0.0,0.0,0.0,0.0,0.0,1.0567,1.2045,1.3451,1.3245,1.5108,1.6955,1.6871,1.6831,1.6513,1.5426,1.5394,1.5343,1.4561,0.0,1.8086,2.1442,0.0,2.4282,2.6609,2.7135,2.7629,2.857,2.8357,2.8361,2.8972,2.8671,2.8379,2.8157,2.8183,2.8203,2.83,2.8398,2.8541,2.8683,2.8812,2.8876,2.8876,2.8716,2.8619,2.8619,2.9022,2.918,2.9099,2.9352,2.8833,2.7668,2.7488,2.6808,2.5823,2.5605,2.5369,2.5202,2.53,2.5159,2.4892,2.4835,2.4835,2.4863,0.0,0.0,0.0,0.0,0.0,0.0,0.0,0.0,0.0,0.0,0.0,0.0,0.0,0.0,0.0,0.0,0.0,0.0,0.0,0.0,0.7822,0.8177,0.7979,0.7909,0.8036,0.8325,0.8896,0.9697,1.0286,1.0894,1.151,1.1197,1.0333,0.8977,0.9123,0.9083,0.8874,0.8915,0.9412,1.0125,0.0,0.0,0.0,0.0,0.0,0.0,0.0,0.0,0.0,0.0,0.0,0.0,0.0,0.0,0.0,1.0381,1.0215,1.0214,1.0479,1.1348,1.2627,1.4586,1.702,1.9172,2.0048,1.9723,1.8918,1.7806,1.7869,1.7453,1.5268,1.7436,0.0,2.522,2.5206,2.5382,2.7605,2.7226,2.7021,2.7876,2.8109,2.8351,2.8675,2.8651,2.8522,2.8203,2.8229,2.8295,2.8365,2.8522,2.8651,2.8748,2.8908,2.9004,2.9035,2.9067,2.8972,2.8716,2.9226,2.9257,2.8876,2.9149,2.883,2.8037,2.7432,2.6827,2.6235,2.563,2.53,2.5146,2.5118,2.5033,2.4892,2.4778,2.475,2.4734,0.0,0.0,0.0,0.0,0.0,0.0,0.0,0.0,0.0,0.0,0.0,0.0,0.0,0.0,0.0,0.0,0.0,0.0,0.0,0.0,0.7889,0.7925,0.8385,0.8854,0.936,0.9155,0.9432,1.0238,1.1026,1.1435,1.151,1.0988,1.0037,0.8801,0.8693,0.8617,0.8541,0.8663,0.9114,0.9739,0.9712,0.0,0.0,0.0,0.0,0.0,0.0,0.0,0.0,0.0,0.0,0.0,0.0,0.0,1.0185,1.0273,1.0,0.9853,1.0795,1.2861,1.4869,1.5414,1.3905,1.3564,1.8445,1.7593,1.65,1.907,1.9623,1.9129,1.7466,1.8487,2.0474,2.3107,2.5229,2.68,2.761,2.8383,2.8632,2.7999,2.8388,2.8835,2.9035,2.8908,2.878,2.8748,2.8748,2.8683,2.8587,2.8587,2.8587,2.8619,2.8619,2.8683,2.8812,2.9004,2.9099,2.9067,2.9099,2.9131,2.9067,2.8912,2.8425,2.7709,2.7115,2.6487,2.5887,2.5263,2.5033,2.5005,2.4863,2.475,2.462,2.462,2.462,2.4578,0.0,0.0,0.0,0.0,0.0,0.0,0.0,0.0,0.0,0.0,0.0,0.0,0.0,0.0,0.0,0.0,0.0,0.0,0.0,0.7725,0.8117,0.8632,0.853,0.8872,0.9739,0.9973,1.0478,1.1285,1.1585,1.1477,1.1009,1.0577,0.9657,0.8365,0.8477,0.8656,0.8871,0.8754,0.9226,1.0043,0.9795,0.9703,0.0,0.0,0.0,0.0,0.0,0.0,0.0,0.0,0.9531,0.9776,0.9668,0.9849,1.0127,1.0264,0.9971,0.9766,1.0469,1.2797,1.5097,1.5493,1.5148,1.5944,2.0659,2.0767,2.0287,2.179,2.1583,2.0724,1.9439,0.0,2.2813,2.354,2.6113,2.7926,2.7731,2.852,2.8985,2.8673,2.8866,2.9004,2.9099,2.8908,2.8812,2.8812,2.8716,2.8651,2.8587,2.8683,2.8716,2.8716,2.8844,2.894,2.9004,2.9067,2.9099,2.9099,2.9099,2.8926,2.8592,2.8514,2.8106,2.7368,2.6825,2.6293,2.5713,2.5106,2.4863,2.4863,2.4734,2.4649,2.4578,2.445,2.4549,2.4734,0.0,0.0,0.0,0.0,0.0,0.0,0.0,0.0,0.0,0.0,0.0,0.0,0.0,0.0,0.0,0.0,0.0,0.0,0.7346,0.7629,0.8036,0.8607,0.8499,0.8818,0.9636,1.0328,1.0954,1.1501,1.1624,1.1256,1.0459,0.9942,0.9185,0.8268,0.822,0.859,0.9257,0.8885,0.9332,1.0254,0.9859,0.9703,0.0,0.0,0.0,0.0,0.0,0.0,0.0,0.0,0.9493,0.9737,0.963,0.9811,1.006,1.0079,1.004,1.0098,1.0508,1.2183,1.4172,1.5693,1.6018,1.7194,2.1848,2.2039,2.169,2.3346,2.271,2.1779,2.1584,0.0,0.0,0.0,2.6765,2.8233,2.7773,2.8275,2.8677,2.8498,2.8622,2.8663,2.8484,2.8625,2.8666,2.8489,2.8542,2.8587,2.8587,2.8683,2.8748,2.8748,2.8876,2.8972,2.9004,2.9004,2.8972,2.894,2.8862,2.8702,2.8398,2.8235,2.7878,2.7336,2.672,2.6189,2.5731,2.5072,2.475,2.4635,2.4505,2.4447,2.4447,2.4379,2.4637,2.502,0.0,0.0,0.0,0.0,0.0,0.0,0.0,0.0,0.0,0.0,0.0,0.0,0.0,0.0,0.0,0.0,0.0,0.0,0.6805,0.7297,0.7595,0.7595,0.8305,0.8818,0.9083,1.0124,1.0707,1.0689,1.0979,1.0695,0.9877,0.9077,0.8652,0.8555,0.7841,0.8342,0.9656,0.9071,0.9387,1.0263,0.9859,0.9703,0.9703,0.0,0.0,0.0,0.0,0.0,0.0,0.0,0.9693,0.9733,0.9932,1.0,0.9953,0.9673,1.0215,1.0919,1.1052,1.1175,1.2212,1.6104,1.588,1.6064,2.1284,2.0278,1.9331,2.328,2.2838,2.2226,2.3863,2.3479,0.0,2.6003,2.6997,2.7551,2.7692,2.7816,2.7708,2.7177,2.7571,2.768,2.7149,2.8007,2.8343,2.7746,2.8248,2.8587,2.8587,2.8587,2.8587,2.8587,2.8587,2.8651,2.8812,2.8812,2.8716,2.8587,2.8398,2.8398,2.8554,2.8052,2.7776,2.7743,2.6738,2.6171,2.5924,2.5116,2.4593,2.4292,2.4157,2.4112,2.4141,2.4421,2.4908,2.5453,0.0,0.0,0.0,0.0,0.0,0.0,0.0,0.0,0.0,0.0,0.0,0.0,0.0,0.0,0.0,0.0,0.0,0.0,0.6805,0.7127,0.7461,0.779,0.7876,0.8112,0.8536,0.9035,0.9841,1.0997,1.0485,0.9937,0.9324,0.8716,0.8282,0.8053,0.8506,0.8941,0.9338,0.936,0.9722,1.0282,1.0162,0.9951,0.973,0.0,0.0,0.0,0.0,0.0,0.0,0.0,0.0,0.0,0.9176,0.9544,0.9953,0.9673,0.9777,0.9991,1.0029,1.3184,1.6253,1.5354,1.81,2.0973,2.0841,2.0149,2.0087,2.2088,2.2992,2.3259,2.2502,2.3992,2.5187,2.4732,2.667,2.8117,2.7636,2.8045,2.8311,2.818,2.7903,2.7686,2.7554,2.7424,2.7447,2.7691,2.7881,2.8153,2.8573,2.8587,2.8587,2.8587,2.8587,2.8619,2.8651,2.8541,2.843,2.8398,2.8105,2.7973,2.802,2.7723,2.7144,2.6403,2.633,2.5737,2.4794,2.4567,2.4593,2.4793,2.475,2.4734,2.4806,2.5467,2.57,2.5809,0.0,0.0,0.0,0.0,0.0,0.0,0.0,0.0,0.0,0.0,0.7467,0.7594,0.0,0.0,0.0,0.703,0.6805,0.6653,0.6653,0.6902,0.7212,0.7591,0.76,0.7872,0.8457,0.8626,0.9125,0.9979,0.9612,0.9155,0.8632,0.8524,0.8447,0.8416,0.9213,0.9647,0.9806,0.9826,1.0118,1.0511,1.0355,1.0144,0.996,0.0,0.0,0.0,0.0,0.0,0.0,0.0,0.0,0.0,0.8801,0.9071,0.9525,0.9761,1.0225,1.079,1.1472,1.4496,1.7495,1.7532,1.9933,2.2207,2.1869,2.1268,2.1057,2.2083,2.3231,2.3838,2.3165,2.4795,2.6179,2.5838,2.7109,2.8105,2.7973,2.8112,2.8234,2.8234,2.7922,2.7515,2.7026,2.7094,2.7199,2.7339,2.7569,2.7963,2.856,2.8587,2.8587,2.8587,2.8509,2.8476,2.8476,2.8314,2.8183,2.8105,2.7908,2.7756,2.7689,2.7556,2.6994,2.6138,2.5884,2.5236,2.4321,2.4494,2.4736,2.5005,2.5132,2.5286,2.555,2.604,2.64,2.6739,0.0,0.0,0.0,0.0,0.0,0.0,0.0,0.0,0.0,0.7589,0.7552,0.7443,0.0,0.0,0.0,0.6805,0.6568,0.6395,0.6395,0.6635,0.6902,0.7188,0.7504,0.7981,0.8656,0.865,0.8499,0.8211,0.8469,0.8355,0.7877,0.8427,0.8878,0.9269,0.988,1.0329,1.0573,1.0327,1.0423,1.0772,1.0419,1.0272,1.0257,1.0257,0.0,0.0,0.0,0.0,0.0,0.0,0.0,0.0,0.8631,0.8615,0.8888,0.9761,1.106,1.2535,1.4082,1.5257,1.7052,2.1208,2.1405,2.1241,2.3884,2.3217,2.2214,2.2852,2.3478,2.4189,2.5026,2.5738,2.67,2.833,2.8039,2.7829,2.8522,2.8125,2.7786,2.7786,2.7732,2.7271,2.6172,2.7013,2.742,2.6915,2.7406,2.7963,2.856,2.8587,2.8554,2.8554,2.8365,2.83,2.83,2.8131,2.7967,2.7809,2.7776,2.7689,2.749,2.749,2.7183,2.6562,2.5472,2.4718,2.435,2.4806,2.5033,2.5104,2.5439,2.585,2.6293,2.6455,2.7093,2.7947,0.0,0.0,0.0,0.0,0.0,0.0,0.0,0.0,0.7358,0.7571,0.7236,0.7036,0.7182,0.6781,0.0,0.6787,0.6568,0.6395,0.6395,0.6443,0.6708,0.7182,0.781,0.8223,0.8369,0.8171,0.7862,0.7436,0.7697,0.777,0.7667,0.8315,0.8651,0.8805,1.0129,1.0342,0.97,1.0115,1.0149,0.9978,1.0199,1.0107,0.9831,0.9831,0.9574,0.0,0.0,0.0,0.0,0.0,0.0,0.0,0.8129,0.8432,0.8761,0.8665,1.0331,1.2213,1.2269,1.5786,1.9605,2.0204,2.1865,2.3639,2.4838,2.4456,2.3694,2.3102,2.3918,2.485,2.5133,2.6071,2.72,2.8398,2.8457,2.8425,2.8587,2.8478,2.841,2.841,2.799,2.761,2.7339,2.7135,2.7131,2.7488,2.7637,2.7963,2.856,2.8444,2.8365,2.8365,2.8229,2.8131,2.8131,2.7954,2.7855,2.7809,2.7656,2.7523,2.749,2.749,2.7007,2.6085,2.5226,2.464,2.435,2.4806,2.5244,2.5715,2.6455,2.6797,2.7004,2.7864,2.8061,2.7997,0.0,0.0,0.0,0.0,0.0,0.0,0.0,0.0,0.7394,0.7407,0.717,0.6951,0.6835,0.6558,0.0,0.0,0.6474,0.6395,0.6395,0.6395,0.6631,0.7176,0.7919,0.8199,0.7967,0.7828,0.7521,0.7012,0.7024,0.7158,0.7419,0.7986,0.8413,0.8745,1.0038,1.0092,0.9256,0.9792,0.9868,0.968,0.9884,0.9857,0.9703,0.9703,0.9326,0.8774,0.8572,0.0,0.0,0.0,0.0,0.0,0.0,0.0,0.821,0.8654,0.9954,1.1704,1.376,1.6729,1.9736,2.1778,2.3526,2.4945,2.5769,2.5721,2.5252,2.4288,2.4432,2.4921,2.5533,2.6239,2.7082,2.8164,2.8503,2.8587,2.8587,2.8587,2.8554,2.8476,2.827,2.7985,2.7593,2.7282,2.7228,2.7539,2.7517,2.7709,2.8346,2.8262,2.8216,2.8216,2.8033,2.7967,2.7967,2.7756,2.7656,2.7656,2.7656,2.7578,2.7451,2.709,2.6628,2.6087,2.5273,2.4878,2.4879,2.5398,2.6,2.6651,2.7148,2.757,2.7929,2.8343,2.8487,2.8535,0.0,0.0,0.0,0.0,0.0,0.0,0.0,0.0,0.0,0.7158,0.7091,0.6902,0.6443,0.6395,0.6395,0.0,0.0,0.0,0.6395,0.6437,0.6696,0.7182,0.7828,0.7979,0.754,0.7486,0.7224,0.6738,0.6449,0.6659,0.7279,0.7751,0.8277,0.8955,0.9764,0.9692,0.9029,0.9357,0.9408,0.9335,0.9385,0.9446,0.9482,0.9409,0.8968,0.8361,0.8305,0.8286,0.8214,0.7826,0.0,0.0,0.0,0.0,0.7617,0.8755,0.9657,1.1187,1.5184,1.7275,1.942,2.407,2.5323,0.0,2.6508,2.6679,2.6474,2.5699,2.5146,2.5052,2.5906,2.6355,2.6913,2.7947,2.8373,2.8587,2.8587,2.8554,2.8476,2.832,2.8444,2.8255,2.7596,2.7511,2.7511,2.7511,2.741,2.7573,2.8118,2.8112,2.8112,2.8131,2.7954,2.7855,2.7855,2.7703,2.759,2.7603,2.7789,2.7819,2.7674,2.6818,2.6363,2.6172,2.5437,2.5258,2.5536,2.6108,2.6823,2.7515,2.7695,2.8155,2.8685,2.8511,2.8716,2.9098,0.0,0.0,0.0,0.0,0.0,0.0,0.0,0.0,0.0,0.0,0.6659,0.6474,0.6401,0.6395,0.6395,0.6395,0.6395,0.6395,0.6395,0.0,0.0,0.7188,0.7522,0.7559,0.7261,0.703,0.6763,0.6443,0.6185,0.6562,0.7546,0.7967,0.8568,0.9329,0.9348,0.9264,0.9067,0.8725,0.8423,0.8235,0.8532,0.8656,0.8627,0.8217,0.7983,0.7837,0.7488,0.7375,0.7366,0.7296,0.7278,0.0,0.0,0.0,0.7448,0.7689,0.9159,1.0927,1.1928,1.5951,2.0862,0.0,2.5921,2.5968,0.0,0.0,2.6645,0.0,2.644,2.6277,2.5894,2.6676,2.7523,2.8013,2.8373,2.8587,2.8587,2.8444,2.832,2.8287,2.8229,2.8118,2.8005,2.7992,2.7992,2.7992,2.7992,2.8051,2.8268,2.8164,2.8164,2.8268,2.8131,2.8046,2.8046,2.8046,2.8013,2.8013,2.817,2.8454,2.8838,2.7635,2.6676,2.5939,2.5729,2.566,2.5795,2.6414,2.699,2.7565,2.8286,2.8614,2.8708,2.892,2.9029,2.9098,0.0,0.0,0.0,0.0,0.0,0.0,0.0,0.0,0.0,0.0,0.0,0.6558,0.6407,0.6395,0.6395,0.6395,0.6395,0.6395,0.6395,0.6659,0.686,0.6975,0.7236,0.7182,0.6769,0.6647,0.6453,0.6179,0.5906,0.6526,0.0,0.7816,0.8391,0.9515,0.9278,0.9109,0.8893,0.8262,0.7953,0.7903,0.8044,0.885,0.9801,0.8349,0.8432,0.9123,0.7696,0.7196,0.7196,0.7196,0.7196,0.7196,0.7196,0.0,0.0,0.0,0.8474,1.0338,1.3915,1.7817,2.1696,0.0,2.5968,2.6002,2.644,2.6543,2.6589,2.6589,2.6589,2.6543,2.6346,2.6436,2.6744,2.7377,2.7855,2.8151,2.8151,2.8151,2.8151,2.8039,2.8066,2.8046,2.7921,2.7934,2.7934,2.7934,2.7835,2.7822,2.8006,2.7954,2.8,2.8183,2.8131,2.8112,2.8112,2.8112,2.8177,2.8373,2.8444,2.8734,2.9165,2.7933,2.7124,2.6689,2.637,2.6349,2.657,2.7155,2.7775,2.8415,2.8614,2.8779,2.8936,2.9052,2.9098,2.9098,0.0,0.0,0.0,0.0,0.0,0.0,0.0,0.0,0.0,0.0,0.0,0.6613,0.6413,0.0,0.0,0.0,0.6307,0.6276,0.6189,0.6392,0.6501,0.6501,0.669,0.658,0.6098,0.6086,0.6003,0.579,0.5663,0.6439,0.807,0.7793,0.8377,0.0,0.938,0.9121,0.8834,0.0,0.0,0.7894,0.8315,0.9473,1.0791,0.9448,0.9777,1.0677,0.8476,0.7684,0.7632,0.732,0.7196,0.7196,0.7196,0.7196,0.0,0.0,0.0,0.0,0.0,0.0,2.0431,2.3924,2.4875,2.5188,0.0,0.0,2.6396,0.0,2.6499,2.6521,2.6624,2.6346,2.6286,2.6892,2.7443,2.7809,2.7809,2.7901,2.7901,2.7809,2.7868,2.7835,2.7756,2.7723,2.7723,2.7723,2.759,2.759,2.7855,2.7888,2.7987,2.821,2.8243,2.8243,2.8243,2.8276,2.8438,2.8716,2.878,2.9004,2.9304,2.8117,2.7576,2.7541,2.6973,2.6967,2.7434,2.7849,2.8439,2.9075,2.8889,2.8936,2.9098,2.9098,2.9098,2.9098,0.0,0.0,0.0,0.0,0.0,0.0,0.0,0.0,0.0,0.0,0.0,0.6407,0.6395,0.6395,0.6307,0.604,0.6015,0.5906,0.5657,0.5651,0.5663,0.5663,0.5675,0.0,0.5274,0.5268,0.5262,0.5244,0.5481,0.6237,0.7452,0.8068,0.8863,0.9782,0.9513,0.9287,0.9055,0.0,0.0,0.0,0.0,1.0436,1.0632,1.1674,1.212,1.1922,0.9769,0.0,0.8811,0.7604,0.7196,0.7196,0.7196,0.7196,0.727,0.0,0.0,0.0,0.0,1.3931,0.0,2.0637,2.211,2.3062,0.0,0.0,2.605,2.643,2.6499,2.6499,2.6499,2.6748,2.6939,2.7007,2.7443,2.7809,2.7809,2.7656,2.759,2.7776,2.7523,2.7403,2.749,2.7523,2.7523,2.7523,2.749,2.7669,2.8046,2.8079,2.8243,2.8554,2.8554,2.8554,2.8554,2.8683,2.8876,2.9067,2.9257,2.9405,2.9464,2.8293,2.7982,2.8278,2.7196,2.7287,2.824,2.8264,2.8606,2.9098,2.9075,2.9091,2.9098,2.9098,2.9098,2.9098,0.0,0.0,0.0,0.0,0.0,0.0,0.0,0.0,0.0,0.0,0.0,0.0,0.0,0.5991,0.5851,0.5748,0.5736,0.5699,0.5602,0.5596,0.5596,0.5596,0.5596,0.5474,0.5213,0.5207,0.5259,0.5398,0.5351,0.6201,0.7864,0.7869,0.8543,0.9715,0.9222,0.9118,0.9231,0.8097,0.0,0.0,0.0,0.0,0.0,0.0,0.0,0.0,0.0,0.0,0.0,0.991,0.8614,0.715,0.6894,0.6821,0.0,0.0,0.0,0.0,0.0,0.0,0.0,1.8052,2.0531,2.2459,2.3744,2.5546,2.6953,2.6984,2.7014,2.6914,2.6562,2.6589,2.6692,2.6692,2.6918,2.7087,2.7087,2.7134,2.7235,2.7469,2.7369,2.7335,2.749,2.749,2.749,2.749,2.749,2.7669,2.8079,2.8112,2.8243,2.8587,2.8587,2.8587,2.8587,2.8716,2.8908,2.9099,2.9699,2.9997,3.0039,2.9264,2.9131,2.9478,2.8252,2.7947,2.8328,2.8654,2.892,2.9098,2.9098,2.9098,2.9098,2.9098,2.9098,2.9098,0.0,0.0,0.0,0.0,0.0,0.0,0.0,0.0,0.0,0.6283,0.0,0.0,0.0,0.0,0.5796,0.5614,0.5517,0.5426,0.5341,0.5335,0.5335,0.5335,0.5335,0.525,0.5073,0.5073,0.5124,0.5259,0.5251,0.5968,0.7356,0.7502,0.8147,0.9149,0.8755,0.9,0.0,0.0,0.0,0.8657,0.0,0.0,1.3491,0.0,0.0,0.0,0.0,0.0,0.0,0.0,0.0,0.0,0.0,0.0,0.0,0.0,0.0,0.8845,1.1032,0.0,0.0,0.0,0.0,1.9785,2.2408,0.0,2.6081,2.6907,2.721,2.7153,2.66,2.6499,2.6499,2.6499,2.6624,2.6679,2.6679,2.6829,2.6977,2.718,2.7134,2.7201,2.7403,2.7436,2.7469,2.749,2.749,2.7669,2.7967,2.8079,2.8243,2.8587,2.8587,2.8619,2.8651,2.8812,2.9085,2.9512,3.0101,3.0382,3.0365,2.9751,2.9612,2.9777,2.8761,2.84,2.8606,2.8943,2.9098,2.9098,2.9098,2.9098,2.9098,2.9098,2.9167,2.9213,0.0,0.0,0.0,0.0,0.0,0.0,0.0,0.0,0.6319,0.604,0.0,0.0,0.0,0.0,0.0,0.5657,0.5371,0.5104,0.4826,0.4796,0.4796,0.4796,0.4796,0.4796,0.4796,0.4796,0.4812,0.4828,0.5147,0.5536,0.5949,0.7015,0.7716,0.8107,0.8183,0.8949,1.0178,0.0,1.0006,1.0015,0.0,1.4114,1.3127,0.0,0.0,0.0,1.5548,1.5194,0.0,1.6562,0.0,0.0,0.0,0.0,0.0,0.0,0.0,0.8381,0.0,0.0,0.0,0.0,0.0,0.0,2.1609,0.0,2.3147,2.5926,2.6859,2.7052,2.6587,2.6499,2.6499,2.6499,2.6624,2.6679,2.6679,2.6679,2.676,2.6977,2.6829,2.6863,2.7268,2.7302,2.7369,2.749,2.749,2.759,2.7789,2.8,2.8276,2.8587,2.8587,2.8651,2.8812,2.9004,2.9498,3.024,3.0435,3.042,3.0232,2.9754,2.9378,2.9075,2.8559,2.8606,2.9098,2.9098,2.9098,2.9098,2.9098,2.9098,2.9098,2.9098,2.9259,2.9425,0.0,0.0,0.0,0.0,0.0,0.6365,0.6313,0.6346,0.6365,0.0,0.0,0.0,0.6131,0.6106,0.6046,0.5894,0.5639,0.5377,0.511,0.4915,0.4796,0.4796,0.4796,0.4796,0.4796,0.4796,0.5046,0.5529,0.5614,0.6019,0.6702,0.7202,0.7752,0.8329,0.8545,0.8921,0.9345,0.8439,0.0,0.0,1.194,1.3622,0.0,0.0,0.0,0.0,0.0,1.9576,1.869,0.0,1.6618,1.2471,0.0,0.0,0.0,0.0,0.0,0.7546,0.7817,0.0,0.0,0.0,0.0,0.0,0.0,0.0,2.0268,2.3362,2.409,2.4668,2.6223,2.6499,2.6499,2.6499,2.6521,2.6555,2.6555,2.6555,2.6624,2.676,2.6726,2.6863,2.7268,2.7302,2.7369,0.0,2.749,2.7669,2.8,2.8295,2.8503,2.8587,2.8683,2.8748,2.8812,2.9131,2.924,2.9068,2.9973,2.9975,2.9156,2.9743,2.9656,2.9075,2.8943,2.8967,2.9098,2.9098,2.9098,2.9098,2.9098,2.9098,2.9098,2.9098,2.9098,2.9044,0.0,0.0,0.6461,0.6702,0.6744,0.6781,0.689,0.6811,0.6761,0.0,0.0,0.0,0.6582,0.6636,0.6526,0.6198,0.5918,0.5639,0.5347,0.4991,0.4918,0.5205,0.5268,0.5382,0.5549,0.5556,0.5744,0.6131,0.5998,0.6166,0.6634,0.7161,0.7605,0.7998,0.8267,0.8557,0.8774,0.0,0.0,0.0,1.3016,0.0,0.0,1.8703,2.0431,0.0,0.0,0.0,2.0298,2.2115,1.8515,0.0,0.0,0.0,0.0,0.0,0.0,0.7684,0.7335,0.7563,0.7948,0.8177,0.0,0.0,1.4959,1.7011,0.0,0.0,2.4611,2.5131,2.6298,2.6499,2.6499,2.6499,2.6499,2.6499,2.6499,2.6499,2.6521,2.6624,2.6624,2.6726,2.7032,2.7146,2.7248,2.7403,2.7469,2.7669,2.8079,2.8327,2.8509,2.8587,2.8716,2.8844,2.8908,2.9246,2.9288,2.9111,2.9997,2.9947,2.9103,2.985,2.9801,2.9098,2.9098,2.9098,2.9098,2.9098,2.9098,2.9098,2.9098,2.9098,2.9075,2.9052,2.9036,2.9036,0.0,0.0,0.6617,0.7115,0.7224,0.7334,0.7601,0.7419,0.7303,0.0,0.7337,0.737,0.7675,0.7822,0.7597,0.689,0.6454,0.6092,0.5757,0.5237,0.5189,0.578,0.5972,0.62,0.6506,0.6578,0.6594,0.6605,0.6293,0.6175,0.6245,0.7018,0.7357,0.7322,0.7562,0.7906,0.8249,0.7549,0.0,0.9894,1.5093,1.6239,0.0,0.0,2.1006,1.9522,2.2157,2.1861,2.0775,2.4329,2.1193,0.0,0.0,0.0,0.0,0.0,0.738,0.8658,0.6931,0.7179,0.802,0.849,0.0,0.0,1.5935,1.7278,1.8549,0.0,2.5391,2.5762,2.5619,2.5632,2.5644,2.5581,2.5883,2.621,2.6461,2.6499,2.6499,2.6499,2.6499,2.6555,2.6679,2.6875,2.7079,2.7268,2.7469,2.7709,2.8019,2.8208,2.8403,2.8556,2.8684,2.8866,2.9035,2.9254,2.9478,2.972,3.019,3.0092,2.9521,2.991,2.9745,2.9121,2.9121,2.9121,2.9121,2.9121,2.9098,2.9098,2.9098,2.9075,2.9052,2.8943,2.9036,2.9167,0.6052,0.6428,0.6829,0.7145,0.7376,0.7588,0.7808,0.7756,0.7708,0.7794,0.8377,0.8997,0.9577,0.9669,0.9627,0.9465,0.8335,0.7486,0.7221,0.6301,0.578,0.5796,0.6244,0.6313,0.597,0.638,0.6609,0.6603,0.6537,0.6663,0.6978,0.7158,0.7061,0.6764,0.6821,0.6894,0.7009,0.7473,0.0,1.165,1.3403,0.0,1.7398,2.0881,2.2765,2.3701,2.4531,2.4552,2.3961,2.2447,2.076,1.8516,0.0,0.0,0.0,0.8474,0.0,0.0,0.0,0.0,0.0,0.0,0.0,0.0,0.9771,1.0611,1.1988,0.0,1.6009,1.7105,1.9321,2.0135,2.0326,1.9886,2.2046,2.4406,2.6235,2.6499,2.6499,2.6499,2.6499,2.6555,2.6679,2.6875,2.7079,2.7268,2.7716,2.7866,2.7551,2.8187,2.8452,2.8198,2.8384,2.8561,2.8771,2.8983,2.9117,2.9161,2.9576,2.9461,2.888,2.9288,2.9386,2.9259,2.9259,2.9259,2.9259,2.9259,2.919,2.9098,2.9098,2.9029,2.8943,2.8904,2.8826,2.8716,0.6317,0.6812,0.7323,0.7729,0.8022,0.8471,0.9301,0.9202,0.9187,0.9785,1.0233,1.04,1.0135,1.0038,0.9781,0.9242,0.8099,0.7427,0.7494,0.6562,0.6114,0.6382,0.6714,0.6975,0.714,0.7189,0.7312,0.7549,0.7105,0.7002,0.7196,0.7196,0.754,0.8107,0.7275,0.7366,0.8107,0.0,0.8585,1.0607,1.4161,0.0,1.9551,2.2763,2.4378,2.4974,2.5218,2.5312,2.4989,2.2899,2.0815,0.0,0.0,1.5437,1.3927,0.0,1.0601,1.1471,0.0,0.0,0.0,0.8236,0.0,0.0,0.0,0.0,0.0,0.0,1.559,1.6113,1.8135,1.8308,1.8255,1.8544,2.0901,2.2694,2.2749,2.4928,2.6499,2.6499,2.6499,2.6521,2.6589,2.676,2.6849,2.6834,2.7135,2.718,2.6872,2.7373,2.768,2.7644,2.8094,2.8454,2.8691,2.9157,2.927,2.9022,2.9428,2.9328,2.8709,2.9113,2.9259,2.9213,2.9282,2.922,2.9106,2.9167,2.9114,2.8951,2.8982,2.8967,2.8881,2.8779,2.8692,2.8597,0.6776,0.7385,0.799,0.8402,0.8883,0.9618,1.0784,1.0709,1.0835,1.1743,1.1984,1.1731,1.0783,1.0788,1.0512,0.9639,0.8834,0.8346,0.824,0.7367,0.7008,0.7333,0.733,0.7702,0.8529,0.8056,0.7945,0.8242,0.754,0.7159,0.7086,0.7159,0.7842,0.8968,0.8385,0.0,0.0,0.0,0.0,1.0616,0.0,1.8508,1.9907,2.3675,2.4862,2.4563,2.5097,2.5312,2.5074,2.3722,2.1225,1.8783,1.9163,1.7547,0.0,0.0,0.0,0.0,0.0,0.0,0.0,0.0,0.0,0.9356,0.0,0.0,0.0,0.0,0.0,0.0,0.0,0.0,0.0,0.0,0.0,0.0,0.0,0.0,0.0,0.0,0.0,2.6122,2.5594,2.5595,2.5813,2.6283,2.5992,2.6015,2.6505,2.6909,2.7191,2.7363,2.794,2.8375,2.8695,2.93,2.9457,2.9172,2.9559,2.9441,2.8912,2.9198,2.9282,2.9183,2.9259,2.9175,2.899,2.9098,2.9021,2.8826,2.8865,2.8873,2.8826,2.8668,2.8597,2.8597,0.7262,0.8148,0.8819,0.876,0.9874,1.0784,1.081,1.1281,1.1735,1.2017,1.2693,1.3107,1.3113,1.4037,1.4614,0.0,1.4235,1.3258,1.1338,1.0444,0.9576,0.8628,0.8038,0.8055,0.8745,0.8125,0.7646,0.7348,0.7241,0.7022,0.6671,0.7031,0.6922,0.657,0.9946,0.0,0.0,0.0,1.3686,0.0,1.7015,1.6287,0.0,2.0665,2.2515,2.2519,2.457,2.5312,2.5011,0.0,2.2075,2.1002,0.0,1.81,1.9685,1.3022,0.0,0.0,0.0,0.0,0.0,0.0,1.0786,0.0,0.0,0.0,0.0,0.9914,0.0,0.0,0.0,0.0,0.0,0.0,0.0,0.0,0.0,0.0,0.0,0.0,0.0,0.0,2.2284,2.1817,2.2864,2.5828,2.4297,2.4467,2.7294,2.801,2.8179,2.7917,2.7996,2.8245,2.8704,2.8794,2.9138,2.98,2.9863,2.9786,2.9592,2.9518,2.9473,2.945,2.9328,2.9266,2.9259,2.9282,2.9129,2.8873,2.8826,2.8732,2.8621,2.8597,2.8629,2.8653,0.7261,0.8062,0.876,0.8693,0.9558,1.0579,1.1507,1.2646,1.3312,1.3174,1.3644,1.3802,0.0,0.0,0.0,0.0,0.0,1.3051,0.0,1.1322,1.0191,0.8685,0.8094,0.8057,0.8612,0.7864,0.7473,0.7545,0.7314,0.6995,0.6607,0.7013,0.7412,0.7925,1.0829,0.0,1.1704,0.0,1.3623,0.0,0.0,0.0,0.0,2.1908,2.4685,2.4942,2.6034,2.6215,2.5815,0.0,2.3026,0.0,0.0,0.0,0.0,0.0,0.0,0.0,0.0,0.0,0.0,0.0,0.0,0.0,1.0169,0.0,0.9798,0.0,0.0,0.0,0.0,0.0,0.0,0.0,1.1685,0.0,0.0,0.0,0.0,0.0,0.0,0.0,0.0,0.0,0.0,2.5457,2.3483,2.353,2.6782,2.7279,2.7455,2.7483,2.7944,2.8335,2.8685,2.9143,2.9576,2.9896,2.983,2.972,2.9586,2.9457,2.9344,2.9275,2.9282,2.9198,2.9082,2.9144,2.9052,2.8858,2.9059,2.892,2.8621,2.8803,2.8779,2.8645,0.7188,0.7991,0.8739,0.8739,0.9442,1.0573,1.2181,1.3327,1.3974,1.392,1.4148,0.0,1.3553,1.3874,0.0,0.0,1.4965,1.4511,0.0,0.0,1.1762,1.0818,0.8983,0.8658,1.0089,0.8302,0.7445,0.7637,0.7342,0.6995,0.6607,0.7013,0.7632,0.8533,0.0,1.3155,1.4225,0.0,1.5007,1.5862,1.6289,1.6859,1.8036,2.3386,2.6156,2.7191,2.7259,2.7066,2.6699,2.5952,2.3658,2.1444,2.3242,0.0,0.0,0.0,0.0,0.0,1.2855,0.0,0.0,0.0,0.0,0.0,0.0,0.0,0.0,0.0,0.0,0.0,0.0,0.0,0.0,0.0,0.0,0.0,0.0,0.0,0.0,0.0,0.0,0.0,0.0,0.0,0.0,0.0,0.0,2.244,2.6788,2.7122,2.7276,2.753,2.811,2.8535,2.8748,2.9335,2.9643,2.9665,2.9576,2.9525,2.9496,2.935,2.9259,2.9167,2.9213,2.9129,2.8967,2.9052,2.9068,2.9068,2.9467,2.9355,2.8974,2.9097,2.9067,2.8967,0.7202,0.8219,0.9087,0.9087,1.0077,1.1264,1.2498,1.2735,1.3029,1.381,0.0,0.0,0.0,0.0,0.0,0.0,0.0,2.0085,1.6954,0.0,1.5455,1.6493,1.1361,1.0273,1.4115,0.9992,0.7591,0.7214,0.7196,0.6995,0.6607,0.7013,0.7013,0.6878,1.1281,1.3186,1.3282,1.6768,2.0053,2.2936,2.2582,2.3921,2.5988,0.0,2.5195,2.7904,2.7593,0.0,2.7466,2.4841,2.3842,2.3261,2.0746,0.0,0.0,0.0,0.0,0.0,0.0,0.0,0.0,1.2101,0.0,0.0,0.0,0.0,1.0762,0.0,0.0,0.0,0.0,0.0,0.0,0.0,0.0,0.0,0.0,0.0,0.0,0.0,0.0,0.0,0.0,0.0,0.0,0.0,0.0,0.0,2.797,2.8348,2.8429,2.8637,2.8661,2.874,2.8881,2.8928,2.8997,2.9136,2.912,2.9243,2.9496,2.935,2.9305,2.9282,2.9167,2.9098,2.9075,2.9098,2.9289,2.9633,3.0081,3.0107,2.9794,2.9361,2.9512,2.9859,0.7591,0.7945,0.8245,0.8245,0.906,1.0118,1.1325,1.2413,1.3525,0.0,1.5153,0.0,0.0,1.8056,1.8976,0.0,0.0,1.9904,1.7894,1.6606,0.0,1.6388,1.2095,1.1037,0.0,1.0225,0.8043,0.7591,0.7333,0.6995,0.6607,0.7104,0.7119,0.6915,0.0,1.4256,0.0,0.0,0.0,0.0,0.0,2.321,2.5333,0.0,2.6602,2.7828,2.8837,2.9026,2.8559,2.7306,2.5671,2.4178,2.4161,2.2787,2.1323,2.2017,2.1726,2.0841,1.9269,2.0169,2.036,1.5334,0.0,0.0,0.0,0.0,0.0,0.0,0.0,0.0,0.0,0.0,0.0,0.0,0.0,0.0,0.0,0.0,0.0,0.0,0.0,0.0,0.0,0.0,0.0,0.0,0.0,0.0,0.0,2.8411,2.842,2.8501,2.8629,2.8685,2.8646,2.899,2.9136,2.9097,2.9182,2.9266,2.9373,2.956,2.947,2.9167,2.9448,2.938,2.9121,2.9448,2.9633,2.9815,3.0543,3.0828,3.0771,3.0297,2.9886,2.9589,0.8052,0.7798,0.7673,0.799,0.8756,0.9677,1.0745,1.2147,0.0,0.0,1.6406,0.0,1.9549,0.0,2.0931,0.0,2.214,2.1283,1.9056,1.8666,0.0,1.8091,1.5083,0.0,0.0,1.2855,1.0244,0.9518,0.8267,0.7366,0.6821,0.7207,0.727,0.7154,0.0,1.3877,1.7789,0.0,2.1539,0.0,0.0,2.3849,0.0,0.0,2.6942,2.7187,2.9391,2.9986,2.9666,2.9078,2.7754,2.6416,2.6858,2.5186,2.3267,2.4461,2.3825,2.2547,2.1655,2.2585,2.2704,1.8067,1.8042,1.7812,1.2779,0.0,1.2592,0.0,0.0,0.0,0.0,0.0,0.0,0.0,0.0,0.0,0.0,0.0,0.0,0.0,0.0,0.0,0.0,0.0,0.0,0.0,0.0,0.0,0.0,0.0,2.8299,2.8411,2.8525,2.8566,2.8487,2.8834,2.9013,2.8951,2.9036,2.922,2.9493,2.97,2.9722,2.9611,2.9924,2.9881,2.9633,2.9924,3.0123,3.0314,3.0868,3.122,3.1353,3.0951,3.0402,2.9946,0.8515,0.7874,0.7592,0.8442,0.9207,0.9978,1.0809,1.1951,1.3719,0.0,1.7613,1.9036,2.1455,2.2957,2.3787,2.3787,2.5033,2.428,2.0648,2.1729,0.0,0.0,2.0076,2.0452,2.3157,0.0,0.0,0.0,0.9843,0.8065,0.7238,0.7351,0.742,0.7448,0.8462,0.0,1.7738,1.9046,2.31,2.8502,2.6685,2.5931,2.5963,2.649,2.6327,2.6212,2.9312,3.0533,3.0607,2.9975,2.9768,2.9611,2.8476,2.8274,2.8281,2.7699,2.7516,2.6987,2.4602,2.399,2.3248,2.031,2.0016,1.9394,1.5261,0.0,1.6095,0.0,0.0,0.0,0.0,0.0,0.0,0.0,0.0,0.0,0.0,0.0,0.0,0.0,0.0,0.0,0.0,0.0,0.0,0.0,0.0,0.0,0.0,0.0,2.7936,2.8372,2.8372,2.8405,2.8463,2.8503,2.8574,2.8708,2.8732,2.9113,2.9793,2.9837,3.0097,3.0497,3.0518,3.0518,3.0497,3.0518,3.0764,3.1103,3.1123,3.1334,3.1598,3.1283,3.105,3.0928,0.8709,0.8999,0.9347,0.9564,0.9653,1.007,1.1182,1.2252,1.4234,0.0,1.9225,2.1051,2.4324,2.5054,2.5273,2.5273,2.5611,0.0,0.0,0.0,0.0,2.4484,2.1621,2.1134,2.3582,1.7622,0.0,1.3572,0.0,0.8079,0.7863,0.7652,0.7554,0.7592,0.0,0.0,1.6857,1.7857,2.1456,2.6444,2.5967,2.5235,2.4704,2.7112,2.7165,2.6445,2.9511,3.066,3.057,2.9839,2.967,2.9688,2.9003,2.8612,2.8381,2.8203,2.7863,2.7359,2.6707,2.6486,2.5888,2.3762,2.2963,2.2045,1.9615,1.9731,1.9907,0.0,0.0,0.0,0.0,0.0,0.0,0.0,0.0,0.0,0.0,0.0,0.0,0.0,0.0,0.0,0.0,0.0,0.0,0.0,0.0,0.0,0.0,0.0,0.0,2.8027,2.8103,2.8152,2.8268,2.8462,2.8629,2.8708,2.9273,2.9633,2.9815,3.046,3.0666,3.0518,3.0825,3.0784,3.0518,3.0808,3.1004,3.1142,3.1485,3.1747,3.1875,3.1164,3.1261,3.173,0.9326,1.0104,1.078,1.0599,1.1577,1.2608,1.3288,1.3336,1.4823,1.9094,2.0405,2.2074,2.4971,2.6302,2.6999,2.6999,2.6999,0.0,2.4455,0.0,0.0,2.5105,2.4309,2.4491,2.5833,2.1236,0.0,1.5686,0.0,0.0,0.8011,0.7847,0.7845,0.0,0.0,1.1752,1.5915,1.9601,2.2623,2.5019,2.6284,2.6406,0.0,2.7727,2.8214,2.8191,2.9845,3.0495,3.0482,3.0047,2.9969,2.9978,2.9387,2.8892,2.8503,2.8326,2.7879,2.7403,2.7403,2.7369,2.7077,2.6295,2.5998,2.5288,2.2977,2.294,2.2975,2.1495,2.1107,2.0707,0.0,0.0,0.0,0.0,0.0,0.0,0.0,0.0,0.0,0.0,0.0,0.0,0.0,0.0,0.0,0.0,0.0,0.0,0.0,0.0,0.0,2.688,2.6684,2.7085,2.8284,2.7774,2.8077,2.9182,2.9815,3.0204,3.0377,3.0868,3.1083,3.1064,3.1315,3.1276,3.11,3.1315,3.1411,3.143,3.169,3.1911,3.2037,3.1449,3.1582,3.2038,1.0211,0.0,0.0,0.0,0.0,1.6069,1.6367,1.5426,1.62,2.0463,2.1709,2.2984,2.4904,2.715,2.851,2.851,2.851,2.7472,2.509,2.7156,2.7436,2.5006,2.7192,2.8431,2.8431,2.5681,2.2243,0.0,0.0,1.1857,0.7984,0.8046,0.0,0.0,0.0,0.0,0.0,2.208,2.4628,2.4411,2.7067,2.817,2.8231,2.837,2.925,3.033,3.0152,3.0228,3.0368,3.033,3.033,3.0279,2.9754,2.9217,2.8739,2.8379,2.7855,2.7385,2.7385,2.7286,2.7369,2.7973,2.8519,2.8326,2.5925,2.5877,2.5825,2.4021,2.2576,2.2385,2.4776,0.0,0.0,0.0,0.0,0.0,0.0,0.0,0.0,0.0,0.0,0.0,0.0,0.0,0.0,0.0,0.0,0.0,0.0,0.0,0.0,2.5856,2.5393,2.6054,2.7996,2.7087,2.7538,2.9389,3.0182,3.0747,3.1103,3.1162,3.1411,3.18,3.18,3.18,3.18,3.18,3.18,3.18,3.18,3.191,3.2037,3.1893,3.1912,3.2038,1.1385,0.0,0.0,0.0,0.0,1.7485,1.9315,1.9767,2.0798,2.3397,2.4572,2.5849,2.763,2.8242,2.851,2.851,2.851,0.0,0.0,0.0,0.0,2.7553,2.7977,2.8179,2.8002,2.502,2.1929,0.0,1.5372,1.1906,0.8389,0.8463,0.8287,0.0,0.0,0.0,1.7522,2.0463,0.0,2.5763,2.7341,2.8036,2.8307,2.9353,2.9936,3.0152,3.0113,3.0113,3.0113,2.9972,3.0011,3.0139,3.0037,2.9693,2.9369,2.9266,2.852,2.7699,2.7699,2.7276,2.7108,2.8352,2.8615,2.877,2.9398,2.9652,2.9639,2.9276,2.8973,2.8093,2.579,0.0,0.0,0.0,0.0,0.0,0.0,0.0,0.0,0.0,0.0,0.0,0.0,0.0,0.0,0.0,0.0,0.0,0.0,0.0,0.0,0.0,2.7794,0.0,0.0,0.0,2.8623,2.7106,2.9739,3.1044,3.1123,3.1504,3.1727,3.18,3.18,3.18,3.18,3.18,3.18,3.18,3.18,3.1818,3.1873,3.2001,3.2055,3.209,1.2592,0.0,0.0,0.0,0.0,2.0773,2.3375,2.5118,2.5875,2.5043,2.5565,2.6377,2.7353,2.8814,2.9492,2.8943,2.8919,2.8799,2.8522,2.851,2.8431,2.8219,2.8219,2.8111,2.7893,2.6453,2.334,1.855,1.6871,1.3416,0.8392,0.8432,0.8375,0.839,0.0,1.4141,0.0,0.0,2.4228,2.5928,2.805,2.895,2.9114,2.9732,2.9844,2.9754,2.9882,2.9844,2.9754,2.9779,2.9869,2.9934,2.9934,2.958,2.9188,2.9287,2.9039,2.8608,2.83,2.8253,2.8419,2.9063,2.9125,2.9345,3.0387,3.0598,3.0598,3.0598,3.0598,2.9522,2.6045,2.1809,0.0,0.0,0.0,0.0,0.0,0.0,0.0,0.0,0.0,0.0,0.0,0.0,0.0,0.0,0.0,0.0,0.0,0.0,0.0,0.0,0.0,0.0,2.7844,0.0,2.8904,2.8923,3.0635,3.1449,3.1485,3.169,3.18,3.18,3.18,3.18,3.18,3.18,3.18,3.18,3.18,3.18,3.1818,3.191,3.1929,3.1965,0.0,1.4597,0.0,0.0,2.1371,2.3757,2.6438,2.9141,2.9833,2.6933,2.686,2.7179,2.7397,2.9427,3.0486,2.9702,2.9625,2.9443,2.9032,2.9008,2.8827,2.8506,2.8506,2.8338,2.8042,2.8042,2.5215,0.0,1.8724,1.5311,0.946,0.8844,0.9055,1.0114,1.3643,1.6234,1.8265,2.3231,2.574,2.6624,2.8875,2.9792,2.9792,2.9792,2.9663,2.9509,2.9702,2.965,2.9509,2.965,2.974,2.9792,2.9792,2.9478,2.9114,2.929,2.9359,2.9267,2.8812,2.904,2.9424,2.9516,2.956,2.9777,3.0447,3.0598,3.0598,3.0598,3.0598,2.9493,2.5899,2.3122,2.0961,0.0,0.0,0.0,0.0,0.0,0.0,0.0,0.0,0.0,0.0,0.0,0.0,0.0,0.0,0.0,0.0,0.0,0.0,0.0,0.0,2.6954,2.8388,0.0,2.9235,3.0412,3.1356,3.18,3.18,3.18,3.18,3.18,3.18,3.18,3.18,3.18,3.18,3.18,3.18,3.18,3.18,3.18,3.18,3.1837,1.8126,0.0,1.7318,2.1815,2.334,2.4568,2.6346,2.9181,3.0861,3.0343,3.0307,3.0372,3.038,3.0659,3.0758,3.0667,3.0655,3.0642,3.0593,3.0581,3.0237,2.9505,2.948,2.9141,2.8443,2.8431,2.684,0.0,0.0,1.699,1.3227,1.0614,1.1055,1.4074,1.4499,1.8127,2.3916,2.4523,2.6546,2.9428,2.9691,2.9792,2.9792,2.9792,2.9792,2.9753,2.9792,2.9792,2.974,2.9509,2.9599,2.9792,2.9792,2.9754,2.9716,2.9742,2.9387,2.8951,2.8899,2.866,2.8582,2.9198,2.9467,2.9777,3.0447,3.0598,3.0598,3.0598,3.0598,2.9392,2.5416,2.6402,2.6063,0.0,0.0,0.0,0.0,0.0,0.0,0.0,0.0,0.0,0.0,0.0,0.0,0.0,0.0,0.0,0.0,0.0,0.0,2.4854,0.0,2.4819,2.2857,2.8553,3.031,2.813,3.062,3.18,3.18,3.18,3.18,3.18,3.18,3.18,3.18,3.18,3.18,3.18,3.18,3.18,3.18,3.18,3.18,3.18,2.2015,2.1375,2.1834,2.5741,2.6424,2.738,3.0089,3.1547,3.2276,3.2192,3.1905,3.1734,3.193,3.2095,3.194,3.1311,3.1287,3.1139,3.0836,3.0811,3.0601,3.0146,3.0133,2.9796,2.9008,2.8996,2.74,2.4099,2.0991,1.7702,1.4253,1.3099,1.4197,1.7223,1.9605,2.2151,2.4811,2.6894,2.8561,2.9792,2.9792,2.9792,2.9792,2.9611,2.956,2.9638,3.0126,3.0266,3.0368,3.1093,3.0557,2.9521,2.9417,2.978,3.0266,3.0266,3.095,3.1465,3.0465,3.0607,3.0835,3.0069,3.0099,3.0387,3.0568,3.0672,3.0702,3.0612,3.0717,3.0353,2.8746,2.7389,2.6528,2.6524,0.0,0.0,0.0,0.0,0.0,0.0,0.0,0.0,0.0,0.0,0.0,0.0,0.0,0.0,0.0,0.0,0.0,2.1745,0.0,2.7686,2.4946,2.9501,3.1261,3.0207,3.1297,3.18,3.18,3.18,3.18,3.18,3.18,3.18,3.18,3.18,3.18,3.18,3.18,3.18,3.18,3.18,3.18,3.18,2.5421,2.4817,2.5386,2.9297,2.9212,2.9585,3.2632,3.3124,3.3124,3.3124,3.2784,3.2599,3.2803,3.2995,3.2789,3.2104,3.2036,3.1863,3.1497,3.1472,3.1314,3.0999,3.0987,3.0646,2.9947,2.9935,2.8645,2.6017,2.2965,2.014,1.7557,1.6534,1.7669,2.0652,2.346,2.5269,2.6346,2.8787,2.9792,2.9792,2.9792,2.9869,2.9972,2.9973,2.9999,3.0126,3.0957,3.1217,3.1254,3.2177,3.1523,3.0253,3.0139,3.0594,3.1106,3.1106,3.2104,3.297,3.1859,3.1954,3.2099,3.1061,3.0773,3.0762,3.0866,3.0836,3.0762,3.0672,3.0896,3.1087,3.1087,2.8843,2.7598,2.9442,0.0,0.0,0.0,0.0,0.0,0.0,0.0,0.0,0.0,0.0,0.0,0.0,0.0,0.0,0.0,0.0,0.0,0.0,0.0,0.0,2.6825,3.0124,3.18,3.18,3.18,3.18,3.18,3.18,3.18,3.18,3.18,3.18,3.18,3.18,3.18,3.18,3.18,3.18,3.18,3.18,3.1801,3.1819,2.8071,2.6944,2.7097,3.2174,3.1265,3.0616,3.2764,3.3124,3.3124,3.3124,3.3111,3.3111,3.3068,3.3124,3.3124,3.3068,3.3068,3.3068,3.3056,3.3056,3.2805,3.2185,3.216,3.1938,3.1386,3.1373,3.111,3.0505,2.711,2.5148,2.4498,2.1126,2.1362,2.4611,2.4661,2.6593,2.9729,2.9779,2.9792,2.9792,2.9792,3.0049,3.047,3.1117,3.1426,3.1613,3.255,3.2629,3.2285,3.2321,3.2285,3.2321,3.25,3.2429,3.2285,3.2285,3.2451,3.2619,3.2571,3.1972,3.1418,3.1865,3.1305,3.0747,3.1335,3.1117,3.0791,3.0791,3.1043,3.1307,3.1307,3.1378,3.0385,2.7264,2.966,0.0,0.0,0.0,0.0,0.0,1.9625,1.8072,2.3997,0.0,0.0,0.0,0.0,0.0,0.0,0.0,0.0,2.5974,2.6418,0.0,2.6791,3.0124,3.18,3.18,3.18,3.18,3.18,3.18,3.18,3.18,3.18,3.18,3.18,3.18,3.18,3.18,3.18,3.18,3.18,3.18,3.1856,3.1876,3.1531,3.1161,3.1206,3.2807,3.2554,3.2301,3.3018,3.3124,3.3124,3.3124,3.3124,3.3124,3.3124,3.3124,3.3124,3.3124,3.3124,3.3124,3.3124,3.3124,3.2993,3.2805,3.2805,3.2541,3.1964,3.1951,3.1687,3.1148,2.8099,2.6302,2.5786,2.4691,2.5873,2.8905,2.8391,2.906,3.052,2.9998,2.9792,2.9856,3.0607,3.0981,3.1154,3.2037,3.2387,3.2536,3.3213,3.338,3.3457,3.4206,3.4308,3.4138,3.4457,3.3905,3.3136,3.3136,3.3727,3.4211,3.3529,3.301,3.2529,3.2012,3.147,3.1102,3.1205,3.1102,3.1043,3.1117,3.1307,3.1466,3.1567,3.1625,3.1293,3.0295,3.1046,3.1434,3.0416,0.0,0.0,0.0,2.4361,2.3722,0.0,2.273,0.0,0.0,0.0,0.0,0.0,0.0,0.0,0.0,2.7448,0.0,2.689,3.016,3.18,3.18,3.18,3.18,3.18,3.18,3.18,3.18,3.18,3.18,3.18,3.18,3.18,3.18,3.18,3.18,3.18,3.18,3.1856,3.1894,3.3124,3.3124,3.3124,3.3124,3.3124,3.3124,3.3124,3.3124,3.3124,3.3124,3.3124,3.3124,3.3124,3.3124,3.3124,3.3124,3.3124,3.3124,3.3124,3.3124,3.3124,3.3124,3.3124,3.2905,3.2541,3.2541,3.2265,3.17,3.0011,2.8904,2.8344,2.8666,2.9732,3.1341,3.0859,3.0934,3.1304,3.0859,3.0759,3.0921,3.1596,3.2028,3.2374,3.3226,3.3545,3.3622,3.4302,3.448,3.4438,3.5213,3.5326,3.518,3.5439,3.492,3.4225,3.4158,3.4706,3.5172,3.4546,3.3777,3.3087,3.2641,3.1856,3.119,3.119,3.1278,3.1336,3.1322,3.1452,3.164,3.1726,3.1783,3.1796,3.1796,3.202,3.1921,3.1172,0.0,2.9408,0.0,0.0,0.0,0.0,2.6277,2.5271,0.0,0.0,0.0,0.0,0.0,0.0,2.6236,3.0114,3.1355,2.9625,3.1642,3.2507,3.2214,3.1921,3.18,3.18,3.18,3.18,3.18,3.18,3.18,3.18,3.18,3.18,3.18,3.18,3.18,3.18,3.18,3.1874,3.1966,3.3124,3.3124,3.3124,3.3124,3.3124,3.3124,3.3124,3.3124,3.3124,3.3124,3.3124,3.3124,3.3124,3.3124,3.3124,3.3124,3.3124,3.3124,3.3124,3.3124,3.3124,3.3124,3.3124,3.3124,3.3124,3.3124,3.2805,3.2277,3.2583,3.2424,3.1823,3.2624,3.2711,3.225,3.2137,3.211,3.2182,3.211,3.2277,3.2593,3.2713,3.3143,3.3853,3.464,3.4817,3.4795,3.5703,3.5653,3.5261,3.5439,3.5504,3.5504,3.5504,3.5504,3.5472,3.5294,3.5359,3.5504,3.5504,3.4341,3.3206,3.3592,3.2348,3.1087,3.1278,3.1568,3.1698,3.1409,3.1568,3.1784,3.1799,3.1898,3.1996,3.2053,3.247,3.2157,3.03,3.0489,2.9391,2.5543,0.0,2.6086,2.8544,2.8791,3.0182,0.0,0.0,0.0,0.0,0.0,2.5732,3.3458,3.3765,3.3894,3.4096,3.4096,3.3714,3.299,3.2283,3.1921,3.1869,3.1905,3.187,3.1818,3.1818,3.1818,3.1818,3.1818,3.1818,3.1818,3.1818,3.1818,3.1818,3.18,3.1928,3.2073,3.3124,3.3124,3.3124,3.3124,3.3124,3.3124,3.3124,3.3124,3.3124,3.3124,3.3124,3.3124,3.3124,3.3124,3.3124,3.3124,3.3124,3.3124,3.3124,3.3124,3.3124,3.3124,3.3124,3.3124,3.3124,3.3124,3.3048,3.2867,3.2984,3.3021,3.3077,3.283,3.3046,3.3642,3.2581,3.2398,3.2897,3.2326,3.2277,3.2664,3.3553,3.4168,3.464,3.5706,3.5911,3.5703,3.591,3.5765,3.5439,3.5472,3.5504,3.5504,3.5504,3.5504,3.5504,3.5439,3.5472,3.5504,3.5504,3.4844,3.405,3.365,3.2467,3.1438,3.1641,3.1626,3.1597,3.167,3.1626,3.1626,3.1756,3.1813,3.1968,3.2398,3.1386,3.0525,3.0474,2.9627,2.8732,2.7948,2.8164,2.9227,3.1411,3.1624,3.1225,0.0,0.0,0.0,0.0,2.8906,3.0155,3.4514,3.4083,3.3917,3.4177,3.4135,3.401,3.38,3.3647,3.3231,3.2645,3.2756,3.2465,3.1875,3.1875,3.193,3.2019,3.1912,3.1947,3.2019,3.1912,3.1875,3.1875,3.1819,3.1928,3.2108,3.3124,3.3124,3.3124,3.3124,3.3124,3.3124,3.3124,3.3124,3.3124,3.3124,3.3124,3.3124,3.3124,3.3124,3.3124,3.3124,3.3124,3.3124,3.3124,3.3124,3.3124,3.3124,3.3124,3.3124,3.3124,3.3124,3.3124,3.3124,3.3869,3.4181,3.4047,3.4526,3.4841,3.495,3.4193,3.397,3.4177,3.3774,3.3808,3.4216,3.4828,3.5287,3.5627,3.6274,3.6289,3.6005,3.6005,3.5765,3.5504,3.5504,3.5504,3.5504,3.5504,3.5504,3.5504,3.5504,3.5504,3.5504,3.5504,3.4996,3.4279,3.329,3.2512,3.1913,3.1701,3.1568,3.1539,3.1641,3.1783,3.1938,3.2038,3.2259,3.2547,3.2815,3.1555,3.0617,3.0845,2.9736,2.9264,3.0286,3.0619,3.1596,3.3728,3.3907,3.3371,3.2141,3.2395,0.0,3.2159,3.2656,3.371,3.5411,3.5111,3.5012,3.5157,3.4789,3.4614,3.4614,3.4268,3.3869,3.3438,3.3513,3.3138,3.2449,3.2449,3.2331,3.209,3.1966,3.1984,3.2073,3.1929,3.1912,3.1966,3.1838,3.1928,3.2073,3.3262,3.3206,3.3224,3.3093,3.3124,3.3124,3.3124,3.3124,3.3124,3.3124,3.3124,3.3124,3.3124,3.3124,3.3124,3.3124,3.3124,3.3124,3.3124,3.3124,3.3124,3.3124,3.3124,3.3154,3.3283,3.3398,3.3398,3.3283,3.4828,3.5331,3.487,3.6396,3.6765,3.6188,3.5981,3.5785,3.5549,3.5444,3.5608,3.6005,3.5973,3.6163,3.6492,3.646,3.6273,3.6005,3.6005,3.5765,3.5504,3.5504,3.5504,3.5504,3.5504,3.5504,3.5504,3.5504,3.5504,3.5504,3.5504,3.4996,3.4234,3.3095,3.2662,3.2333,3.178,3.157,3.1539,3.1611,3.2051,3.241,3.252,3.2895,3.305,3.2554,3.1607,3.0831,3.0505,2.9943,3.0245,3.2115,3.2636,3.3537,3.5328,3.5487,3.5577,3.5795,3.5839,3.5905,3.6019,3.6144,3.6165,3.6019,3.6195,3.6301,3.6301,3.568,3.537,3.5352,3.4734,3.4372,3.4268,3.4268,3.3913,3.3282,3.3282,3.2904,3.23,3.2157,3.2123,3.2143,3.1929,3.1947,3.2073,3.191,3.1911,3.1983,3.3859,3.3771,3.3621,3.3156,3.3124,3.3124,3.3124,3.3124,3.3124,3.3124,3.3124,3.3124,3.3124,3.3124,3.3124,3.3124,3.3124,3.3124,3.3124,3.3124,3.3124,3.3124,3.3124,3.3441,3.4189,3.4869,3.4883,3.4189,3.5156,3.5534,3.5479,3.598,3.6687,3.755,3.6394,3.6071,3.6271,3.5639,3.5608,3.6005,3.5831,3.6053,3.6492,3.6305,3.6148,3.6005,3.6005,3.5765,3.5504,3.5504,3.5504,3.5504,3.5504,3.5504,3.5504,3.5504,3.5504,3.5504,3.5504,3.4996,3.4459,3.4249,3.3335,3.2452,3.2377,3.1914,3.164,3.2163,3.2342,3.2547,3.2986,3.313,3.2285,2.9519,2.8951,2.8436,2.7227,2.8597,3.0418,3.2251,3.4208,3.5435,3.5498,3.5751,3.5866,3.5795,3.6014,3.6161,3.6182,3.6233,3.6255,3.6165,3.6255,3.6301,3.6301,3.6197,3.6128,3.6128,3.6008,3.5628,3.5045,3.5091,3.4716,3.4025,3.4025,3.3704,3.3192,3.3047,3.2754,3.2336,3.2179,3.2108,3.2108,3.2055,3.1893,3.1673,3.4399,3.4349,3.4261,3.401,3.396,3.396,3.396,3.3709,3.352,3.352,3.3257,3.3124,3.3124,3.3124,3.3124,3.3124,3.3124,3.3124,3.3124,3.3124,3.3124,3.3124,3.3124,3.3484,3.4397,3.5196,3.5534,3.5373,3.6213,3.671,3.6968,3.7564,3.8061,3.8412,3.7424,3.6996,3.6995,3.6295,3.6085,3.6258,3.6163,3.6289,3.6492,3.6383,3.6226,3.6005,3.6005,3.5765,3.5504,3.5504,3.5504,3.5504,3.5504,3.5504,3.5504,3.5504,3.5504,3.5504,3.5504,3.5265,3.4936,3.4593,3.4023,3.3484,3.3125,3.2778,3.2612,3.288,3.3123,3.3403,3.3646,3.3926,3.3413,3.1232,3.0606,3.0334,3.0135,3.0751,3.1951,3.3923,3.502,3.5639,3.5656,3.5751,3.5844,3.5993,3.6148,3.6255,3.6255,3.628,3.628,3.6255,3.628,3.6301,3.6301,3.6301,3.6301,3.6301,3.6301,3.6111,3.5783,3.5808,3.5454,3.4787,3.4787,3.4484,3.3938,3.3791,3.3377,3.2825,3.2627,3.2311,3.1928,3.1818,3.1634,3.1428,3.4893,3.4868,3.4831,3.4705,3.468,3.468,3.468,3.4361,3.4048,3.3922,3.3533,3.3262,3.3093,3.3124,3.3124,3.3124,3.3124,3.3124,3.3124,3.3124,3.3124,3.3124,3.3471,3.4092,3.495,3.5789,3.6279,3.6487,3.7381,3.789,3.8138,3.9009,3.9324,3.9126,3.8459,3.8083,3.7923,3.7076,3.6722,3.6707,3.6491,3.6383,3.6414,3.6398,3.6195,3.5941,3.5973,3.5765,3.5504,3.5504,3.5504,3.5504,3.5504,3.5504,3.5504,3.5504,3.5504,3.5504,3.5504,3.5504,3.5385,3.4846,3.4623,3.4339,3.3649,3.3438,3.338,3.3352,3.3742,3.4151,3.425,3.4618,3.4301,3.2457,3.2173,3.2256,3.2455,3.2563,3.3362,3.5414,3.5639,3.5661,3.5795,3.5817,3.591,3.6122,3.6255,3.6232,3.6042,3.6215,3.6301,3.6301,3.6301,3.6301,3.6301,3.6301,3.6301,3.6301,3.6301,3.6301,3.6301,3.6301,3.6015,3.5544,3.5544,3.5169,3.4608,3.4495,3.4064,3.3426,3.3066,3.254,3.1985,3.1625,3.1368,3.1176,3.5545,3.5445,3.527,3.4768,3.468,3.468,3.468,3.4688,3.4474,3.3972,3.3872,3.3646,3.3131,3.3124,3.3124,3.3124,3.3124,3.3124,3.3124,3.3124,3.3124,3.3124,3.4594,3.5829,3.6702,3.7567,3.782,3.7396,3.8271,3.8494,3.8138,3.9009,3.958,3.9905,3.9156,3.9028,3.9277,3.7984,3.743,3.7337,3.6423,3.6116,3.6211,3.6085,3.5894,3.5752,3.5941,3.5765,3.5504,3.5504,3.5504,3.5504,3.5504,3.5504,3.5504,3.5504,3.5504,3.5504,3.5504,3.5504,3.5489,3.5444,3.4951,3.4339,3.3649,3.3438,3.3354,3.3244,3.3678,3.425,3.4756,3.4875,3.3687,2.999,3.1079,3.1781,3.0021,3.1774,3.3867,3.5586,3.6268,3.6395,3.5839,3.617,3.6335,3.6041,3.6195,3.6008,3.5318,3.5921,3.6301,3.6301,3.6301,3.6301,3.6301,3.6301,3.6301,3.6301,3.6301,3.6301,3.6301,3.6301,3.6266,3.6236,3.6236,3.5846,3.5238,3.522,3.4861,3.4227,3.3273,3.2829,3.2629,3.1796,3.1252,3.0952,3.6094,3.6056,3.5981,3.5768,3.5742,3.5742,3.5742,3.5454,3.5107,3.4906,3.4625,3.4198,3.3646,3.4079,3.4255,3.3933,3.4358,3.4664,3.4664,3.4664,3.4441,3.3937,3.4992,3.6029,3.6897,3.7758,3.8375,3.8679,3.8987,3.9313,3.9621,3.9935,4.0176,4.0266,3.9577,3.9339,3.9398,3.8077,3.7507,3.7446,3.6628,3.6258,3.6196,3.6148,3.5958,3.572,3.5799,3.5701,3.5504,3.5504,3.5504,3.5537,3.5733,3.5797,3.5829,3.591,3.6148,3.6383,3.6383,3.6274,3.618,3.607,3.5919,3.5706,3.54,3.5315,3.5275,3.515,3.5279,3.5316,3.5077,3.5088,3.4403,3.2142,3.3233,3.3902,3.2541,3.388,3.5271,3.602,3.6191,3.6212,3.6127,3.6148,3.6191,3.6191,3.6259,3.5973,3.5232,3.5456,3.5818,3.6284,3.6301,3.6301,3.6301,3.6301,3.6301,3.6301,3.6301,3.6301,3.6301,3.6301,3.6301,3.6301,3.6301,3.6149,3.5932,3.5932,3.552,3.4814,3.3819,3.3057,3.2386,3.1464,3.0935,3.0651,3.6405,3.6405,3.6405,3.6405,3.6628,3.6862,3.6862,3.6497,3.6133,3.6014,3.5398,3.4655,3.3985,3.4675,3.4986,3.445,3.5128,3.5615,3.5615,3.5615,3.5467,3.5196,3.5722,3.6439,3.7285,3.7886,3.8598,3.94,3.94,3.9773,4.0489,4.0489,4.0489,4.0474,4.0013,3.9797,3.9721,3.8616,3.8015,3.7754,3.7013,3.6473,3.6148,3.6148,3.5926,3.5638,3.5688,3.5621,3.5504,3.5504,3.5504,3.5569,3.5893,3.6068,3.6163,3.6289,3.6631,3.7055,3.7221,3.7322,3.732,3.698,3.695,3.6917,3.6654,3.673,3.6688,3.6169,3.615,3.6033,3.5338,3.5274,3.5067,3.4223,3.5026,3.5486,3.4783,3.5535,3.6191,3.628,3.6255,3.6233,3.6301,3.6195,3.6191,3.6301,3.6301,3.6077,3.5559,3.5256,3.5463,3.6266,3.6237,3.6237,3.6301,3.6301,3.6301,3.6301,3.6301,3.6301,3.6301,3.6301,3.6301,3.6301,3.6301,3.6301,3.6301,3.6301,3.6008,3.5452,3.4507,3.3666,3.2848,3.1681,3.1083,3.082,3.6405,3.6405,3.6405,3.6405,3.7176,3.7808,3.7808,3.7808,3.7599,3.7082,3.6171,3.5127,3.4035,3.4731,3.5041,3.4491,3.5169,3.5628,3.5615,3.5615,3.6029,3.6897,3.6897,3.7323,3.8202,3.8202,3.8598,3.94,3.94,3.9773,4.0489,4.0489,4.0489,4.0489,4.0489,4.0489,4.0443,3.9767,3.9123,3.8413,3.7544,3.6711,3.6005,3.6005,3.5797,3.5537,3.5638,3.5621,3.5504,3.5504,3.5504,3.5569,3.5893,3.6226,3.6523,3.6523,3.689,3.7424,3.7969,3.8596,3.8912,3.8185,3.7905,3.7687,3.7146,3.733,3.7206,3.5816,3.5991,3.6216,3.5513,3.5402,3.5447,3.5577,3.5822,3.5997,3.5997,3.6276,3.6444,3.6322,3.6523,3.6602,3.6322,3.6423,3.6444,3.6322,3.6284,3.6284,3.6301,3.5351,3.5261,3.6245,3.6105,3.6088,3.6301,3.6301,3.6301,3.6301,3.6301,3.6301,3.6301,3.6301,3.6301,3.6301,3.6301,3.6301,3.6301,3.6301,3.6301,3.6211,3.5261,3.4738,3.4298,3.2622,3.1833,3.152,3.6452,3.6405,3.6405,3.6405,3.7176,3.7808,3.7808,3.8373,3.8698,3.8568,3.8274,3.7816,3.7147,3.7842,3.7937,3.6945,3.7622,3.7923,3.7467,3.7438,3.7668,3.8211,3.7653,3.7729,3.8598,3.8892,3.9147,3.94,3.9681,4.0051,4.0489,4.0489,4.0489,4.0505,4.0401,4.0401,4.0443,3.9615,3.8974,3.8446,3.7689,3.6854,3.6005,3.6005,3.5797,3.5504,3.5554,3.5522,3.5504,3.5504,3.5504,3.5602,3.6178,3.7312,3.8294,3.7783,3.8222,3.8951,3.9119,3.9532,3.9714,3.8728,3.8536,3.8504,3.8248,3.8363,3.8374,3.7911,3.7616,3.7219,3.6449,3.6051,3.5827,3.5866,3.6084,3.6216,3.6216,3.6301,3.6343,3.6301,3.6364,3.6402,3.6301,3.6339,3.6343,3.6301,3.5818,3.5687,3.6071,3.5266,3.5113,3.5788,3.5756,3.5756,3.5805,3.6131,3.6301,3.6301,3.6301,3.6301,3.6301,3.6301,3.6301,3.6301,3.6301,3.6301,3.6301,3.6301,3.6301,3.619,3.5053,3.4554,3.4259,3.241,3.1663,3.1499,3.7815,3.7645,3.7381,3.7036,3.8056,3.8765,3.8419,3.9166,3.9768,3.9768,3.9417,3.9023,3.8469,3.9199,3.9226,3.8002,3.8451,3.8638,3.8231,3.8202,3.8464,3.9002,3.8531,3.8405,3.8782,3.9184,3.94,3.94,3.9803,4.0172,4.0489,4.0489,4.0455,4.0436,4.0347,4.0296,4.0266,3.9749,3.9032,3.8262,3.7849,3.697,3.5863,3.5863,3.5733,3.5504,3.5504,3.5504,3.5504,3.5504,3.5814,3.6337,3.7012,3.8124,3.9125,3.8662,3.9135,3.9765,3.9688,4.0054,4.0271,3.9594,3.942,3.942,3.9342,3.9342,3.9289,3.8942,3.8601,3.8031,3.6977,3.6593,3.6356,3.6114,3.617,3.6276,3.6301,3.6276,3.6276,3.6301,3.6301,3.6301,3.6301,3.6301,3.6301,3.6301,3.5887,3.5773,3.6092,3.5471,3.5307,3.5739,3.5594,3.5509,3.56,3.5871,3.6067,3.6174,3.6174,3.6216,3.6301,3.6301,3.6301,3.6301,3.6301,3.6301,3.6301,3.6301,3.6259,3.6118,3.5377,3.4989,3.4633,3.3156,3.2386,3.1934,3.98,3.9522,3.8975,3.8069,3.9417,4.0289,3.9461,4.0116,4.0731,4.0731,4.0,3.927,3.8767,3.941,3.9378,3.8206,3.8198,3.824,3.8202,3.824,3.8612,3.9379,3.94,3.9256,3.8907,3.9292,3.9472,3.9451,3.9839,4.0207,4.0489,4.0489,4.0436,4.0312,4.0277,4.0172,4.0011,3.996,3.9202,3.8007,3.8007,3.7089,3.5688,3.5688,3.5621,3.5504,3.5504,3.5504,3.5504,3.5554,3.6415,3.7555,3.8121,3.8794,3.9339,3.9286,3.9662,4.0053,3.9919,4.0296,4.0673,4.0534,4.0412,4.0313,4.0288,4.0188,3.991,3.9225,3.9063,3.8597,3.7256,3.7087,3.6908,3.6324,3.6187,3.6208,3.628,3.6251,3.6229,3.628,3.6301,3.6301,3.6301,3.6301,3.6301,3.6301,3.6301,3.628,3.6237,3.5827,3.5689,3.5888,3.5481,3.5344,3.5532,3.5532,3.5689,3.5954,3.5997,3.6105,3.628,3.6301,3.6301,3.6301,3.6301,3.6301,3.628,3.628,3.6152,3.5954,3.5932,3.5684,3.5207,3.4454,3.3578,3.2702,3.9814,3.9727,3.9522,3.8975,3.9855,4.0504,4.0332,4.1128,4.1758,4.1758,4.1591,4.1408,4.1321,4.1013,4.0475,3.9668,3.9031,3.8538,3.8202,3.8486,3.8892,3.9364,3.94,3.9487,3.9732,4.0071,4.0141,3.9889,4.0226,4.0436,4.0489,4.0489,4.0436,4.0312,4.0137,4.0046,3.9996,3.9839,3.9083,3.8007,3.8007,3.7089,3.5688,3.5688,3.5621,3.5504,3.5504,3.5504,3.5569,3.6053,3.7306,3.8641,3.8374,3.9342,4.0427,3.9969,4.0237,4.0686,4.0662,4.0752,4.0817,4.0558,4.0485,4.0436,4.0313,4.0188,4.0062,3.9893,3.9493,3.8911,3.8076,3.7558,3.7036,3.6396,3.6229,3.6225,3.6208,3.6208,3.6225,3.6208,3.6276,3.6301,3.6301,3.6301,3.6301,3.6301,3.6301,3.6131,3.5761,3.5667,3.5464,3.5142,3.5041,3.5018,3.5048,3.5048,3.5258,3.5689,3.5888,3.6019,3.6084,3.6237,3.6301,3.6301,3.6301,3.6216,3.6062,3.6062,3.591,3.5667,3.5503,3.5383,3.5184,3.4232,3.3759,3.3398,4.1835,4.1462,4.0972,4.0332,4.0845,4.1156,4.0689,4.1437,4.2175,4.2351,4.2201,4.2175,4.2366,4.1896,4.1178,4.0191,3.9308,3.8708,3.8501,3.8855,3.9271,3.9681,3.9681,3.9839,4.0137,4.0366,4.0331,4.0011,4.0331,4.047,4.0401,4.0401,4.0261,4.0016,3.991,3.9803,3.9696,3.9279,3.8557,3.7692,3.7391,3.6619,3.5589,3.5589,3.5554,3.5504,3.5504,3.5683,3.6085,3.7011,3.8117,3.909,3.9156,3.9944,4.0847,4.0524,4.0645,4.0912,4.0912,4.0912,4.0864,4.0728,4.0631,4.0534,4.0355,4.0188,4.0138,4.0188,3.9932,3.9513,3.8812,3.8499,3.8002,3.6956,3.6762,3.662,3.6285,3.6208,3.6208,3.6233,3.628,3.6301,3.6301,3.6301,3.6301,3.6301,3.6301,3.6152,3.5822,3.5667,3.5441,3.5088,3.497,3.4899,3.4899,3.4899,3.5024,3.5258,3.5549,3.5778,3.5997,3.6127,3.6216,3.6301,3.6301,3.6191,3.5997,3.5997,3.5778,3.5435,3.5337,3.5222,3.5055,3.4515,3.4087,3.3624,4.3988,4.3423,4.2633,4.1686,4.191,4.1897,4.1015,4.1577,4.2242,4.2662,4.2392,4.2366,4.2769,4.2243,4.1386,4.0163,3.9362,3.8892,3.8892,3.9271,3.9646,3.9996,3.996,4.0066,4.0312,4.0366,4.0296,4.0031,4.0331,4.0401,4.0312,4.0277,4.0051,3.9681,3.9681,3.9589,3.9343,3.8811,3.8123,3.736,3.6851,3.6193,3.5504,3.5504,3.5504,3.5504,3.5619,3.6116,3.689,3.7994,3.8772,3.9361,3.991,4.0485,4.0912,4.0912,4.0912,4.0912,4.0912,4.0912,4.0894,4.0864,4.0793,4.0648,4.0429,4.0263,4.0188,4.0263,4.033,4.0116,3.9384,3.9382,3.9032,3.7566,3.7303,3.705,3.6379,3.6251,3.6208,3.6276,3.6301,3.6301,3.6301,3.6301,3.6301,3.6301,3.628,3.6152,3.5932,3.5689,3.5458,3.5245,3.5018,3.4899,3.4899,3.4899,3.4899,3.4899,3.5128,3.5458,3.5866,3.591,3.6062,3.6259,3.6259,3.6152,3.5997,3.5954,3.5684,3.5308,3.5245,3.5105,3.4899,3.4899,3.4502,3.3872,4.3934,4.391,4.3542,4.2673,4.2566,4.2459,4.198,4.2009,4.2242,4.2662,4.2648,4.2784,4.317,4.1898,4.0665,3.9915,3.952,3.9328,3.9328,3.9696,3.9925,4.0011,3.9839,3.991,4.0312,4.0137,4.0137,4.0277,4.0296,4.0312,4.0312,4.0101,3.9925,3.9681,3.9681,3.9589,3.9373,3.932,3.8556,3.7404,3.7315,3.6567,3.5504,3.5504,3.5504,3.5569,3.6085,3.7041,3.8108,3.8497,3.9236,3.9978,4.007,4.0485,4.0912,4.0912,4.0912,4.0912,4.0912,4.0912,4.0864,4.0745,4.0721,4.0697,4.0648,4.0534,4.0412,4.033,4.0387,4.027,3.9572,3.9483,3.9055,3.7693,3.7386,3.7045,3.6328,3.6225,3.6187,3.6208,3.6255,3.6301,3.6301,3.6301,3.6301,3.6301,3.6131,3.5932,3.5667,3.5458,3.5205,3.497,3.4923,3.4899,3.4899,3.4899,3.4899,3.4899,3.4947,3.5111,3.5406,3.5577,3.58,3.6041,3.6041,3.6019,3.5975,3.5756,3.5526,3.5268,3.5041,3.4923,3.4899,3.4899,3.4833,3.4651,4.4011,4.3988,4.3871,4.3488,4.301,4.2622,4.2325,4.2351,4.2541,4.285,4.297,4.321,4.366,4.2506,4.1385,4.0565,4.0285,3.9929,3.9424,3.9783,4.0011,4.0011,3.9925,3.991,3.998,3.9996,3.9996,3.998,4.0066,4.0051,3.998,3.9874,3.9732,3.9517,3.9517,3.9481,3.9394,3.9005,3.8287,3.7375,3.703,3.6342,3.5504,3.5504,3.5716,3.6133,3.7279,3.795,3.839,3.9038,3.9523,3.9884,3.9884,4.0246,4.068,4.068,4.0776,4.0912,4.0912,4.0912,4.0888,4.084,4.0817,4.0793,4.0721,4.0704,4.0697,4.0551,4.0576,4.0504,4.0209,4.0229,3.9921,3.8905,3.8348,3.777,3.7012,3.653,3.6255,3.6255,3.628,3.6301,3.6301,3.6301,3.6259,3.6131,3.6062,3.5822,3.5458,3.536,3.5175,3.4899,3.4899,3.4899,3.4899,3.4899,3.4899,3.4899,3.4899,3.5041,3.5291,3.5389,3.5571,3.5778,3.5778,3.5711,3.5594,3.5481,3.5297,3.5065,3.4947,3.4899,3.4949,3.5363,3.5512,3.5462]}]]